[[{"header":{"parameterUnit":"m.s-1","parameterCategory":1,"la1":31.0,"la2":29.5877,"lo1":-88.7671,"lo2":-86.6584,"dy":0.0162,"dx":0.0185,"nx":115,"ny":88,"refTime":"2023-04-27T06:00:00:Z","depth":0,"parameterNumber":2,"parameterNumberName":"U-component_of_WINDS"},"data":[0.0,0.0,0.0,0.0,0.0,0.0,0.0,0.0,0.0,0.0,0.0,0.0,0.0,0.0,0.0,0.0,0.0,0.0,0.0,0.0,0.0,0.0,0.0,0.0,0.0,0.0,0.0,0.0,0.0,0.0,0.0,0.0,0.0,0.0,0.0,0.0,0.0,0.0,0.0,0.0,0.0,0.0,0.0,0.0,0.0,0.0,0.0,0.0,0.0,0.0,0.0,0.0,0.0,0.0,0.0,0.0,0.0,0.0,0.0,0.0,0.0,0.0,0.0,0.0,0.0,0.0,0.0,0.0,0.0,0.0,0.0,0.0,0.0,0.0,0.0,0.0,0.0,0.0,0.0,0.0,0.0,0.0,0.0,0.0,0.0,0.0,0.0,0.0,0.0,0.0,0.0,0.0,0.0,0.0,0.0,0.0,0.0,0.0,0.0,0.0,0.0,0.0,0.0,0.0,0.0,0.0,0.0,0.0,0.0,0.0,0.0,0.0,0.0,0.0,0.0,0.0,0.0,0.0,0.0,0.0,0.0,0.0,0.0,0.0,0.0,0.0,0.0,0.0,0.0,0.0,0.0,0.0,0.0,0.0,0.0,0.0,0.0,0.0,0.0,0.0,0.0,0.0,0.0,0.0,0.0,0.0,0.0,0.0,0.0,0.0,0.0,0.0,0.0,0.0,0.0,0.0,0.0,0.0,0.0,0.0,0.0,0.0,0.0,0.0,0.0,0.0,0.0,0.0,0.0,0.0,0.0,0.0,0.0,0.0,0.0,0.0,0.0,0.0,0.0,0.0,0.0,0.0,0.0,0.0,0.0,0.0,0.0,0.0,0.0,0.0,0.0,0.0,0.0,0.0,0.0,0.0,0.0,0.0,0.0,0.0,0.0,0.0,0.0,0.0,0.0,0.0,0.0,0.0,0.0,0.0,0.0,0.0,0.0,0.0,0.0,0.0,0.0,0.0,0.0,0.0,0.0,0.0,0.0,0.0,0.0,0.0,0.0,0.0,0.0,0.0,0.0,0.0,0.0,0.0,0.0,0.0,0.0,0.0,0.0,0.0,0.0,0.0,0.0,0.0,0.0,0.0,0.0,0.0,0.0,0.0,0.0,0.0,0.0,0.0,0.0,0.0,0.0,0.0,0.0,0.0,0.0,0.0,0.0,0.0,0.0,0.0,0.0,0.0,0.0,0.0,0.0,0.0,0.0,0.0,0.0,0.0,0.0,0.0,0.0,0.0,0.0,0.0,0.0,0.0,0.0,0.0,0.0,0.0,0.0,0.0,0.0,0.0,0.0,0.0,0.0,0.0,0.0,0.0,0.0,0.0,0.0,0.0,0.0,0.0,0.0,0.0,0.0,0.0,0.0,0.0,0.0,0.0,0.0,0.0,0.0,0.0,0.0,0.0,0.0,0.0,0.0,0.0,0.0,0.0,0.0,0.0,0.0,0.0,0.0,0.0,0.0,0.0,0.0,0.0,0.0,0.0,0.0,0.0,0.0,0.0,0.0,0.0,0.0,0.0,0.0,0.0,0.0,0.0,0.0,0.0,0.0,0.0,0.0,0.0,0.0,0.0,0.0,0.0,0.0,0.0,0.0,0.0,0.0,0.0,0.0,0.0,0.0,0.0,0.0,0.0,0.0,0.0,0.0,0.0,0.0,0.0,0.0,0.0,0.0,0.0,0.0,0.0,0.0,0.0,0.0,0.0,0.0,0.0,0.0,0.0,0.0,0.0,0.0,0.0,0.0,0.0,0.0,0.0,0.0,0.0,0.0,0.0,0.0,0.0,0.0,0.0,0.0,0.0,0.0,0.0,0.0,0.0,0.0,0.0,0.0,0.0,0.0,0.0,0.0,0.0,0.0,0.0,0.0,0.0,0.0,0.0,0.0,0.0,0.0,0.0,0.0,0.0,0.0,0.0,0.0,0.0,0.0,0.0,0.0,0.0,0.0,0.0,0.0,0.0,0.0,0.0,0.0,0.0,0.0,0.0,0.0,0.0,0.0,0.0,0.0,0.0,0.0,0.0,0.0,0.0,0.0,0.0,0.0,0.0,0.0,0.0,0.0,0.0,0.0,0.0,0.0,0.0,0.0,0.0,0.0,0.0,0.0,0.0,0.0,0.0,0.0,0.0,0.0,0.0,0.0,0.0,0.0,0.0,0.0,0.0,0.0,0.0,0.0,0.0,0.0,0.0,0.0,0.0,0.0,0.0,0.0,0.0,0.0,0.0,0.0,0.0,0.0,0.0,0.0,0.0,0.0,0.0,0.0,0.0,0.0,0.0,0.0,0.0,0.0,0.0,0.0,0.0,0.0,0.0,0.0,0.0,0.0,0.0,0.0,0.0,0.0,0.0,0.0,0.0,0.0,0.0,0.0,0.0,0.0,0.0,0.0,0.0,0.0,0.0,0.0,0.0,0.0,0.0,0.0,0.0,0.0,0.0,0.0,0.0,0.0,0.0,0.0,0.0,0.0,0.0,0.0,0.0,0.0,0.0,0.0,0.0,0.0,0.0,0.0,0.0,0.0,0.0,0.0,0.0,0.0,0.0,0.0,0.0,0.0,0.0,0.0,0.0,0.0,0.0,0.0,0.0,0.0,0.0,0.0,0.0,0.0,0.0,0.0,0.0,0.0,0.0,0.0,0.0,0.0,0.0,0.0,0.0,0.0,0.0,0.0,0.0,0.0,0.0,0.0,0.0,0.0,0.0,0.0,0.0,0.0,0.0,0.0,0.0,0.0,0.0,0.0,0.0,0.0,0.0,0.0,0.0,0.0,0.0,0.0,0.0,0.0,0.0,0.0,0.0,0.0,0.0,0.0,0.0,0.0,0.0,0.0,0.0,0.0,0.0,0.0,0.0,0.0,0.0,0.0,0.0,0.0,0.0,0.0,0.0,0.0,0.0,0.0,0.0,0.0,0.0,0.0,0.0,0.0,0.0,0.0,0.0,0.0,0.0,0.0,0.0,0.0,0.0,0.0,0.0,0.0,0.0,0.0,0.0,0.0,0.0,0.0,0.0,0.0,0.0,0.0,0.0,0.0,0.0,0.0,0.0,0.0,0.0,0.0,0.0,0.0,0.0,0.0,0.0,0.0,0.0,0.0,0.0,0.0,0.0,0.0,0.0,0.0,0.0,0.0,0.0,0.0,0.0,0.0,0.0,0.0,0.0,0.0,0.0,0.0,0.0,0.0,0.0,0.0,0.0,0.0,0.0,0.0,0.0,0.0,0.0,0.0,0.0,0.0,0.0,0.0,0.0,0.0,0.0,0.0,0.0,0.0,0.0,0.0,0.0,0.0,0.0,0.0,0.0,0.0,0.0,0.0,0.0,0.0,0.0,0.0,0.0,0.0,0.0,0.0,0.0,0.0,0.0,0.0,0.0,0.0,0.0,0.0,0.0,0.0,0.0,0.0,0.0,0.0,0.0,0.0,0.0,0.0,0.0,0.0,0.0,0.0,0.0,0.0,0.0,0.0,0.0,0.0,0.0,0.0,0.0,0.0,0.0,0.0,0.0,0.0,0.0,0.0,0.0,0.0,0.0,0.0,0.0,0.0,0.0,0.0,0.0,0.0,0.0,0.0,0.0,0.0,0.0,0.0,0.0,0.0,0.0,0.0,0.0,0.0,0.0,0.0,0.0,0.0,0.0,0.0,0.0,0.0,0.0,0.0,0.0,0.0,0.0,0.0,0.0,0.0,0.0,0.0,0.0,0.0,0.0,0.0,0.0,0.0,0.0,0.0,0.0,0.0,0.0,0.0,0.0,0.0,0.0,0.0,0.0,0.0,0.0,0.0,0.0,0.0,0.0,0.0,0.0,0.0,0.0,0.0,0.0,0.0,0.0,0.0,0.0,0.0,0.0,0.0,0.0,0.0,0.0,0.0,0.0,0.0,0.0,0.0,0.0,0.0,0.0,0.0,0.0,0.0,0.0,0.0,0.0,0.0,0.0,0.0,0.0,0.0,0.0,0.0,0.0,0.0,0.0,0.0,0.0,0.0,0.0,0.0,0.0,0.0,0.0,0.0,0.0,0.0,0.0,0.0,0.0,0.0,0.0,0.0,0.0,0.0,0.0,0.0,0.0,0.0,0.0,0.0,0.0,0.0,0.0,0.0,0.0,0.0,0.0,0.0,0.0,0.0,0.0,0.0,0.0,0.0,0.0,0.0,0.0,0.0,0.0,0.0,0.0,0.0,0.0,0.0,0.0,0.0,0.0,0.0,0.0,0.0,0.0,0.0,0.0,0.0,0.0,0.0,0.0,0.0,0.0,0.0,0.0,2.9091,0.0,0.0,0.0,0.0,0.0,0.0,0.0,0.0,0.0,0.0,0.0,0.0,0.0,0.0,0.0,0.0,0.0,0.0,0.0,0.0,0.0,0.0,0.0,0.0,0.0,0.0,0.0,0.0,0.0,0.0,0.0,0.0,0.0,0.0,0.0,0.0,0.0,0.0,0.0,0.0,0.0,0.0,0.0,0.0,0.0,0.0,0.0,0.0,0.0,0.0,0.0,0.0,0.0,0.0,0.0,0.0,0.0,0.0,0.0,0.0,0.0,0.0,0.0,0.0,0.0,0.0,0.0,0.0,0.0,0.0,0.0,0.0,0.0,0.0,0.0,0.0,0.0,0.0,0.0,0.0,0.0,0.0,0.0,0.0,0.0,0.0,0.0,0.0,0.0,0.0,0.0,0.0,0.0,0.0,0.0,0.0,0.0,0.0,0.0,0.0,0.0,0.0,0.0,0.0,0.0,0.0,0.0,0.0,0.0,0.0,2.9091,2.9091,2.9091,2.9075,2.9029,0.0,0.0,0.0,0.0,0.0,0.0,0.0,0.0,0.0,0.0,0.0,0.0,0.0,0.0,0.0,0.0,0.0,0.0,0.0,0.0,0.0,0.0,0.0,0.0,0.0,0.0,0.0,0.0,0.0,0.0,0.0,0.0,0.0,0.0,0.0,0.0,0.0,0.0,0.0,0.0,0.0,0.0,0.0,0.0,0.0,0.0,0.0,0.0,0.0,0.0,0.0,0.0,0.0,0.0,0.0,0.0,0.0,0.0,0.0,0.0,0.0,0.0,0.0,0.0,0.0,0.0,0.0,0.0,0.0,0.0,0.0,0.0,0.0,0.0,0.0,0.0,0.0,0.0,0.0,0.0,0.0,0.0,0.0,0.0,0.0,0.0,0.0,0.0,0.0,0.0,0.0,0.0,0.0,0.0,0.0,0.0,0.0,0.0,0.0,0.0,0.0,0.0,0.0,0.0,0.0,0.0,0.0,0.0,0.0,0.0,0.0,0.0,2.9075,2.9029,2.8951,0.0,0.0,0.0,0.0,0.0,0.0,0.0,0.0,0.0,0.0,0.0,0.0,0.0,0.0,0.0,0.0,0.0,0.0,0.0,0.0,0.0,0.0,0.0,0.0,0.0,0.0,0.0,0.0,0.0,0.0,0.0,0.0,0.0,0.0,0.0,0.0,0.0,0.0,0.0,0.0,0.0,0.0,0.0,0.0,0.0,0.0,0.0,0.0,0.0,0.0,0.0,0.0,0.0,0.0,0.0,0.0,0.0,0.0,0.0,0.0,0.0,0.0,0.0,0.0,0.0,0.0,0.0,0.0,0.0,0.0,0.0,0.0,0.0,0.0,0.0,0.0,0.0,0.0,0.0,0.0,0.0,0.0,0.0,0.0,0.0,0.0,0.0,0.0,0.0,0.0,0.0,0.0,0.0,0.0,0.0,0.0,0.0,0.0,0.0,0.0,0.0,0.0,0.0,0.0,0.0,0.0,0.0,0.0,0.0,0.0,2.9029,2.8904,2.9013,0.0,2.8998,0.0,0.0,0.0,0.0,0.0,0.0,0.0,0.0,0.0,0.0,0.0,0.0,0.0,0.0,0.0,0.0,0.0,0.0,0.0,0.0,0.0,0.0,0.0,0.0,0.0,0.0,0.0,0.0,0.0,0.0,0.0,0.0,0.0,0.0,0.0,0.0,0.0,0.0,0.0,0.0,0.0,0.0,0.0,0.0,0.0,0.0,0.0,0.0,0.0,0.0,0.0,0.0,0.0,0.0,0.0,0.0,0.0,0.0,0.0,0.0,0.0,0.0,0.0,0.0,0.0,0.0,0.0,0.0,0.0,0.0,0.0,0.0,0.0,0.0,0.0,0.0,0.0,0.0,0.0,0.0,0.0,0.0,0.0,0.0,0.0,0.0,0.0,0.0,0.0,0.0,0.0,0.0,0.0,0.0,0.0,0.0,0.0,0.0,0.0,0.0,0.0,0.0,0.0,0.0,0.0,0.0,0.0,0.0,0.0,0.0,2.9075,2.9013,2.8951,2.8905,0.0,0.0,0.0,0.0,0.0,0.0,0.0,0.0,0.0,0.0,0.0,0.0,0.0,0.0,0.0,0.0,0.0,0.0,0.0,0.0,0.0,0.0,0.0,0.0,0.0,0.0,0.0,0.0,0.0,0.0,0.0,0.0,0.0,0.0,0.0,0.0,0.0,0.0,0.0,0.0,0.0,0.0,0.0,0.0,0.0,0.0,0.0,0.0,0.0,0.0,0.0,0.0,0.0,0.0,0.0,0.0,0.0,0.0,0.0,0.0,0.0,0.0,0.0,0.0,0.0,0.0,0.0,0.0,0.0,0.0,0.0,0.0,0.0,0.0,0.0,0.0,0.0,0.0,0.0,0.0,0.0,0.0,0.0,0.0,0.0,0.0,0.0,0.0,0.0,0.0,0.0,0.0,0.0,0.0,0.0,0.0,0.0,0.0,0.0,0.0,0.0,0.0,0.0,0.0,0.0,0.0,0.0,0.0,0.0,0.0,2.9075,2.9029,2.8998,2.8842,2.8763,2.8842,0.0,0.0,0.0,0.0,0.0,0.0,0.0,0.0,0.0,0.0,0.0,0.0,0.0,0.0,0.0,0.0,0.0,0.0,0.0,0.0,0.0,0.0,0.0,0.0,0.0,0.0,0.0,0.0,0.0,0.0,0.0,0.0,0.0,0.0,0.0,0.0,0.0,0.0,0.0,0.0,0.0,0.0,0.0,0.0,0.0,0.0,0.0,0.0,0.0,0.0,0.0,0.0,0.0,0.0,0.0,0.0,0.0,0.0,0.0,0.0,0.0,0.0,0.0,0.0,0.0,0.0,0.0,0.0,0.0,0.0,0.0,0.0,0.0,0.0,0.0,0.0,0.0,0.0,0.0,0.0,0.0,0.0,0.0,0.0,0.0,0.0,0.0,0.0,0.0,0.0,0.0,0.0,0.0,0.0,0.0,0.0,0.0,0.0,0.0,0.0,0.0,0.0,0.0,0.0,0.0,0.0,0.0,0.0,2.9075,2.8982,2.8889,2.8842,2.8684,2.8621,0.0,0.0,0.0,0.0,0.0,0.0,0.0,0.0,0.0,0.0,0.0,0.0,0.0,0.0,0.0,0.0,0.0,0.0,0.0,0.0,0.0,0.0,0.0,0.0,0.0,0.0,0.0,0.0,0.0,0.0,0.0,0.0,0.0,0.0,0.0,0.0,0.0,0.0,0.0,0.0,0.0,0.0,0.0,0.0,0.0,0.0,0.0,0.0,0.0,0.0,0.0,0.0,0.0,0.0,0.0,0.0,0.0,0.0,0.0,0.0,0.0,0.0,0.0,0.0,0.0,0.0,0.0,0.0,0.0,0.0,0.0,0.0,0.0,0.0,0.0,0.0,0.0,0.0,0.0,0.0,0.0,0.0,0.0,0.0,0.0,0.0,0.0,0.0,0.0,0.0,0.0,0.0,0.0,0.0,0.0,0.0,0.0,0.0,0.0,0.0,0.0,0.0,0.0,0.0,0.0,0.0,0.0,0.0,0.0,2.9091,2.9075,2.9029,2.8998,2.8826,2.8747,0.0,0.0,0.0,0.0,0.0,0.0,0.0,0.0,0.0,0.0,0.0,0.0,0.0,0.0,0.0,0.0,0.0,0.0,0.0,0.0,0.0,0.0,0.0,0.0,0.0,0.0,0.0,0.0,0.0,0.0,0.0,0.0,0.0,0.0,0.0,0.0,0.0,0.0,0.0,0.0,0.0,0.0,0.0,0.0,0.0,0.0,0.0,0.0,0.0,0.0,0.0,0.0,0.0,0.0,0.0,0.0,0.0,0.0,0.0,0.0,0.0,0.0,0.0,0.0,0.0,0.0,0.0,0.0,0.0,0.0,0.0,0.0,0.0,0.0,0.0,0.0,0.0,0.0,0.0,0.0,0.0,0.0,0.0,0.0,0.0,0.0,0.0,0.0,0.0,0.0,0.0,0.0,0.0,0.0,0.0,0.0,0.0,0.0,0.0,0.0,0.0,0.0,0.0,0.0,0.0,0.0,0.0,0.0,0.0,2.9029,0.0,2.9091,2.9014,2.8905,2.8826,0.0,0.0,0.0,0.0,0.0,0.0,0.0,0.0,0.0,0.0,0.0,0.0,0.0,0.0,0.0,0.0,0.0,0.0,0.0,0.0,0.0,0.0,0.0,0.0,0.0,0.0,0.0,0.0,0.0,0.0,0.0,0.0,0.0,0.0,0.0,0.0,0.0,0.0,0.0,0.0,0.0,0.0,0.0,0.0,0.0,0.0,0.0,0.0,0.0,0.0,0.0,0.0,0.0,0.0,0.0,0.0,0.0,0.0,0.0,0.0,0.0,0.0,0.0,0.0,0.0,0.0,0.0,0.0,0.0,0.0,0.0,0.0,0.0,0.0,0.0,0.0,0.0,0.0,0.0,0.0,0.0,0.0,0.0,0.0,0.0,0.0,0.0,0.0,0.0,0.0,0.0,0.0,0.0,0.0,0.0,0.0,0.0,0.0,0.0,0.0,0.0,0.0,0.0,0.0,0.0,0.0,0.0,0.0,2.9045,2.8904,2.9013,2.8998,2.8794,2.8889,2.8826,0.0,0.0,0.0,0.0,0.0,0.0,0.0,0.0,0.0,0.0,0.0,0.0,0.0,0.0,0.0,0.0,0.0,0.0,0.0,0.0,0.0,0.0,0.0,0.0,0.0,0.0,0.0,0.0,0.0,0.0,0.0,0.0,0.0,0.0,0.0,0.0,0.0,0.0,0.0,0.0,0.0,0.0,0.0,0.0,0.0,0.0,0.0,0.0,0.0,0.0,0.0,0.0,0.0,0.0,0.0,0.0,0.0,0.0,0.0,0.0,0.0,0.0,0.0,0.0,0.0,0.0,0.0,0.0,0.0,0.0,0.0,0.0,0.0,0.0,0.0,0.0,0.0,0.0,0.0,0.0,0.0,0.0,0.0,0.0,0.0,0.0,0.0,0.0,0.0,0.0,0.0,0.0,0.0,0.0,0.0,0.0,0.0,0.0,0.0,0.0,0.0,0.0,0.0,0.0,0.0,0.0,0.0,0.0,0.0,2.9029,2.9075,2.9091,2.8998,2.892,2.8858,0.0,0.0,0.0,0.0,0.0,0.0,0.0,0.0,0.0,0.0,0.0,0.0,0.0,0.0,0.0,0.0,0.0,0.0,0.0,0.0,0.0,0.0,0.0,0.0,0.0,0.0,0.0,0.0,0.0,0.0,0.0,0.0,0.0,0.0,0.0,0.0,0.0,0.0,0.0,0.0,0.0,0.0,0.0,0.0,0.0,0.0,0.0,0.0,0.0,0.0,0.0,0.0,0.0,0.0,0.0,0.0,0.0,0.0,0.0,0.0,0.0,0.0,0.0,0.0,0.0,0.0,0.0,0.0,0.0,0.0,0.0,0.0,0.0,0.0,0.0,0.0,0.0,0.0,0.0,0.0,0.0,0.0,0.0,0.0,0.0,0.0,0.0,0.0,0.0,0.0,0.0,0.0,0.0,0.0,0.0,0.0,0.0,0.0,0.0,0.0,0.0,0.0,0.0,0.0,0.0,0.0,0.0,0.0,0.0,2.9289,2.9289,2.9289,2.9305,2.9182,2.9074,2.8936,0.0,0.0,0.0,0.0,0.0,0.0,0.0,0.0,0.0,0.0,0.0,0.0,0.0,0.0,0.0,0.0,0.0,0.0,0.0,0.0,0.0,0.0,0.0,0.0,0.0,0.0,0.0,0.0,0.0,0.0,0.0,0.0,0.0,0.0,0.0,0.0,0.0,0.0,0.0,0.0,0.0,0.0,0.0,0.0,0.0,0.0,0.0,0.0,0.0,0.0,0.0,0.0,0.0,0.0,0.0,0.0,0.0,0.0,0.0,0.0,0.0,0.0,0.0,0.0,0.0,0.0,0.0,0.0,0.0,0.0,0.0,0.0,0.0,0.0,0.0,0.0,0.0,0.0,0.0,0.0,0.0,0.0,0.0,0.0,0.0,0.0,0.0,0.0,0.0,0.0,0.0,0.0,0.0,0.0,0.0,0.0,0.0,0.0,0.0,0.0,0.0,0.0,0.0,0.0,0.0,0.0,0.0,0.0,2.9617,2.9661,2.9677,2.9617,2.9633,2.9393,0.0,0.0,0.0,0.0,0.0,0.0,0.0,0.0,0.0,0.0,0.0,0.0,0.0,0.0,0.0,0.0,0.0,0.0,0.0,0.0,0.0,0.0,0.0,0.0,0.0,0.0,0.0,0.0,0.0,0.0,0.0,0.0,0.0,0.0,0.0,0.0,0.0,0.0,0.0,0.0,0.0,0.0,0.0,0.0,0.0,0.0,0.0,0.0,0.0,0.0,0.0,0.0,0.0,0.0,0.0,0.0,0.0,0.0,0.0,0.0,0.0,0.0,0.0,0.0,0.0,0.0,0.0,0.0,0.0,0.0,0.0,0.0,0.0,0.0,0.0,0.0,0.0,0.0,0.0,0.0,0.0,0.0,0.0,0.0,0.0,0.0,0.0,0.0,0.0,0.0,0.0,0.0,0.0,0.0,0.0,0.0,0.0,0.0,0.0,0.0,0.0,0.0,0.0,0.0,0.0,0.0,0.0,0.0,0.0,3.0081,3.0326,3.03,3.0044,2.9782,2.9528,0.0,0.0,0.0,0.0,0.0,0.0,0.0,0.0,0.0,0.0,0.0,0.0,0.0,0.0,0.0,0.0,0.0,0.0,0.0,0.0,0.0,0.0,0.0,0.0,0.0,0.0,0.0,0.0,0.0,0.0,0.0,0.0,0.0,0.0,0.0,0.0,0.0,0.0,0.0,0.0,0.0,0.0,0.0,0.0,0.0,0.0,0.0,0.0,0.0,0.0,0.0,0.0,0.0,0.0,0.0,0.0,0.0,0.0,0.0,0.0,0.0,0.0,0.0,0.0,0.0,0.0,0.0,0.0,0.0,0.0,0.0,0.0,0.0,0.0,0.0,0.0,0.0,0.0,0.0,0.0,0.0,0.0,0.0,0.0,0.0,0.0,0.0,0.0,0.0,0.0,0.0,0.0,0.0,0.0,0.0,0.0,0.0,0.0,0.0,0.0,0.0,0.0,0.0,0.0,0.0,0.0,0.0,0.0,3.0054,3.0351,3.0716,3.0855,3.0658,3.0199,2.9939,0.0,0.0,0.0,0.0,0.0,0.0,0.0,0.0,0.0,0.0,0.0,0.0,0.0,0.0,0.0,0.0,0.0,0.0,0.0,0.0,0.0,0.0,0.0,0.0,0.0,0.0,0.0,0.0,0.0,0.0,0.0,0.0,0.0,0.0,0.0,0.0,0.0,0.0,0.0,0.0,0.0,0.0,0.0,0.0,0.0,0.0,0.0,0.0,0.0,0.0,0.0,0.0,0.0,0.0,0.0,0.0,0.0,0.0,0.0,0.0,0.0,0.0,0.0,0.0,0.0,0.0,0.0,0.0,0.0,0.0,0.0,0.0,0.0,0.0,0.0,0.0,0.0,0.0,0.0,0.0,0.0,0.0,0.0,0.0,0.0,0.0,0.0,0.0,0.0,0.0,0.0,0.0,0.0,0.0,0.0,0.0,0.0,0.0,0.0,0.0,0.0,0.0,0.0,0.0,0.0,0.0,0.0,0.0,3.0393,3.0634,3.1038,3.1363,3.1475,3.0783,3.0506,0.0,0.0,0.0,0.0,0.0,0.0,0.0,0.0,0.0,0.0,0.0,0.0,0.0,0.0,0.0,0.0,0.0,0.0,0.0,0.0,0.0,0.0,0.0,0.0,0.0,0.0,0.0,0.0,0.0,0.0,0.0,0.0,0.0,0.0,0.0,0.0,0.0,0.0,0.0,0.0,0.0,0.0,0.0,0.0,0.0,0.0,0.0,0.0,0.0,0.0,0.0,0.0,0.0,0.0,0.0,0.0,0.0,0.0,0.0,0.0,0.0,0.0,0.0,0.0,0.0,0.0,0.0,0.0,0.0,0.0,0.0,0.0,0.0,0.0,0.0,0.0,0.0,0.0,0.0,0.0,0.0,0.0,0.0,0.0,0.0,0.0,0.0,0.0,0.0,0.0,0.0,0.0,0.0,0.0,0.0,0.0,0.0,0.0,0.0,0.0,0.0,0.0,0.0,0.0,0.0,0.0,0.0,0.0,3.0707,3.1304,3.1623,3.2117,3.2689,3.1707,3.1205,0.0,0.0,0.0,0.0,0.0,0.0,0.0,0.0,0.0,0.0,0.0,0.0,0.0,0.0,0.0,0.0,0.0,0.0,0.0,0.0,0.0,0.0,0.0,0.0,0.0,0.0,0.0,0.0,0.0,0.0,0.0,0.0,0.0,0.0,0.0,0.0,0.0,0.0,0.0,0.0,0.0,0.0,0.0,0.0,0.0,0.0,0.0,0.0,3.0911,0.0,0.0,0.0,0.0,0.0,0.0,0.0,0.0,0.0,0.0,0.0,0.0,0.0,0.0,0.0,0.0,0.0,0.0,0.0,0.0,0.0,0.0,0.0,0.0,0.0,0.0,0.0,0.0,0.0,0.0,0.0,0.0,0.0,0.0,0.0,0.0,0.0,0.0,0.0,0.0,0.0,0.0,0.0,0.0,0.0,0.0,0.0,0.0,0.0,0.0,0.0,0.0,0.0,0.0,0.0,0.0,0.0,0.0,0.0,3.1297,3.2067,3.2508,3.3053,3.3656,3.3339,3.294,0.0,0.0,0.0,0.0,0.0,0.0,0.0,0.0,0.0,0.0,0.0,0.0,0.0,0.0,0.0,0.0,0.0,0.0,0.0,0.0,0.0,0.0,0.0,0.0,0.0,0.0,0.0,0.0,0.0,0.0,0.0,0.0,0.0,0.0,0.0,0.0,0.0,0.0,0.0,0.0,0.0,0.0,0.0,0.0,0.0,0.0,0.0,0.0,0.0,0.0,0.0,0.0,0.0,0.0,0.0,0.0,0.0,0.0,0.0,0.0,0.0,0.0,0.0,0.0,0.0,0.0,0.0,0.0,0.0,0.0,0.0,0.0,0.0,0.0,0.0,0.0,0.0,0.0,0.0,0.0,0.0,0.0,0.0,0.0,0.0,0.0,0.0,0.0,0.0,0.0,0.0,0.0,0.0,0.0,0.0,0.0,0.0,0.0,0.0,0.0,0.0,0.0,0.0,0.0,0.0,0.0,0.0,3.1168,3.2012,3.2916,3.3583,3.4182,3.4738,3.5066,3.4822,3.4056,0.0,0.0,0.0,0.0,0.0,0.0,0.0,0.0,0.0,0.0,0.0,0.0,0.0,0.0,0.0,0.0,0.0,0.0,0.0,0.0,0.0,0.0,0.0,0.0,0.0,0.0,0.0,0.0,0.0,0.0,0.0,0.0,0.0,0.0,0.0,0.0,0.0,0.0,3.1981,3.1996,0.0,0.0,0.0,0.0,0.0,0.0,0.0,0.0,3.1087,0.0,0.0,0.0,0.0,0.0,0.0,0.0,0.0,0.0,0.0,0.0,0.0,0.0,0.0,0.0,0.0,0.0,0.0,0.0,0.0,0.0,0.0,0.0,0.0,0.0,0.0,0.0,0.0,0.0,0.0,0.0,0.0,0.0,0.0,0.0,0.0,0.0,0.0,0.0,0.0,0.0,0.0,0.0,0.0,0.0,0.0,0.0,0.0,0.0,0.0,0.0,0.0,0.0,0.0,0.0,0.0,3.1338,3.2068,3.2958,3.4023,3.4831,3.5666,3.6422,3.597,3.5618,3.5426,0.0,0.0,0.0,0.0,0.0,0.0,0.0,0.0,0.0,0.0,0.0,0.0,0.0,0.0,0.0,0.0,0.0,0.0,0.0,0.0,0.0,0.0,0.0,0.0,0.0,0.0,0.0,0.0,0.0,0.0,0.0,0.0,0.0,0.0,0.0,0.0,0.0,0.0,0.0,3.2094,3.2023,0.0,0.0,0.0,0.0,0.0,0.0,0.0,0.0,3.148,0.0,0.0,0.0,0.0,0.0,0.0,0.0,0.0,0.0,0.0,0.0,0.0,0.0,0.0,0.0,0.0,0.0,0.0,0.0,0.0,0.0,0.0,0.0,0.0,0.0,0.0,0.0,0.0,0.0,0.0,0.0,0.0,0.0,0.0,0.0,0.0,0.0,0.0,0.0,0.0,0.0,0.0,0.0,0.0,0.0,0.0,0.0,0.0,0.0,0.0,0.0,0.0,0.0,0.0,0.0,3.2238,3.3417,3.45,3.5439,3.6146,3.6725,3.7128,3.6699,3.615,0.0,0.0,0.0,0.0,0.0,0.0,0.0,0.0,0.0,0.0,0.0,0.0,0.0,0.0,0.0,0.0,0.0,0.0,0.0,0.0,0.0,0.0,0.0,0.0,0.0,0.0,0.0,0.0,0.0,0.0,0.0,0.0,0.0,0.0,0.0,0.0,0.0,0.0,0.0,0.0,3.2428,3.2302,3.2007,0.0,0.0,0.0,0.0,0.0,0.0,3.1667,3.1625,0.0,0.0,0.0,0.0,0.0,0.0,0.0,0.0,0.0,0.0,0.0,0.0,0.0,0.0,0.0,0.0,0.0,0.0,0.0,0.0,0.0,0.0,0.0,0.0,0.0,0.0,0.0,0.0,0.0,0.0,0.0,0.0,0.0,0.0,0.0,0.0,0.0,0.0,0.0,0.0,0.0,0.0,0.0,0.0,0.0,0.0,0.0,0.0,0.0,0.0,0.0,0.0,0.0,0.0,0.0,3.3246,3.4783,3.596,3.6687,3.728,3.7616,3.7542,3.7212,3.6516,0.0,0.0,0.0,0.0,0.0,0.0,0.0,0.0,0.0,0.0,0.0,0.0,0.0,0.0,0.0,0.0,0.0,0.0,0.0,0.0,0.0,0.0,0.0,0.0,0.0,0.0,0.0,0.0,0.0,0.0,0.0,0.0,0.0,0.0,0.0,0.0,0.0,0.0,0.0,0.0,0.0,3.2594,3.2453,3.2191,0.0,0.0,0.0,0.0,3.1652,3.1739,0.0,0.0,0.0,0.0,0.0,0.0,0.0,0.0,0.0,0.0,0.0,0.0,0.0,0.0,0.0,0.0,0.0,0.0,0.0,0.0,0.0,0.0,0.0,0.0,0.0,0.0,0.0,0.0,0.0,0.0,0.0,0.0,0.0,0.0,0.0,0.0,0.0,0.0,0.0,0.0,0.0,0.0,0.0,0.0,0.0,0.0,0.0,0.0,0.0,0.0,0.0,0.0,0.0,0.0,0.0,0.0,3.4515,3.5669,3.6618,3.7283,3.7985,3.8291,3.8034,3.7232,3.6499,0.0,0.0,0.0,0.0,0.0,0.0,0.0,0.0,0.0,0.0,0.0,0.0,0.0,0.0,0.0,0.0,0.0,0.0,0.0,0.0,0.0,0.0,0.0,0.0,0.0,0.0,0.0,0.0,0.0,0.0,0.0,0.0,0.0,0.0,0.0,0.0,0.0,0.0,0.0,0.0,0.0,3.2788,3.2594,3.2262,3.2038,0.0,0.0,3.2038,3.2064,3.2135,0.0,0.0,0.0,0.0,0.0,0.0,0.0,0.0,0.0,0.0,0.0,0.0,0.0,0.0,0.0,0.0,0.0,0.0,0.0,0.0,0.0,0.0,0.0,0.0,0.0,0.0,0.0,0.0,0.0,0.0,0.0,0.0,0.0,0.0,0.0,0.0,0.0,0.0,0.0,0.0,0.0,0.0,0.0,0.0,0.0,0.0,0.0,0.0,0.0,0.0,0.0,0.0,0.0,0.0,0.0,3.5177,3.5634,3.6908,3.774,3.8016,3.8394,3.8465,3.8101,3.7324,3.6556,0.0,0.0,0.0,0.0,0.0,0.0,0.0,0.0,0.0,0.0,0.0,0.0,0.0,0.0,0.0,0.0,0.0,0.0,0.0,0.0,0.0,0.0,0.0,0.0,0.0,0.0,0.0,0.0,0.0,0.0,0.0,0.0,0.0,0.0,0.0,0.0,0.0,0.0,0.0,0.0,0.0,0.0,3.2773,3.2388,0.0,0.0,0.0,3.2079,3.2079,0.0,0.0,0.0,0.0,0.0,0.0,0.0,0.0,0.0,0.0,0.0,0.0,0.0,0.0,0.0,0.0,0.0,0.0,0.0,0.0,0.0,0.0,0.0,0.0,0.0,0.0,0.0,0.0,0.0,0.0,0.0,0.0,0.0,0.0,0.0,0.0,0.0,0.0,0.0,0.0,0.0,0.0,0.0,0.0,0.0,0.0,0.0,0.0,0.0,0.0,0.0,0.0,0.0,0.0,0.0,0.0,0.0,3.6595,3.786,3.851,3.8541,3.8658,3.8515,3.8101,3.7488,0.0,0.0,0.0,0.0,0.0,0.0,0.0,0.0,0.0,0.0,0.0,0.0,0.0,0.0,0.0,0.0,0.0,0.0,0.0,0.0,0.0,0.0,0.0,0.0,0.0,0.0,0.0,3.315,0.0,0.0,0.0,0.0,0.0,0.0,0.0,0.0,0.0,0.0,0.0,0.0,0.0,0.0,3.2912,3.2912,3.2484,3.2191,0.0,0.0,3.215,3.2053,3.215,3.215,0.0,0.0,0.0,0.0,0.0,0.0,0.0,0.0,0.0,0.0,0.0,0.0,0.0,0.0,0.0,0.0,0.0,0.0,0.0,0.0,0.0,0.0,0.0,0.0,0.0,0.0,0.0,0.0,0.0,0.0,0.0,0.0,0.0,0.0,0.0,0.0,0.0,0.0,0.0,0.0,0.0,0.0,0.0,0.0,0.0,0.0,0.0,0.0,0.0,0.0,0.0,0.0,0.0,0.0,0.0,3.7434,3.8114,3.8541,3.8658,3.8707,3.8515,3.8101,3.7825,3.7159,0.0,0.0,0.0,0.0,0.0,0.0,0.0,0.0,0.0,0.0,0.0,0.0,0.0,0.0,0.0,0.0,0.0,0.0,0.0,0.0,0.0,0.0,0.0,0.0,0.0,0.0,0.0,0.0,0.0,0.0,0.0,0.0,0.0,0.0,0.0,0.0,0.0,0.0,0.0,0.0,0.0,3.2912,3.2912,3.2484,3.2191,0.0,0.0,3.2191,3.2191,3.2302,3.2287,3.2053,0.0,0.0,0.0,0.0,0.0,0.0,0.0,0.0,0.0,0.0,0.0,0.0,0.0,0.0,0.0,0.0,0.0,0.0,0.0,0.0,0.0,0.0,0.0,0.0,0.0,0.0,0.0,0.0,0.0,0.0,0.0,0.0,0.0,0.0,0.0,0.0,0.0,0.0,0.0,0.0,0.0,0.0,0.0,0.0,0.0,0.0,0.0,0.0,0.0,0.0,0.0,0.0,0.0,3.7542,3.7703,3.8318,3.8658,3.8707,3.8707,3.8645,3.8465,3.8065,3.7416,0.0,0.0,0.0,0.0,0.0,0.0,0.0,0.0,0.0,0.0,0.0,0.0,0.0,0.0,0.0,0.0,0.0,0.0,0.0,0.0,0.0,0.0,0.0,0.0,0.0,0.0,0.0,0.0,3.4201,3.4262,3.4406,0.0,0.0,0.0,0.0,0.0,0.0,0.0,0.0,0.0,0.0,3.3503,3.3745,3.314,0.0,0.0,3.2437,3.2191,3.2191,3.2262,3.2191,3.1898,3.1898,0.0,0.0,0.0,0.0,0.0,0.0,0.0,0.0,0.0,0.0,0.0,0.0,0.0,0.0,0.0,0.0,0.0,0.0,0.0,0.0,0.0,0.0,0.0,0.0,0.0,0.0,0.0,0.0,0.0,0.0,0.0,0.0,0.0,0.0,0.0,0.0,0.0,0.0,0.0,0.0,0.0,0.0,0.0,0.0,0.0,0.0,0.0,0.0,0.0,0.0,0.0,0.0,3.7667,3.7792,3.8368,3.8707,3.8707,3.8707,3.8707,3.8707,3.8332,3.7825,0.0,0.0,0.0,0.0,0.0,0.0,0.0,0.0,0.0,0.0,0.0,0.0,0.0,0.0,0.0,0.0,0.0,0.0,0.0,0.0,0.0,0.0,0.0,0.0,0.0,0.0,0.0,0.0,3.4295,3.4568,3.4649,0.0,0.0,0.0,0.0,0.0,0.0,0.0,0.0,0.0,0.0,3.3949,3.4101,3.3491,3.3039,3.3055,3.2547,3.2191,3.2191,3.2191,3.2155,3.2155,0.0,0.0,0.0,0.0,0.0,0.0,0.0,0.0,0.0,0.0,0.0,0.0,0.0,0.0,0.0,0.0,0.0,0.0,0.0,0.0,0.0,0.0,0.0,0.0,0.0,0.0,0.0,0.0,0.0,0.0,3.4019,0.0,0.0,0.0,0.0,0.0,0.0,0.0,0.0,0.0,0.0,0.0,0.0,0.0,0.0,0.0,0.0,0.0,0.0,0.0,0.0,0.0,0.0,3.7792,3.7827,3.8401,3.8707,3.8707,3.8707,3.8707,3.8707,3.8689,3.8415,3.7877,0.0,0.0,0.0,0.0,0.0,0.0,0.0,0.0,0.0,0.0,0.0,0.0,0.0,0.0,0.0,0.0,0.0,0.0,0.0,0.0,0.0,0.0,0.0,0.0,0.0,0.0,3.309,3.3909,3.452,0.0,0.0,0.0,0.0,0.0,0.0,0.0,0.0,0.0,0.0,3.405,3.4151,3.3797,3.3423,3.3108,3.2742,3.2428,3.2206,3.2221,3.2124,3.2209,0.0,0.0,0.0,0.0,0.0,0.0,0.0,0.0,0.0,0.0,0.0,0.0,0.0,0.0,0.0,0.0,0.0,0.0,0.0,0.0,0.0,0.0,0.0,0.0,0.0,0.0,0.0,3.4411,3.4501,0.0,0.0,0.0,0.0,0.0,0.0,0.0,0.0,0.0,0.0,0.0,3.6726,3.6973,0.0,0.0,0.0,0.0,0.0,0.0,0.0,0.0,0.0,0.0,0.0,0.0,3.7792,3.7827,3.8419,3.8707,3.8707,3.8707,3.8707,3.8707,3.8707,3.8465,3.7911,0.0,0.0,0.0,0.0,0.0,0.0,0.0,0.0,0.0,0.0,0.0,0.0,0.0,0.0,0.0,0.0,0.0,0.0,0.0,0.0,0.0,0.0,0.0,0.0,0.0,3.3714,0.0,0.0,0.0,0.0,0.0,0.0,0.0,0.0,0.0,0.0,0.0,3.5469,3.5031,3.4443,3.4101,3.4201,3.3832,3.3559,0.0,0.0,0.0,0.0,0.0,0.0,0.0,0.0,0.0,0.0,0.0,0.0,0.0,0.0,3.5178,3.5262,3.5371,3.5446,3.5688,0.0,0.0,0.0,0.0,0.0,0.0,0.0,0.0,0.0,0.0,0.0,0.0,0.0,0.0,3.5574,0.0,3.6123,0.0,0.0,0.0,0.0,0.0,0.0,0.0,0.0,3.721,3.7396,3.7578,3.7578,3.7596,0.0,3.7524,3.7246,0.0,0.0,0.0,0.0,0.0,0.0,0.0,0.0,3.7792,3.7827,3.8401,3.8707,3.8707,3.8707,3.8707,3.8707,3.8707,3.8546,3.8183,3.7488,3.6798,0.0,0.0,0.0,0.0,0.0,0.0,0.0,0.0,0.0,0.0,0.0,0.0,0.0,0.0,0.0,0.0,0.0,0.0,0.0,0.0,0.0,0.0,0.0,3.3964,0.0,0.0,0.0,0.0,0.0,0.0,0.0,0.0,0.0,3.7078,3.6761,3.6409,3.5953,3.5428,3.5033,3.5049,0.0,0.0,0.0,0.0,0.0,0.0,0.0,3.3985,3.4106,3.4075,3.4348,3.5059,3.567,3.5988,3.5988,0.0,0.0,3.5831,3.5894,3.5988,3.5988,3.5988,3.5988,3.5988,3.5988,3.5988,0.0,0.0,0.0,0.0,0.0,0.0,0.0,0.0,3.7416,3.747,0.0,3.7396,0.0,0.0,0.0,0.0,0.0,3.7246,0.0,0.0,3.8234,3.8465,3.8135,3.8101,3.8101,3.8101,3.7721,3.7614,3.7685,3.7596,0.0,0.0,0.0,0.0,0.0,0.0,3.7827,3.7827,3.8401,3.8707,3.8707,3.8707,3.8707,3.8707,3.8707,3.8707,3.8658,3.808,3.7524,3.7023,3.6061,0.0,0.0,0.0,0.0,0.0,0.0,0.0,0.0,0.0,0.0,0.0,0.0,0.0,0.0,0.0,0.0,0.0,0.0,0.0,0.0,3.383,0.0,0.0,0.0,0.0,0.0,0.0,0.0,0.0,0.0,0.0,3.7086,3.7329,3.7392,3.6531,0.0,0.0,0.0,0.0,3.6082,3.5363,3.4883,3.4549,3.4608,3.4285,3.4334,3.5065,0.0,0.0,3.6089,3.6085,3.6052,3.6052,3.6148,3.6148,3.6022,3.6022,3.6037,3.6037,3.6037,3.6037,3.6037,3.6052,3.6052,3.8136,0.0,0.0,0.0,0.0,3.7758,3.7904,3.7977,3.8214,3.8096,3.7844,3.7913,0.0,0.0,0.0,0.0,0.0,0.0,3.765,3.7879,3.8153,3.835,3.8515,3.8515,3.8515,3.8515,3.8401,3.8387,3.8419,3.8368,3.8018,3.7319,0.0,0.0,0.0,0.0,3.7915,3.8138,3.8515,3.8707,3.8707,3.8707,3.8707,3.8707,3.8707,3.8707,3.8707,3.8528,3.808,3.7362,3.6855,0.0,0.0,0.0,0.0,0.0,0.0,0.0,0.0,0.0,0.0,0.0,0.0,0.0,0.0,0.0,0.0,0.0,0.0,0.0,3.4064,3.4659,3.5171,0.0,0.0,0.0,0.0,0.0,0.0,0.0,0.0,0.0,3.8274,3.7692,3.7193,0.0,0.0,3.586,3.5586,3.5899,3.6136,3.6206,3.6079,0.0,3.6181,3.5882,3.5644,3.578,3.5858,3.5982,3.6165,3.6274,3.6367,3.6367,3.6414,3.6414,3.6352,3.6367,3.6367,3.6352,3.6367,3.6367,3.6352,3.6367,3.6367,3.9599,3.9352,3.8804,3.8644,3.8719,3.8701,3.8699,3.8722,3.8752,3.853,3.8204,3.8285,3.8034,3.7559,3.7487,0.0,0.0,0.0,3.8,3.8318,3.8318,3.8483,3.8707,3.8707,3.8707,3.8707,3.8707,3.8707,3.8707,3.8614,3.8289,3.7757,0.0,0.0,3.7559,3.7845,3.8086,3.8289,3.8564,3.8707,3.8707,3.8707,3.8707,3.8707,3.8707,3.8707,3.8707,3.8707,3.8415,3.7754,3.7398,3.6777,0.0,0.0,0.0,0.0,0.0,0.0,0.0,0.0,0.0,0.0,0.0,3.4579,0.0,0.0,0.0,0.0,3.4462,3.4585,3.5118,3.5498,0.0,0.0,0.0,0.0,0.0,0.0,0.0,3.7754,3.8254,3.8717,3.8788,3.8193,3.7806,3.7954,3.7432,3.6954,3.6749,0.0,3.7355,3.7478,3.7166,3.7042,3.7125,3.6685,3.6289,3.6226,3.6226,3.6352,3.6352,3.6414,3.6492,3.6492,3.6492,3.6492,3.6492,3.6492,3.6492,3.6492,3.6492,3.6492,3.6492,3.6492,3.6492,4.0329,4.0196,3.917,3.8887,3.9085,3.9111,3.9115,3.9165,3.9165,3.8873,3.8401,3.8627,3.8368,3.7774,3.7774,0.0,3.8153,3.8289,3.8488,3.8707,3.8707,3.8707,3.8719,3.8707,3.8689,3.8719,3.8689,3.8707,3.8658,3.8451,3.834,3.8307,3.8307,3.8104,3.7827,3.8122,3.8274,3.8256,3.8533,3.8676,3.8707,3.8707,3.8707,3.8707,3.8707,3.8707,3.8707,3.8707,3.8533,3.8168,3.7754,3.7214,3.6574,0.0,0.0,0.0,0.0,0.0,0.0,0.0,0.0,0.0,0.0,0.0,0.0,0.0,0.0,0.0,3.6312,0.0,3.6254,3.6358,0.0,0.0,0.0,3.7679,3.8222,3.8334,3.839,3.8502,0.0,0.0,3.8843,3.8843,3.9007,3.9435,3.9365,3.9222,3.886,3.9049,3.9259,3.8816,3.8222,3.7748,3.7742,3.7131,3.6538,3.6492,3.6492,3.6492,3.6492,3.6492,3.6492,3.6492,3.6492,3.6492,3.6492,3.6492,3.6492,3.6492,3.6492,3.6492,3.6492,3.6492,3.6492,4.0329,4.0291,4.0,3.9918,3.996,3.9979,3.9895,3.9717,3.9717,3.9532,3.9208,3.9055,3.8803,3.8451,3.8451,3.8483,3.8564,3.8596,3.8645,3.8707,3.8707,3.881,3.8989,3.881,3.8792,3.8979,3.8792,3.8707,3.8707,3.8627,3.8501,3.8307,3.8204,3.8018,3.7739,3.781,3.7949,3.8153,3.8219,3.8401,3.8707,3.8707,3.8707,3.8707,3.8707,3.8707,3.8707,3.8707,3.8658,3.8546,3.8183,3.7882,3.7694,3.6939,0.0,0.0,0.0,0.0,0.0,0.0,0.0,0.0,0.0,3.5844,3.5219,0.0,3.5443,0.0,3.6348,3.7047,3.759,3.7666,0.0,0.0,3.8084,3.8124,3.8278,3.8684,3.8849,3.8502,3.8903,3.9189,3.9259,3.9276,3.9418,3.9867,3.9382,3.8898,3.8805,3.9169,3.9365,3.9259,3.899,3.8794,3.8684,3.7911,3.7013,3.6554,3.6492,3.6492,3.6492,3.6492,3.6492,3.6492,3.6492,3.6492,3.6492,3.6492,3.6492,3.6492,3.6492,3.6492,3.6492,3.6492,3.6492,4.0328,4.0329,4.031,4.031,4.0329,4.0329,4.0138,3.9895,3.9895,3.9739,3.9502,3.9219,3.895,3.8707,3.8707,3.8707,3.8707,3.8707,3.875,3.8881,3.8862,3.9017,3.9272,3.9129,3.9073,3.9101,3.895,3.8822,3.8689,3.8707,3.8645,3.8451,3.8419,3.8368,3.8419,3.8187,3.8223,3.8401,3.8954,3.9392,3.974,3.9772,3.9658,3.9374,3.9374,3.9254,3.9029,3.9029,3.8994,3.8976,3.8761,3.8493,3.8297,3.7624,3.7259,0.0,0.0,0.0,0.0,0.0,0.0,0.0,0.0,0.0,0.0,0.0,3.6726,3.667,3.7437,3.8041,3.8154,3.8187,3.8297,3.8652,3.8684,3.8794,3.9065,3.9418,3.9523,3.9242,3.9523,3.9696,3.9696,3.9713,3.9816,4.0138,3.9764,3.9504,3.9504,3.9644,3.9747,3.9799,3.9487,3.9044,3.8717,3.8084,3.7535,3.7013,3.6785,3.6754,3.6754,3.6616,3.6554,3.6831,3.6662,3.66,3.6846,3.6662,3.6492,3.6492,3.6492,3.6492,3.6492,3.6492,3.6492,4.0689,4.0635,4.0614,4.0615,4.0616,4.0635,4.0386,3.9956,3.9935,3.9804,3.9551,3.9298,3.9045,3.8792,3.8799,3.8762,3.881,3.878,3.8892,3.9156,3.9156,3.9298,3.9551,3.9526,3.9376,3.9156,3.9129,3.8931,3.8707,3.8707,3.8731,3.8792,3.8836,3.9013,3.937,3.9102,3.8972,3.8938,4.0058,4.0755,4.1046,4.0994,4.0702,4.0239,4.0184,3.996,3.9509,3.9451,3.9428,3.9411,3.9288,3.9115,3.8894,3.8213,3.8048,0.0,3.7908,0.0,0.0,0.0,0.0,0.0,0.0,0.0,0.0,3.859,3.8446,3.8407,3.892,3.9028,3.8574,3.8557,3.8778,3.9295,3.9365,3.9575,4.007,4.0138,4.0138,4.0138,4.0138,4.0087,4.0138,4.0121,4.0188,4.0238,4.0288,4.0238,4.0305,4.0188,4.0138,4.0288,3.9799,3.9189,3.8479,3.827,3.8141,3.7637,3.7358,3.7181,3.7121,3.6923,3.6892,3.7238,3.6952,3.6769,3.7298,3.6907,3.6554,3.6492,3.6492,3.6492,3.6492,3.6492,3.6492,4.2392,4.2317,4.2317,4.2317,4.2335,4.2335,4.1533,4.0234,4.0234,4.0058,3.9807,3.9762,3.958,3.935,3.9129,3.9156,3.935,3.911,3.9165,3.9408,3.9427,3.9556,3.9804,3.9599,3.9458,3.9408,3.9192,3.895,3.8707,3.8707,3.8944,3.9334,3.947,3.9641,3.9985,0.0,0.0,0.0,4.0294,4.0633,4.0686,4.0438,4.0238,4.0127,4.0052,0.0,3.9899,3.9704,3.9567,3.9567,3.9428,0.0,0.0,0.0,0.0,0.0,0.0,0.0,0.0,0.0,0.0,0.0,3.8974,3.8794,3.8739,3.8518,3.8502,3.8974,3.9152,3.9418,3.9867,3.9918,4.0003,4.0221,4.0271,4.0337,4.0436,4.0337,4.0255,4.0238,4.0188,4.0138,4.0238,4.0238,4.0305,4.0305,4.037,4.0419,4.0436,4.0337,4.0305,4.0288,4.0221,4.0003,3.9401,3.9172,3.8957,3.8446,3.8238,3.8084,3.7828,3.7754,3.7637,3.7519,3.7298,3.7194,3.7165,3.6999,3.6862,3.6569,3.6492,3.6492,3.6492,3.6492,3.6492,4.2908,0.0,4.2814,4.2776,0.0,4.2794,4.2335,4.1533,4.1533,4.1376,4.1146,4.1127,4.0991,4.0747,4.0592,4.06,4.0747,4.0592,4.0671,4.092,4.0944,4.1079,4.1335,4.1209,4.106,4.092,4.0798,4.0475,4.0104,4.0074,4.0228,4.0509,4.0542,4.0929,4.1613,4.2371,4.2302,4.1407,4.1669,4.185,4.1991,4.1867,4.1651,4.1427,4.1351,0.0,0.0,0.0,0.0,0.0,0.0,0.0,0.0,0.0,0.0,4.0664,4.0234,3.9919,3.9833,3.9833,3.9901,4.0037,3.9952,3.961,3.9156,3.9262,3.9489,3.9782,3.9833,4.0003,4.0337,4.0387,4.0404,4.0404,4.0436,4.0485,4.0453,4.0387,4.0387,4.0387,4.0337,4.0337,4.0404,4.0387,4.0436,4.0502,4.0551,4.0583,4.0583,4.0485,4.0387,4.0387,4.0502,4.0436,3.9952,3.9833,3.9662,3.9172,3.8941,3.8756,3.859,3.8479,3.8334,3.8181,3.8084,3.7911,3.7902,3.7786,3.7594,3.7385,3.7178,3.6952,3.6952,3.6723,3.6616,4.3405,4.3331,4.3274,4.3235,4.3233,4.3252,4.3233,4.3233,0.0,0.0,0.0,4.2462,4.2351,4.214,4.209,4.2109,4.214,4.209,4.2233,4.2462,4.2462,4.2591,4.2794,4.2794,4.2673,4.2397,4.2397,4.214,4.1595,4.1595,4.1669,4.18,4.1857,4.238,4.3369,4.3815,4.3664,4.3032,4.2976,4.3142,4.3428,4.3375,4.3142,4.2711,4.2673,4.24,4.1955,4.1853,4.1835,4.1853,4.169,4.1672,4.1775,4.1525,4.1216,4.0961,4.0711,4.0621,4.0645,4.0645,4.0741,4.0931,4.0823,4.0485,3.9833,4.0204,4.0485,4.0485,4.0485,4.0534,4.0534,4.0534,4.0485,4.0387,4.0485,4.0534,4.0453,4.0485,4.0534,4.0534,4.0517,4.0534,4.0534,4.0534,4.0583,4.0648,4.0697,4.0745,4.0697,4.0648,4.0534,4.0534,4.0648,4.06,4.0337,4.0288,4.0221,3.9885,3.961,3.947,3.9365,3.9156,3.9049,3.9028,3.8849,3.8739,3.8843,3.8551,3.8334,3.8278,3.7738,3.7358,3.7417,3.7074,3.6785,4.5074,4.5036,4.5035,4.4995,4.4953,4.4934,4.4934,4.4838,4.3424,4.2793,4.2754,4.2754,4.2714,4.2673,4.2439,4.2462,4.2654,4.2443,4.2465,4.2754,4.2754,4.2774,4.2794,4.2794,4.2654,4.2397,4.2397,4.2238,4.1961,4.1954,4.2273,4.2919,4.3184,4.3605,4.4177,4.4065,4.3795,4.341,4.3142,4.3032,4.305,4.2862,4.2688,4.2591,4.2516,4.2418,4.2338,4.208,4.1979,4.1979,4.1853,4.2021,4.248,4.2144,4.2062,4.2519,4.2162,4.1931,4.1931,4.1948,4.1717,4.1276,4.1024,4.0728,4.0436,4.0436,4.0485,4.0485,4.0534,4.0534,4.0631,4.0697,4.0697,4.0793,4.0823,4.0823,4.0793,4.0697,4.0697,4.0697,4.06,4.0534,4.0648,4.0648,4.0697,4.0697,4.0793,4.0871,4.0823,4.0745,4.0697,4.0697,4.0793,4.0823,4.0728,4.0697,4.06,4.0583,4.0468,4.0271,4.002,4.0003,3.9885,3.9542,3.9489,3.9385,3.9206,3.881,3.8518,3.8311,3.7786,3.7389,3.7828,3.7578,3.7178,4.5438,4.54,4.5359,4.5317,4.5277,4.5277,4.5277,4.522,4.4494,4.415,4.415,4.415,4.415,4.415,4.4007,4.4048,4.415,4.4026,4.4048,4.415,4.415,4.415,4.415,4.415,4.409,4.3967,4.3964,4.3814,4.3536,4.3511,4.37,4.4084,4.4364,4.4642,4.4843,4.4591,4.4289,4.3992,4.3511,4.3286,4.3268,4.316,4.3087,4.3087,4.3032,4.3014,4.2976,4.2865,4.2828,4.281,4.2754,4.2865,4.3087,4.2921,4.2828,4.2882,4.2729,4.2458,4.2198,4.2216,4.2074,4.1803,4.1428,4.1209,4.1053,4.0836,4.0728,4.0745,4.0728,4.0745,4.0793,4.0793,4.0793,4.0776,4.084,4.0871,4.0793,4.0793,4.0793,4.0793,4.0776,4.0728,4.0793,4.0793,4.0793,4.0793,4.0888,4.0871,4.0871,4.0823,4.0793,4.0793,4.084,4.0871,4.0871,4.084,4.084,4.0793,4.0793,4.0745,4.0534,4.0583,4.0436,4.0104,4.0104,3.9935,3.947,3.9506,3.9401,3.9098,3.8701,3.8518,3.8629,3.8294,3.7854,4.54,4.5398,4.5317,4.5337,4.5317,4.5317,4.5317,4.5317,4.5317,4.5277,4.5277,4.5277,4.5277,4.5277,4.5277,4.5277,4.5277,4.5277,4.5277,4.5277,4.5277,4.5277,4.5277,4.5277,4.5277,4.5277,4.5277,4.5173,4.4934,4.491,4.4934,4.4934,4.5173,4.5256,4.5154,4.4934,4.465,4.4289,4.3841,4.3582,4.3497,4.3479,4.3479,4.3479,4.3479,4.3479,4.3479,4.3479,4.3479,4.3479,4.3479,4.3479,4.3479,4.3479,4.3375,4.3069,4.3032,4.2882,4.2519,4.24,4.236,4.2338,4.1906,4.1648,4.1604,4.13,4.0995,4.0918,4.0871,4.0871,4.0871,4.0888,4.0823,4.0728,4.0823,4.0888,4.0793,4.084,4.0871,4.0871,4.0871,4.0871,4.0871,4.0871,4.0871,4.0871,4.0871,4.0871,4.0871,4.0871,4.0871,4.0871,4.0871,4.0871,4.0871,4.0871,4.0888,4.0871,4.0871,4.0871,4.0823,4.0871,4.0776,4.0485,4.06,4.0468,3.9952,4.0054,4.0221,3.9918,3.947,3.9295,3.9332,3.9011,3.8502,4.5418,4.5398,4.5338,4.5338,4.5398,4.5398,4.5398,4.5379,4.5317,4.5277,4.5277,4.5277,4.5277,4.5277,4.5277,4.5277,4.5277,4.5277,4.5277,4.5277,4.5277,4.5277,4.5277,4.5277,4.5277,4.5277,4.5277,4.5256,4.5235,4.5216,4.5216,4.5256,4.5297,4.5151,4.4891,4.4843,4.4565,4.4048,4.4005,4.3814,4.3513,4.3479,4.3479,4.3479,4.3479,4.3479,4.3479,4.3479,4.3479,4.3479,4.3479,4.3479,4.3479,4.3479,4.3479,4.3444,4.3444,4.341,4.3375,4.3032,4.2844,4.2806,4.2418,4.2115,4.2115,4.1692,4.1265,4.0995,4.0918,4.0871,4.0871,4.0871,4.0871,4.0871,4.0888,4.0871,4.0871,4.0871,4.0871,4.0871,4.0871,4.0871,4.0871,4.0871,4.0871,4.0871,4.0871,4.0871,4.0871,4.0871,4.0871,4.0871,4.0871,4.0871,4.0871,4.0871,4.0871,4.0871,4.0871,4.0871,4.0871,4.0871,4.0871,4.0793,4.084,4.0776,4.0631,4.0583,4.0337,4.0188,3.9799,3.9348,3.9506,3.9506,3.9226,4.5512,4.5419,4.5361,4.5361,4.5398,4.5418,4.5378,4.5338,4.5317,4.5277,4.5277,4.5277,4.5277,4.5277,4.5277,4.5277,4.5277,4.5277,4.5277,4.5277,4.5277,4.5277,4.5277,4.5277,4.5277,4.5277,4.5277,4.5277,4.5277,4.5277,4.5277,4.5277,4.5277,4.5235,4.5109,4.5109,4.4887,4.4484,4.4318,4.4072,4.3795,4.3582,4.3479,4.3479,4.3479,4.3479,4.3479,4.3479,4.3479,4.3479,4.3479,4.3479,4.3479,4.3479,4.3479,4.3479,4.3479,4.3479,4.3479,4.3339,4.325,4.3268,4.2864,4.2616,4.2595,4.1948,4.1445,4.1283,4.1041,4.0871,4.0871,4.0871,4.0871,4.0871,4.0871,4.0871,4.0871,4.0871,4.0871,4.0871,4.0871,4.0871,4.0871,4.0871,4.0871,4.0871,4.0871,4.0871,4.0871,4.0871,4.0871,4.0871,4.0871,4.0871,4.0871,4.0871,4.0871,4.0871,4.0871,4.0871,4.0871,4.0871,4.0871,4.0871,4.0871,4.0776,4.0534,4.0697,4.0583,4.0387,4.0387,4.0104,4.0154,4.0154,3.9935,4.5623,4.5455,4.5419,4.5419,4.5399,4.5418,4.5359,4.5317,4.5317,4.5277,4.5277,4.5277,4.5277,4.5277,4.5277,4.5277,4.5277,4.5277,4.5277,4.5277,4.5277,4.5277,4.5277,4.5277,4.5277,4.5277,4.5277,4.5277,4.5277,4.5277,4.5277,4.5277,4.5277,4.5277,4.5277,4.5277,4.5151,4.4819,4.4599,4.4355,4.4121,4.3795,4.3582,4.3513,4.3479,4.3479,4.3479,4.3479,4.3479,4.3479,4.3479,4.3479,4.3479,4.3479,4.3479,4.3479,4.3479,4.3479,4.3479,4.3479,4.3479,4.3479,4.3232,4.3069,4.2902,4.2239,4.1735,4.1648,4.1209,4.0871,4.0871,4.0871,4.0871,4.0871,4.0871,4.0871,4.0871,4.0871,4.0871,4.0871,4.0871,4.0871,4.0871,4.0871,4.0871,4.0871,4.0871,4.0871,4.0871,4.0871,4.0871,4.0871,4.0871,4.0871,4.0871,4.0871,4.0871,4.0871,4.0871,4.0871,4.0871,4.0871,4.0871,4.0871,4.0871,4.0871,4.068,4.0793,4.084,4.0648,4.06,4.068,4.0583,4.0583,4.0583,4.5717,4.5587,4.5437,4.54,4.5419,4.5399,4.5398,4.5378,4.5317,4.5277,4.5277,4.5277,4.5277,4.5277,4.5277,4.5277,4.5277,4.5277,4.5277,4.5277,4.5277,4.5277,4.5277,4.5277,4.5277,4.5277,4.5277,4.5277,4.5277,4.5277,4.5277,4.5277,4.5277,4.5277,4.5277,4.5277,4.5132,4.4868,4.4795,4.465,4.4383,4.4121,4.3828,4.3548,4.3479,4.3479,4.3479,4.3479,4.3479,4.3479,4.3479,4.3479,4.3479,4.3479,4.3479,4.3479,4.3479,4.3479,4.3479,4.3479,4.3479,4.3479,4.3444,4.3463,4.3356,4.2655,4.2157,4.2157,4.1436,4.0965,4.0871,4.0871,4.0871,4.0871,4.0871,4.0871,4.0871,4.0871,4.0871,4.0871,4.0871,4.0871,4.0871,4.0871,4.0871,4.0871,4.0871,4.0871,4.0871,4.0871,4.0871,4.0871,4.0871,4.0871,4.0871,4.0871,4.0871,4.0871,4.0871,4.0871,4.0871,4.0871,4.0871,4.0871,4.0871,4.0871,4.0871,4.0871,4.0871,4.0823,4.0776,4.0823,4.0776,4.0823,4.0823,4.5886,4.5703,4.5528,4.5438,4.5419,4.5399,4.5378,4.5319,4.5337,4.5277,4.5277,4.5277,4.5277,4.5277,4.5277,4.5277,4.5277,4.5277,4.5277,4.5277,4.5277,4.5277,4.5277,4.5277,4.5277,4.5277,4.5277,4.5277,4.5277,4.5277,4.5277,4.5277,4.5277,4.5277,4.5277,4.5277,4.5235,4.5129,4.4915,4.477,4.465,4.4402,4.4102,4.3828,4.3615,4.3479,4.3479,4.3479,4.3479,4.3479,4.3479,4.3479,4.3479,4.3479,4.3479,4.3479,4.3479,4.3479,4.3479,4.3479,4.3479,4.3479,4.3479,4.3479,4.341,4.2976,4.2537,4.2175,4.1666,4.1209,4.0965,4.0871,4.0871,4.0871,4.0871,4.0871,4.0871,4.0871,4.0871,4.0871,4.0871,4.0871,4.0871,4.0871,4.0871,4.0871,4.0871,4.0871,4.0871,4.0871,4.0871,4.0871,4.0871,4.0871,4.0871,4.0871,4.0871,4.0871,4.0871,4.0871,4.0871,4.0871,4.0871,4.0871,4.0871,4.0871,4.0871,4.0871,4.0871,4.0871,4.0871,4.0871,4.0871,4.0871,4.0871,4.5998,4.5829,4.5645,4.5493,4.5419,4.5399,4.5359,4.5297,4.5277,4.5277,4.5277,4.5277,4.5277,4.5277,4.5277,4.5277,4.5277,4.5277,4.5277,4.5277,4.5277,4.5277,4.5277,4.5277,4.5277,4.5277,4.5277,4.5277,4.5277,4.5277,4.5277,4.5277,4.5277,4.5277,4.5277,4.5277,4.5277,4.5256,4.5087,4.4957,4.4934,4.4676,4.4402,4.4151,4.3809,4.3634,4.3513,4.3479,4.3479,4.3479,4.3479,4.3479,4.3479,4.3479,4.3479,4.3479,4.3479,4.3479,4.3479,4.3479,4.3479,4.3479,4.3479,4.3479,4.3444,4.3123,4.2711,4.2239,4.1778,4.1311,4.0995,4.0871,4.0871,4.0871,4.0871,4.0871,4.0871,4.0871,4.0871,4.0871,4.0871,4.0871,4.0871,4.0871,4.0871,4.0871,4.0871,4.0871,4.0871,4.0871,4.0871,4.0871,4.0871,4.0871,4.0871,4.0871,4.0871,4.0871,4.0871,4.0871,4.0871,4.0871,4.0871,4.0871,4.0888,4.0888,4.0888,4.0888,4.0922,4.094,4.0871,4.0871,4.0871,4.0871,4.0991,4.6091,4.5966,4.5769,4.5635,4.5438,4.5419,4.5359,4.5317,4.5277,4.5277,4.5277,4.5277,4.5277,4.5277,4.5277,4.5277,4.5277,4.5277,4.5277,4.5277,4.5277,4.5277,4.5277,4.5277,4.5277,4.5277,4.5277,4.5277,4.5277,4.5277,4.5277,4.5277,4.5277,4.5277,4.5277,4.5277,4.5277,4.5277,4.5256,4.5256,4.5256,4.4957,4.4676,4.4402,4.4151,4.3828,4.3548,4.3513,4.3479,4.3479,4.3479,4.3479,4.3479,4.3479,4.3479,4.3479,4.3479,4.3479,4.3479,4.3479,4.3479,4.3479,4.3479,4.3479,4.3444,4.3178,4.275,4.2338,4.1864,4.1356,4.1041,4.0918,4.0871,4.0871,4.0871,4.0871,4.0871,4.0871,4.0871,4.0871,4.0871,4.0871,4.0871,4.0871,4.0871,4.0871,4.0871,4.0871,4.0871,4.0871,4.0871,4.0871,4.0871,4.0871,4.0871,4.0871,4.0871,4.0871,4.0871,4.0871,4.0871,4.0871,4.0871,4.0888,4.1181,4.1198,4.1302,4.1319,4.1457,4.144,4.1216,4.125,4.1423,4.1543,4.1354,4.7513,4.6919,4.6635,4.6143,4.5563,4.5381,4.5317,4.5277,4.5277,4.5277,4.5277,4.5277,4.5277,4.5277,4.5277,4.5277,4.5277,4.5277,4.5277,4.5277,4.5277,4.5277,4.5277,4.5277,4.5277,4.5277,4.5277,4.5277,4.5277,4.5277,4.5277,4.5277,4.5277,4.5277,4.5277,4.5277,4.5277,4.5277,4.5277,4.5277,4.5277,4.5194,4.5,4.4676,4.443,4.4132,4.3878,4.3615,4.3479,4.3479,4.3479,4.3479,4.3479,4.3479,4.3479,4.3479,4.3479,4.3479,4.3479,4.3479,4.3479,4.3479,4.3479,4.3479,4.3479,4.3375,4.3105,4.2711,4.2257,4.1821,4.1418,4.1041,4.0965,4.0871,4.0871,4.0871,4.0871,4.0871,4.0871,4.0871,4.0871,4.0871,4.0871,4.0871,4.0871,4.0871,4.0871,4.0871,4.0871,4.0871,4.0871,4.0871,4.0871,4.0871,4.0871,4.0871,4.0871,4.0871,4.0871,4.0871,4.0871,4.1043,4.1009,4.1216,4.1474,4.163,4.1733,4.1871,4.2043,4.2334,4.242,4.2455,4.2489,4.2351,4.2095,4.8412,4.7887,4.7641,4.7158,4.6477,4.609,4.5839,4.5719,4.5411,4.5297,4.5277,4.5277,4.5277,4.5277,4.5277,4.5277,4.5277,4.5277,4.5277,4.5277,4.5277,4.5277,4.5277,4.5277,4.5277,4.5277,4.5277,4.5277,4.5277,4.5277,4.5277,4.5277,4.5277,4.5277,4.5277,4.5277,4.5277,4.5277,4.5277,4.5277,4.5277,4.5277,4.5132,4.4843,4.4624,4.4374,4.4017,4.3814,4.3615,4.3513,4.3479,4.3479,4.3479,4.3479,4.3479,4.3479,4.3479,4.3479,4.3479,4.3479,4.3479,4.3479,4.3479,4.3479,4.3479,4.3479,4.3304,4.292,4.2634,4.2216,4.1604,4.149,4.13,4.1117,4.0948,4.0918,4.0871,4.0871,4.0871,4.0871,4.0871,4.0871,4.0871,4.0871,4.0871,4.0871,4.0871,4.0871,4.0871,4.0871,4.0871,4.0871,4.0871,4.0871,4.0871,4.0871,4.0871,4.0871,4.0871,4.0871,4.0871,4.1302,4.1474,4.1992,4.2337,4.2406,4.2492,4.2731,4.2921,4.3197,4.337,4.3076,4.2904,4.2973,4.2852,4.8905,4.8783,4.869,4.8393,4.7921,4.7234,4.6743,4.6369,4.5755,4.5373,4.5316,4.5277,4.5277,4.5277,4.5277,4.5277,4.5277,4.5277,4.5277,4.5277,4.5277,4.5277,4.5277,4.5277,4.5277,4.5277,4.5277,4.5277,4.5277,4.5277,4.5277,4.5277,4.5277,4.5277,4.5277,4.5277,4.5277,4.5277,4.5277,4.5277,4.5277,4.5277,4.5173,4.4868,4.4776,4.4565,4.4192,4.4017,4.3814,4.3548,4.3479,4.3479,4.3479,4.3479,4.3479,4.3479,4.3479,4.3479,4.3479,4.3479,4.3479,4.3479,4.3479,4.3479,4.3479,4.3479,4.3393,4.3032,4.2882,4.2555,4.1966,4.1864,4.1906,4.1578,4.1283,4.1134,4.0965,4.1012,4.1134,4.1105,4.0965,4.0965,4.0965,4.0965,4.0871,4.0871,4.0871,4.0871,4.0871,4.0871,4.0871,4.0871,4.0871,4.0871,4.0888,4.1267,4.1285,4.1371,4.1371,4.144,4.1354,4.1733,4.2095,4.263,4.313,4.3232,4.3387,4.3594,4.3664,4.3837,4.3733,4.3371,4.3423,4.3682,4.3733,5.0338,4.9731,4.9545,4.9004,4.8261,4.7904,4.7319,4.6541,4.6309,4.5812,4.5411,4.5277,4.5277,4.5277,4.5277,4.5277,4.5277,4.5277,4.5277,4.5277,4.5277,4.5277,4.5277,4.5277,4.5277,4.5277,4.5277,4.5277,4.5277,4.5277,4.5277,4.5277,4.5277,4.5277,4.5277,4.5277,4.5277,4.5277,4.5277,4.5277,4.5277,4.5277,4.5256,4.5154,4.4915,4.4745,4.4546,4.4192,4.3846,4.3513,4.3479,4.3479,4.3479,4.3479,4.3479,4.3479,4.3479,4.3479,4.3479,4.3479,4.3479,4.3479,4.3479,4.3479,4.3479,4.3479,4.3444,4.3304,4.3123,4.2788,4.2537,4.232,4.2157,4.205,4.1906,4.1692,4.149,4.1666,4.1839,4.1839,4.1534,4.1373,4.1255,4.1088,4.0918,4.0871,4.0871,4.0871,4.0871,4.0871,4.0871,4.0871,4.0871,4.0871,4.1009,4.1457,4.175,4.1905,4.2095,4.2406,4.2337,4.244,4.28,4.3145,4.3751,4.3975,4.4216,4.4458,4.4527,4.4509,4.4578,4.4475,4.4699,4.4923,4.4837,5.1093,5.0639,5.0494,5.0061,4.9433,4.8945,4.8316,4.7604,4.6811,4.6252,4.5793,4.5411,4.5297,4.5277,4.5277,4.5277,4.5277,4.5277,4.5277,4.5277,4.5277,4.5277,4.5277,4.5277,4.5277,4.5277,4.5277,4.5277,4.5277,4.5277,4.5277,4.5277,4.5277,4.5277,4.5277,4.5277,4.5277,4.5277,4.5277,4.5277,4.5277,4.5277,4.5297,4.5256,4.5087,4.4934,4.4624,4.4102,4.3749,4.3682,4.3582,4.3479,4.3479,4.3479,4.3479,4.3479,4.3479,4.3479,4.3479,4.3479,4.3479,4.3479,4.3479,4.3479,4.3479,4.3479,4.3479,4.3444,4.3268,4.3069,4.2882,4.2634,4.2516,4.2498,4.2655,4.248,4.1846,4.199,4.2175,4.2092,4.1821,4.1516,4.1472,4.1163,4.0965,4.0871,4.0871,4.0871,4.0871,4.0871,4.0922,4.0974,4.1043,4.1095,4.1405,4.1854,4.244,4.2612,4.3009,4.3302,4.332,4.332,4.3647,4.4009,4.4458,4.4768,4.4906,4.5044,4.5096,4.5147,4.5406,4.5441,4.5441,4.5441,4.5441,5.1394,5.1388,5.1316,5.121,5.0899,5.0129,4.9459,4.8933,4.7599,4.6748,4.6347,4.5717,4.5449,4.5297,4.5277,4.5277,4.5277,4.5277,4.5277,4.5277,4.5277,4.5277,4.5277,4.5277,4.5277,4.5277,4.5277,4.5277,4.5277,4.5277,4.5277,4.5277,4.5277,4.5277,4.5277,4.5277,4.5277,4.5277,4.5277,4.5277,4.5354,4.5449,4.5583,4.5564,4.5564,4.5109,4.4576,4.3992,4.3763,4.4005,4.3682,4.3513,4.3479,4.3479,4.3479,4.3479,4.3479,4.3479,4.3479,4.3479,4.3479,4.3479,4.3479,4.3479,4.3479,4.3479,4.3479,4.3479,4.3479,4.3304,4.3069,4.2957,4.2957,4.2976,4.325,4.305,4.2577,4.2338,4.2338,4.2338,4.1948,4.1692,4.1472,4.1237,4.0948,4.0871,4.0871,4.0871,4.0871,4.0871,4.1009,4.1198,4.1285,4.1388,4.1802,4.2285,4.2923,4.3423,4.3975,4.4302,4.4302,4.4389,4.4716,4.5027,4.5044,4.5113,4.5251,4.5372,4.5441,4.5441,4.5441,4.5441,4.5441,4.5441,4.5441,5.1386,5.1394,5.1336,5.1228,5.1054,5.071,5.0055,4.9298,4.8769,4.7704,4.6729,4.6309,4.5908,4.5354,4.5449,4.5277,4.543,4.543,4.5277,4.5277,4.5277,4.5297,4.5354,4.543,4.5335,4.5316,4.5277,4.5277,4.5277,4.5277,4.5277,4.5277,4.5277,4.5277,4.5277,4.5277,4.5297,4.5297,4.5316,4.5392,4.5583,4.5984,4.6252,4.6233,4.6252,4.5677,4.4859,4.4383,4.4162,4.3955,4.3682,4.3479,4.3479,4.3479,4.3479,4.3479,4.3479,4.3479,4.3479,4.3479,4.3479,4.3479,4.3479,4.3479,4.3479,4.3479,4.3479,4.3479,4.3479,4.3444,4.3339,4.3339,4.3339,4.3339,4.341,4.3428,4.325,4.3196,4.3124,4.3087,4.2788,4.2476,4.2092,4.1648,4.1328,4.0995,4.0918,4.0918,4.0922,4.0974,4.1302,4.1647,4.1819,4.2043,4.2681,4.3182,4.3768,4.4165,4.4647,4.4958,4.4958,4.501,4.5165,4.5285,4.5354,4.5441,4.5441,4.5441,4.5441,4.5441,4.5441,4.5441,4.5441,4.5441,4.5441,5.14,5.1388,5.133,5.1265,5.1161,5.0912,5.0491,4.9929,4.9348,4.8582,4.778,4.7341,4.6882,4.6481,4.6462,4.65,4.6481,4.6481,4.6481,4.6519,4.65,4.65,4.6481,4.6347,4.6175,4.5488,4.5277,4.5277,4.5277,4.5316,4.5277,4.5277,4.5297,4.5277,4.5277,4.5335,4.5526,4.5831,4.587,4.6023,4.65,4.6844,4.7111,4.7048,4.6965,4.6426,4.552,4.4965,4.4517,4.4066,4.3682,4.3479,4.3479,4.3479,4.3479,4.3479,4.3479,4.3479,4.3479,4.3479,4.3479,4.3479,4.3479,4.3479,4.3479,4.3479,4.3479,4.3479,4.3479,4.3479,4.3479,4.3479,4.3479,4.3479,4.3479,4.3479,4.3479,4.3479,4.3479,4.341,4.3105,4.2826,4.2458,4.2074,4.1744,4.1443,4.1279,4.1313,4.1492,4.1612,4.1974,4.2285,4.2457,4.2837,4.3561,4.4165,4.4734,4.4958,4.5113,4.5251,4.5251,4.532,4.5406,4.5441,4.5441,4.5441,4.5441,4.5441,4.5441,4.5441,4.5441,4.5441,4.5441,4.5441,4.5441,5.1394,5.1388,5.1342,5.13,5.1256,5.0985,5.0835,5.0674,4.9758,4.9264,4.899,4.828,4.7876,4.7761,4.7665,4.7761,4.7742,4.7704,4.7513,4.7513,4.7513,4.7513,4.7551,4.7417,4.7016,4.5774,4.5851,4.5812,4.5602,4.5449,4.5507,4.5373,4.5488,4.5602,4.5526,4.5698,4.6118,4.6653,4.6729,4.694,4.757,4.7837,4.799,4.7945,4.7815,4.7232,4.636,4.5622,4.4935,4.4228,4.3756,4.3532,4.3479,4.3479,4.3479,4.3479,4.3479,4.3479,4.3479,4.3479,4.3479,4.3479,4.3479,4.3479,4.3479,4.3479,4.3479,4.3479,4.3479,4.3479,4.3479,4.3479,4.3479,4.3479,4.3479,4.3479,4.3479,4.3479,4.3479,4.3444,4.3304,4.3069,4.2788,4.2458,4.2145,4.1894,4.1798,4.1821,4.2089,4.2268,4.2696,4.3026,4.3233,4.3647,4.4337,4.4596,4.5216,4.5337,4.5441,4.5441,4.5441,4.5441,4.5441,4.5441,4.5441,4.5441,4.5441,4.5441,4.5441,4.5441,4.5441,4.5441,4.5441,4.5441,4.5441,5.1369,5.1317,5.131,5.1296,5.1265,5.1109,5.1037,5.0992,5.0487,4.9912,4.9277,4.8996,4.8506,4.8067,4.7837,4.7837,4.8028,4.8105,4.8028,4.8009,4.8009,4.8028,4.8086,4.8124,4.7742,4.7513,4.736,4.7073,4.6443,4.629,4.6061,4.564,4.6003,4.629,4.6519,4.6959,4.7264,4.7532,4.7608,4.778,4.8105,4.8582,4.8869,4.8888,4.8781,4.821,4.7233,4.6242,4.541,4.4965,4.4033,4.364,4.3479,4.3479,4.3479,4.3479,4.3479,4.3479,4.3479,4.3479,4.3479,4.3479,4.3479,4.3479,4.3479,4.3479,4.3479,4.3479,4.3479,4.3479,4.3479,4.3479,4.3479,4.3479,4.3479,4.3479,4.3479,4.3479,4.3479,4.3479,4.3375,4.3304,4.3087,4.3045,4.3008,4.2876,4.2896,4.2996,4.3325,4.3339,4.342,4.3749,4.4078,4.4561,4.5113,4.5165,4.5389,4.5389,4.5441,4.5441,4.5441,4.5441,4.5441,4.5441,4.5441,4.5441,4.5441,4.5441,4.5441,4.5441,4.5441,4.5441,4.5441,4.5441,4.5441,5.1369,5.1297,5.1303,5.1308,5.1265,5.1169,5.1049,5.0918,5.0678,5.0316,4.9944,4.9717,4.9519,4.9175,4.9098,4.9098,4.906,4.9098,4.9098,4.9098,4.9098,4.9098,4.9041,4.906,4.9098,4.9098,4.9041,4.8353,4.7283,4.7188,4.6901,4.6825,4.7035,4.7169,4.7245,4.7532,4.8086,4.8315,4.8487,4.8678,4.9003,4.9557,4.9671,4.971,4.9633,4.9205,4.8381,4.7674,4.6629,4.5597,4.4772,4.4122,4.3695,4.3479,4.3479,4.3479,4.3479,4.3479,4.3479,4.3479,4.3479,4.3479,4.3479,4.3479,4.3479,4.3479,4.3479,4.3479,4.3479,4.3479,4.3479,4.3479,4.3479,4.3479,4.3479,4.3479,4.3479,4.3479,4.3479,4.3479,4.3444,4.3411,4.3449,4.3488,4.3739,4.3848,4.3936,4.4201,4.453,4.4476,4.4376,4.4508,4.4802,4.4958,4.532,4.5372,4.5441,4.5441,4.5441,4.5441,4.5441,4.5441,4.5441,4.5441,4.5441,4.5441,4.5441,4.5441,4.5441,4.5441,4.5441,4.5441,4.5441,4.5441,4.5441,5.1336,5.131,5.1308,5.13,5.1284,5.1201,5.1054,5.0884,5.0733,5.0567,5.0421,5.031,5.0245,5.0264,5.0245,5.0245,5.0302,5.0225,5.0168,5.013,5.013,5.0225,5.0264,5.0302,5.0149,4.9977,5.0054,4.9519,4.8334,4.8067,4.7971,4.7761,4.7857,4.8067,4.8105,4.8411,4.8774,4.9098,4.9366,4.9729,5.0149,5.0302,5.0302,5.0302,5.0302,4.9939,4.9339,4.8663,4.7718,4.6505,4.5531,4.4749,4.3897,4.3589,4.3497,4.3479,4.3479,4.3479,4.3479,4.3479,4.3479,4.3479,4.3479,4.3479,4.3479,4.3479,4.3479,4.3479,4.3479,4.3479,4.3479,4.3479,4.3479,4.3479,4.3479,4.3479,4.3479,4.3479,4.3479,4.3479,4.3479,4.3646,4.3849,4.4089,4.4382,4.5142,4.5242,4.5462,4.5704,4.5563,4.5462,4.5403,4.5459,4.5407,4.5441,4.5389,4.5441,4.5441,4.5441,4.5441,4.5441,4.5441,4.5441,4.5441,4.5441,4.5441,4.5441,4.5441,4.5441,4.5441,4.5441,4.5441,4.5441,4.5441,4.5441,5.1308,5.13,5.13,5.13,5.13,5.1284,5.1256,5.1191,5.0898,5.0758,5.0678,5.0445,5.0306,5.0302,5.0302,5.0302,5.0302,5.0302,5.0302,5.0302,5.0302,5.0302,5.0302,5.0302,5.0302,5.0302,5.0302,4.9805,4.9117,4.8926,4.8582,4.8239,4.8678,4.8945,4.8984,4.9385,5.0034,5.0111,5.013,5.0187,5.0264,5.0302,5.0302,5.0302,5.0283,5.0225,4.9916,4.9245,4.8348,4.7701,4.6066,4.5101,4.4504,4.3828,4.3552,4.3479,4.3479,4.3479,4.3479,4.3479,4.3479,4.3479,4.3479,4.3479,4.3479,4.3479,4.3479,4.3479,4.3479,4.3479,4.3479,4.3479,4.3479,4.3479,4.3479,4.3479,4.3479,4.3479,4.3479,4.3608,4.3644,4.4121,4.4471,4.4746,4.5113,4.5936,4.6564,4.6739,4.6733,4.6427,4.61,4.5965,4.5803,4.5752,4.5476,4.5423,4.5441,4.5441,4.5441,4.5441,4.5441,4.5441,4.5441,4.5441,4.5441,4.5441,4.5441,4.5441,4.5441,4.5441,4.5441,4.5441,4.5441,4.5441,4.5441,5.13,5.13,5.13,5.13,5.13,5.13,5.1248,5.119,5.103,5.084,5.0715,5.0547,5.0399,5.0325,5.0302,5.0302,5.0302,5.0302,5.0302,5.0302,5.0302,5.0302,5.0302,5.0302,5.0302,5.0302,5.0283,5.0225,4.9805,4.971,4.9519,4.9308,4.9519,4.9786,4.9691,5.0111,5.0245,5.0283,5.0283,5.0302,5.0302,5.0302,5.0302,5.0302,5.0302,5.0302,5.0164,4.9945,4.9112,4.8352,4.688,4.578,4.4975,4.4094,4.3479,4.3479,4.3479,4.3479,4.3479,4.3479,4.3479,4.3479,4.3479,4.3479,4.3479,4.3479,4.3479,4.3479,4.3479,4.3479,4.3479,4.3479,4.3479,4.3479,4.3479,4.3479,4.3479,4.3479,4.3516,4.3663,4.3901,4.447,4.5021,4.5406,4.5828,4.6598,4.7179,4.7441,4.7253,4.6892,4.6553,4.6165,4.6038,4.5955,4.5615,4.5441,4.5441,4.5441,4.5441,4.5441,4.5441,4.5441,4.5441,4.5441,4.5441,4.5441,4.5441,4.5441,4.5441,4.5441,4.5441,4.5441,4.5441,4.5441,4.5441,5.1106,5.13,5.13,5.13,5.13,5.13,5.1248,5.115,5.1117,5.0923,5.068,5.0547,5.044,5.0348,5.0302,5.0302,5.0302,5.0302,5.0302,5.0302,5.0302,5.0302,5.0302,5.0302,5.0302,5.0302,5.0302,5.0264,5.0264,5.0245,5.0187,5.0302,5.013,5.0225,5.0264,5.0283,5.0302,5.0302,5.0302,5.0302,5.0302,5.0302,5.0302,5.0302,5.0302,5.0302,5.0302,5.024,4.9706,4.8958,4.7956,4.6813,4.5667,4.4702,4.3873,4.3676,4.3479,4.3479,4.3479,4.3479,4.3479,4.3479,4.3479,4.3479,4.3479,4.3479,4.3479,4.3479,4.3479,4.3479,4.3479,4.3479,4.3479,4.3479,4.3479,4.3479,4.3479,4.3479,4.3534,4.3663,4.4085,4.4929,4.5461,4.5975,4.6562,4.7297,4.7734,4.8041,4.7816,4.7378,4.7115,4.6753,4.6459,4.6315,4.5905,4.5615,4.5581,4.5423,4.5476,4.5423,4.5423,4.5423,4.5441,4.5441,4.5476,4.5441,4.5441,4.5441,4.5441,4.5441,4.5441,4.5441,4.5441,4.5441,4.5441,5.056,5.13,5.1281,5.1281,5.13,5.13,5.1292,5.1248,5.115,5.0972,5.0745,5.0486,5.0329,5.0283,5.0302,5.0302,5.0302,5.0302,5.0302,5.0302,5.0302,5.0302,5.0302,5.0302,5.0302,5.0302,5.0302,5.0302,5.0302,5.0302,5.0302,5.0302,5.0302,5.0302,5.0302,5.0302,5.0302,5.0302,5.0302,5.0302,5.0302,5.0302,5.0302,5.0302,5.0302,5.0302,5.0302,5.0302,5.0155,4.9599,4.8715,4.7768,4.6514,4.5528,4.472,4.4099,4.3901,4.3901,4.3901,4.3626,4.3534,4.3497,4.3644,4.3828,4.392,4.3663,4.3552,4.3718,4.3846,4.3644,4.3589,4.3479,4.3479,4.3479,4.3479,4.3479,4.3479,4.3479,4.3534,4.3663,4.4287,4.5259,4.6104,4.6636,4.7095,4.7792,4.7921,4.821,4.821,4.7915,4.7733,4.7421,4.7071,4.6724,4.6217,4.5988,4.5854,4.5718,4.5667,4.5563,4.5511,4.5476,4.5563,4.5701,4.5803,4.5615,4.5476,4.5615,4.5667,4.5476,4.5441,4.5441,4.5441,4.5441,4.5441,4.9449,4.9808,5.0287,5.0813,5.13,5.13,5.13,5.1292,5.1239,5.1066,5.0774,5.0466,5.0302,5.0302,5.0302,5.0302,5.0302,5.0302,5.0302,5.0302,5.0302,5.0302,5.0302,5.0302,5.0302,5.0302,5.0302,5.0302,5.0302,5.0302,5.0302,5.0302,5.0302,5.0302,5.0302,5.0302,5.0302,5.0302,5.0302,5.0302,5.0302,5.0302,5.0302,5.0302,5.0302,5.0302,5.0302,5.0302,5.0212,4.991,4.9157,4.8268,4.7398,4.6483,4.5638,4.498,4.4836,4.4819,4.4617,4.4158,4.3718,4.4323,4.4672,4.4911,4.4782,4.4911,4.4966,4.4892,4.4488,4.425,4.4232,4.3828,4.3479,4.3479,4.3552,4.3644,4.3718,4.3828,4.3993,4.4305,4.4984,4.5828,4.6617,4.737,4.7792,4.8214,4.8288,4.8324,4.8324,4.8267,4.8035,4.7816,4.7421,4.7133,4.666,4.6394,4.6168,4.6038,4.5905,4.5887,4.5887,4.5887,4.5988,4.6119,4.6217,4.6217,4.6168,4.6038,4.5854,4.5667,4.5476,4.5441,4.5441,4.5441,4.5441,4.856,4.8853,4.941,5.0131,5.0891,5.1183,5.13,5.13,5.13,5.1111,5.0774,5.0446,5.0302,5.0302,5.0302,5.0302,5.0302,5.0302,5.0302,5.0302,5.0302,5.0302,5.0302,5.0302,5.0302,5.0302,5.0302,5.0302,5.0302,5.0302,5.0302,5.0302,5.0302,5.0302,5.0302,5.0302,5.0302,5.0302,5.0302,5.0302,5.0302,5.0302,5.0302,5.0302,5.0302,5.0302,5.0302,5.0302,5.0302,5.0059,4.9562,4.8901,4.8164,4.7454,4.6694,4.6223,4.5974,4.592,4.559,4.5112,4.447,4.5057,4.5424,4.5718,4.5902,4.5902,4.5663,4.57,4.5314,4.5057,4.5039,4.4672,4.447,4.4617,4.458,4.4635,4.4599,4.4672,4.4837,4.5057,4.5792,4.6471,4.6893,4.759,4.7976,4.8288,4.8306,4.8324,4.8324,4.8267,4.8172,4.7955,4.7692,4.7421,4.716,4.6845,4.6584,4.6489,4.6411,4.6394,4.6394,4.6411,4.6411,4.6537,4.6678,4.6863,4.6771,4.6507,4.6137,4.5752,4.5615,4.5476,4.5441,4.5441,4.5441,4.7995,4.8755,4.8787,4.9274,5.0014,5.093,5.1242,5.1176,5.1237,5.107,5.0742,5.0445,5.0302,5.0302,5.0302,5.0302,5.0302,5.0302,5.0302,5.0302,5.0302,5.0302,5.0302,5.0302,5.0302,5.0302,5.0302,5.0302,5.0302,5.0302,5.0302,5.0302,5.0302,5.0302,5.0302,5.0302,5.0302,5.0302,5.0302,5.0302,5.0302,5.0302,5.0302,5.0302,5.0302,5.0302,5.0302,5.0302,5.0302,5.0183,5.0145,4.9537,4.8726,4.8313,4.7567,4.6702,4.6302,4.6103,4.5957,4.5865,4.5902,4.592,4.6214,4.6324,4.6104,4.6049,4.6214,4.6471,4.603,4.5883,4.5847,4.5755,4.559,4.548,4.5406,4.5369,4.5296,4.5296,4.5424,4.5755,4.6471,4.7075,4.737,4.7719,4.8104,4.8306,4.8324,4.8324,4.8324,4.8267,4.8229,4.8132,4.7915,4.7816,4.7567,4.7204,4.6999,4.6908,4.6908,4.689,4.689,4.689,4.6908,4.6999,4.7044,4.716,4.7089,4.6926,4.6584,4.6266,4.5752,4.5528,4.5476,4.5441,4.5441,4.68,4.7118,4.7696,4.8086,4.8534,4.9859,5.0424,5.0497,5.0767,5.0855,5.0642,5.0399,5.0302,5.0302,5.0302,5.0302,5.0302,5.0302,5.0302,5.0302,5.0302,5.0302,5.0302,5.0302,5.0302,5.0302,5.0302,5.0302,5.0302,5.0302,5.0302,5.0302,5.0302,5.0302,5.0302,5.0302,5.0302,5.0302,5.0302,5.0302,5.0302,5.0302,5.0302,5.0302,5.0302,5.0302,5.0302,5.0302,5.0302,5.0302,5.0302,4.9954,4.9402,4.9051,4.8578,4.7958,4.7628,4.748,4.7498,4.7462,4.7223,4.7058,4.7076,4.7297,4.748,4.748,4.7498,4.7278,4.6893,4.6783,4.6691,4.614,4.5865,4.5792,4.5736,4.5736,4.5718,4.5755,4.5902,4.6434,4.7095,4.7517,4.7829,4.7902,4.8196,4.8324,4.8324,4.8324,4.8324,4.8324,4.8267,4.8267,4.8172,4.8132,4.7955,4.765,4.7482,4.7378,4.7378,4.7378,4.7378,4.7396,4.7524,4.7609,4.7506,4.7421,4.7482,4.7439,4.7115,4.6753,4.6297,4.5837,4.5649,4.5563,4.5441,4.6196,4.6274,4.68,4.7053,4.7326,4.8865,4.9687,4.9926,5.0234,5.0422,5.0529,5.0377,5.0302,5.0302,5.0302,5.0302,5.0302,5.0302,5.0302,5.0302,5.0302,5.0302,5.0302,5.0302,5.0302,5.0302,5.0302,5.0302,5.0302,5.0302,5.0302,5.0302,5.0302,5.0302,5.0302,5.0302,5.0302,5.0302,5.0302,5.0302,5.0302,5.0302,5.0302,5.0302,5.0302,5.0302,5.0302,5.0302,5.0302,5.0302,5.0259,5.0212,4.9929,4.9646,4.9333,4.8982,4.855,4.8327,4.8214,4.8196,4.7865,4.7609,4.8086,4.8269,4.8324,4.8141,4.8159,4.8031,4.7737,4.7609,4.737,4.6728,4.6673,4.6617,4.6636,4.6673,4.6709,4.6764,4.6819,4.7333,4.7498,4.7902,4.8141,4.8196,4.8306,4.8324,4.8324,4.8324,4.8324,4.8324,4.8324,4.8306,4.8306,4.8229,4.8229,4.819,4.7995,4.7875,4.7816,4.7775,4.7856,4.7875,4.8093,4.821,4.7995,4.7915,4.8053,4.7955,4.7609,4.7291,4.6981,4.6537,4.602,4.5752,4.5615,4.6196,4.6196,4.6196,4.6235,4.6527,4.7969,4.903,4.9683,4.9519,4.9847,5.047,5.024,5.0206,5.0283,5.0302,5.0302,5.0302,5.0302,5.0302,5.0302,5.0302,5.0302,5.0302,5.0302,5.0302,5.0302,5.0302,5.0302,5.0302,5.0302,5.0302,5.0302,5.0302,5.0302,5.0302,5.0302,5.0302,5.0302,5.0302,5.0302,5.0302,5.0302,5.0302,5.0302,5.0302,5.0302,5.0302,5.0302,5.0302,5.0302,5.0302,5.0302,5.0169,4.9981,4.9627,4.9209,4.8623,4.8402,4.8324,4.8324,4.8306,4.8086,4.8233,4.8324,4.8324,4.8324,4.8324,4.8324,4.8104,4.8177,4.8104,4.8049,4.7976,4.7976,4.7994,4.8012,4.8031,4.8031,4.8031,4.8141,4.8122,4.8269,4.8269,4.8324,4.8324,4.8324,4.8324,4.8324,4.8324,4.8324,4.8324,4.8324,4.8324,4.8324,4.8324,4.8324,4.8267,4.8053,4.8132,4.8132,4.8229,4.821,4.8229,4.8267,4.8267,4.8267,4.8075,4.8075,4.8093,4.7775,4.7524,4.7071,4.6584,4.6168,4.6005,4.6196,4.6196,4.6196,4.6196,4.6274,4.6741,4.7622,4.8604,4.8571,4.8894,4.9535,4.9488,4.9691,5.0264,5.0302,5.0264,5.0283,5.0302,5.0302,5.0302,5.0302,5.0302,5.0302,5.0302,5.0302,5.0302,5.0302,5.0302,5.0302,5.0302,5.0302,5.0302,5.0302,5.0302,5.0302,5.0302,5.0302,5.0302,5.0302,5.0302,5.0302,5.0302,5.0302,5.0302,5.0302,5.0302,5.0302,5.0302,5.0302,5.0302,5.0302,5.0302,5.0278,4.9981,4.9618,4.9001,4.8569,4.8324,4.8324,4.8324,4.8324,4.8324,4.8324,4.8324,4.8324,4.8324,4.8324,4.8324,4.8324,4.8324,4.8324,4.8324,4.8324,4.8324,4.8324,4.8324,4.8324,4.8324,4.8324,4.8324,4.8324,4.8324,4.8324,4.8324,4.8324,4.8324,4.8324,4.8324,4.8324,4.8324,4.8324,4.8324,4.8324,4.8324,4.8324,4.8324,4.8324,4.8286,4.8324,4.8324,4.8267,4.8267,4.8324,4.8324,4.8324,4.8093,4.7816,4.7897,4.8172,4.8229,4.8014,4.7567,4.7133,4.6771,4.6429,4.6196,4.6196,4.6196,4.6196,4.6189,4.6046,4.6542,4.725,4.7549,4.801,4.8548,4.8582,4.8869,4.9251,4.9576,4.9786,4.9805,5.0168,5.0302,5.0302,5.0264,5.0302,5.0302,5.0302,5.0302,5.0302,5.0302,5.0302,5.0302,5.0302,5.0302,5.0302,5.0302,5.0302,5.0302,5.0302,5.0302,5.0302,5.0302,5.0302,5.0302,5.0302,5.0302,5.0302,5.0302,5.0302,5.0302,5.0302,5.0302,5.0302,5.0302,5.0302,5.0212,4.9857,4.9541,4.9001,4.855,4.8382,4.8324,4.8324,4.8324,4.8324,4.8324,4.8324,4.8324,4.8324,4.8324,4.8324,4.8324,4.8324,4.8324,4.8324,4.8324,4.8324,4.8324,4.8324,4.8324,4.8324,4.8324,4.8324,4.8324,4.8324,4.8324,4.8324,4.8324,4.8324,4.8324,4.8324,4.8324,4.8324,4.8324,4.8324,4.8324,4.8324,4.8324,4.8324,4.8324,4.8324,4.8324,4.8324,4.8324,4.8324,4.8324,4.8324,4.8324,4.8093,4.7897,4.8093,4.8267,4.8324,4.8324,4.8014,4.7609,4.7291,4.7044,4.6196,4.6196,4.6196,4.6196,4.6162,4.5875,4.5789,4.578,4.6549,4.7199,4.7633,4.7704,4.7799,4.8239,4.8697,4.8965,4.9117,4.948,4.9824,5.0149,5.0034,5.0073,5.0264,5.0302,5.0302,5.0302,5.0302,5.0302,5.0302,5.0302,5.0302,5.0302,5.0302,5.0302,5.0302,5.0302,5.0302,5.0302,5.0302,5.0302,5.0302,5.0302,5.0302,5.0302,5.0302,5.0302,5.0302,5.0302,5.0302,5.0302,5.0302,5.0302,5.012,4.9702,4.9394,4.908,4.864,4.8402,4.8324,4.8324,4.8324,4.8324,4.8324,4.8324,4.8324,4.8324,4.8324,4.8324,4.8324,4.8324,4.8324,4.8324,4.8324,4.8324,4.8324,4.8324,4.8324,4.8324,4.8324,4.8324,4.8324,4.8324,4.8324,4.8324,4.8324,4.8324,4.8324,4.8324,4.8324,4.8324,4.8324,4.8324,4.8324,4.8324,4.8324,4.8324,4.8324,4.8324,4.8324,4.8324,4.8324,4.8324,4.8324,4.8324,4.8324,4.8324,4.8229,4.8324,4.8324,4.8324,4.8324,4.8324,4.8093,4.7775,4.7524,4.6196,4.6196,4.6196,4.6196,4.6189,4.5998,4.5815,4.5689,4.578,4.6244,4.6753,4.6863,4.715,4.7646,4.7914,4.8124,4.8239,4.8563,4.885,4.9194,4.9366,4.9729,5.0168,5.0149,5.0245,5.0302,5.0302,5.0302,5.0302,5.0302,5.0302,5.0302,5.0302,5.0302,5.0302,5.0302,5.0302,5.0302,5.0302,5.0302,5.0302,5.0302,5.0302,5.0302,5.0302,5.0302,5.0302,5.0302,5.0302,5.0302,5.0302,5.0302,5.0259,4.9627,4.9345,4.9158,4.8711,4.8439,4.8324,4.8324,4.8324,4.8324,4.8324,4.8324,4.8324,4.8324,4.8324,4.8324,4.8324,4.8324,4.8324,4.8324,4.8324,4.8324,4.8324,4.8324,4.8324,4.8324,4.8324,4.8324,4.8324,4.8324,4.8324,4.8324,4.8324,4.8324,4.8324,4.8324,4.8324,4.8324,4.8324,4.8324,4.8324,4.8324,4.8324,4.8324,4.8324,4.8324,4.8324,4.8324,4.8324,4.8324,4.8324,4.8324,4.8324,4.8324,4.8324,4.8324,4.8324,4.8324,4.8324,4.8324,4.8324,4.8053,4.7875,4.6196,4.6196,4.6196,4.6162,4.6074,4.5936,4.5764,4.5603,4.5473,4.561,4.5929,4.6003,4.6271,4.6825,4.7035,4.7245,4.7322,4.7704,4.8105,4.843,4.8621,4.906,4.9423,4.9767,5.0073,5.0149,5.0264,5.0302,5.0302,5.0302,5.0302,5.0302,5.0302,5.0302,5.0302,5.0302,5.0302,5.0302,5.0302,5.0302,5.0302,5.0302,5.0302,5.0302,5.0302,5.0302,5.0302,5.0302,5.0302,5.0302,5.0302,5.0302,5.0193,4.9811,4.9483,4.9221,4.8866,4.8476,4.8382,4.8306,4.8306,4.8324,4.8324,4.8324,4.8324,4.8324,4.8324,4.8324,4.8324,4.8324,4.8324,4.8324,4.8324,4.8324,4.8324,4.8324,4.8324,4.8324,4.8324,4.8324,4.8324,4.8324,4.8324,4.8324,4.8324,4.8324,4.8324,4.8324,4.8324,4.8324,4.8324,4.8324,4.8324,4.8324,4.8324,4.8324,4.8324,4.8324,4.8324,4.8324,4.8324,4.8324,4.8324,4.8324,4.8324,4.8324,4.8324,4.8324,4.8324,4.8324,4.8324,4.8324,4.8324,4.8324,4.8132,4.6196,4.6196,4.6169,4.6102,4.5986,4.5744,4.5619,4.5509,4.5361,4.5298,4.5354,4.5354,4.5277,4.5545,4.5946,4.6214,4.6481,4.6806,4.7264,4.7589,4.7646,4.82,4.864,4.8965,4.9385,4.9882,5.0168,5.0245,5.0302,5.0302,5.0302,5.0302,5.0302,5.0302,5.0302,5.0302,5.0302,5.0302,5.0302,5.0302,5.0302,5.0302,5.0302,5.0302,5.0302,5.0302,5.0302,5.0302,5.0302,5.0302,5.0302,5.0302,5.0212,4.9929,4.9683,4.9375,4.9113,4.8746,4.8495,4.8439,4.8364,4.8344,4.8306,4.8324,4.8324,4.8324,4.8324,4.8324,4.8324,4.8324,4.8324,4.8324,4.8324,4.8324,4.8324,4.8324,4.8324,4.8324,4.8324,4.8324,4.8324,4.8324,4.8324,4.8324,4.8324,4.8324,4.8324,4.8324,4.8324,4.8324,4.8324,4.8324,4.8324,4.8324,4.8324,4.8324,4.8324,4.8324,4.8324,4.8324,4.8324,4.8324,4.8324,4.8324,4.8324,4.8324,4.8324,4.8324,4.8324,4.8324,4.8324,4.8324,4.8324,4.8324,4.8324,4.6196,4.6196,4.6084,4.6017,4.5944,4.5684,4.5524,4.5491,4.5361,4.5277,4.5277,4.5277,4.5277,4.5297,4.5411,4.5583,4.5755,4.6023,4.6309,4.6653,4.6748,4.7322,4.7895,4.8239,4.864,4.9251,4.9901,5.0245,5.0302,5.0302,5.0302,5.0302,5.0302,5.0302,5.0302,5.0302,5.0302,5.0302,5.0302,5.0302,5.0302,5.0302,5.0302,5.0302,5.0302,5.0302,5.0302,5.0302,5.0302,5.0302,5.0302,5.0302,5.0212,5.0051,4.983,4.9627,4.9333,4.9048,4.8832,4.8676,4.8605,4.8382,4.8382,4.8324,4.8324,4.8324,4.8324,4.8324,4.8324,4.8324,4.8324,4.8324,4.8324,4.8324,4.8324,4.8324,4.8324,4.8324,4.8324,4.8324,4.8324,4.8324,4.8324,4.8324,4.8324,4.8324,4.8324,4.8324,4.8324,4.8324,4.8324,4.8324,4.8324,4.8324,4.8324,4.8324,4.8324,4.8324,4.8324,4.8324,4.8324,4.8324,4.8324,4.8324,4.8324,4.8324,4.8324,4.8324,4.8324,4.8324,4.8324,4.8324,4.8324,4.8324,4.8324]},{"header":{"parameterUnit":"m.s-1","parameterCategory":1,"la1":31.0,"la2":29.5877,"lo1":-88.7671,"lo2":-86.6584,"dy":0.0162,"dx":0.0185,"nx":115,"ny":88,"refTime":"2023-04-27T06:00:00:Z","depth":0,"parameterNumber":3,"parameterNumberName":"V-component_of_WINDS"},"data":[0.0,0.0,0.0,0.0,0.0,0.0,0.0,0.0,0.0,0.0,0.0,0.0,0.0,0.0,0.0,0.0,0.0,0.0,0.0,0.0,0.0,0.0,0.0,0.0,0.0,0.0,0.0,0.0,0.0,0.0,0.0,0.0,0.0,0.0,0.0,0.0,0.0,0.0,0.0,0.0,0.0,0.0,0.0,0.0,0.0,0.0,0.0,0.0,0.0,0.0,0.0,0.0,0.0,0.0,0.0,0.0,0.0,0.0,0.0,0.0,0.0,0.0,0.0,0.0,0.0,0.0,0.0,0.0,0.0,0.0,0.0,0.0,0.0,0.0,0.0,0.0,0.0,0.0,0.0,0.0,0.0,0.0,0.0,0.0,0.0,0.0,0.0,0.0,0.0,0.0,0.0,0.0,0.0,0.0,0.0,0.0,0.0,0.0,0.0,0.0,0.0,0.0,0.0,0.0,0.0,0.0,0.0,0.0,0.0,0.0,0.0,0.0,0.0,0.0,0.0,0.0,0.0,0.0,0.0,0.0,0.0,0.0,0.0,0.0,0.0,0.0,0.0,0.0,0.0,0.0,0.0,0.0,0.0,0.0,0.0,0.0,0.0,0.0,0.0,0.0,0.0,0.0,0.0,0.0,0.0,0.0,0.0,0.0,0.0,0.0,0.0,0.0,0.0,0.0,0.0,0.0,0.0,0.0,0.0,0.0,0.0,0.0,0.0,0.0,0.0,0.0,0.0,0.0,0.0,0.0,0.0,0.0,0.0,0.0,0.0,0.0,0.0,0.0,0.0,0.0,0.0,0.0,0.0,0.0,0.0,0.0,0.0,0.0,0.0,0.0,0.0,0.0,0.0,0.0,0.0,0.0,0.0,0.0,0.0,0.0,0.0,0.0,0.0,0.0,0.0,0.0,0.0,0.0,0.0,0.0,0.0,0.0,0.0,0.0,0.0,0.0,0.0,0.0,0.0,0.0,0.0,0.0,0.0,0.0,0.0,0.0,0.0,0.0,0.0,0.0,0.0,0.0,0.0,0.0,0.0,0.0,0.0,0.0,0.0,0.0,0.0,0.0,0.0,0.0,0.0,0.0,0.0,0.0,0.0,0.0,0.0,0.0,0.0,0.0,0.0,0.0,0.0,0.0,0.0,0.0,0.0,0.0,0.0,0.0,0.0,0.0,0.0,0.0,0.0,0.0,0.0,0.0,0.0,0.0,0.0,0.0,0.0,0.0,0.0,0.0,0.0,0.0,0.0,0.0,0.0,0.0,0.0,0.0,0.0,0.0,0.0,0.0,0.0,0.0,0.0,0.0,0.0,0.0,0.0,0.0,0.0,0.0,0.0,0.0,0.0,0.0,0.0,0.0,0.0,0.0,0.0,0.0,0.0,0.0,0.0,0.0,0.0,0.0,0.0,0.0,0.0,0.0,0.0,0.0,0.0,0.0,0.0,0.0,0.0,0.0,0.0,0.0,0.0,0.0,0.0,0.0,0.0,0.0,0.0,0.0,0.0,0.0,0.0,0.0,0.0,0.0,0.0,0.0,0.0,0.0,0.0,0.0,0.0,0.0,0.0,0.0,0.0,0.0,0.0,0.0,0.0,0.0,0.0,0.0,0.0,0.0,0.0,0.0,0.0,0.0,0.0,0.0,0.0,0.0,0.0,0.0,0.0,0.0,0.0,0.0,0.0,0.0,0.0,0.0,0.0,0.0,0.0,0.0,0.0,0.0,0.0,0.0,0.0,0.0,0.0,0.0,0.0,0.0,0.0,0.0,0.0,0.0,0.0,0.0,0.0,0.0,0.0,0.0,0.0,0.0,0.0,0.0,0.0,0.0,0.0,0.0,0.0,0.0,0.0,0.0,0.0,0.0,0.0,0.0,0.0,0.0,0.0,0.0,0.0,0.0,0.0,0.0,0.0,0.0,0.0,0.0,0.0,0.0,0.0,0.0,0.0,0.0,0.0,0.0,0.0,0.0,0.0,0.0,0.0,0.0,0.0,0.0,0.0,0.0,0.0,0.0,0.0,0.0,0.0,0.0,0.0,0.0,0.0,0.0,0.0,0.0,0.0,0.0,0.0,0.0,0.0,0.0,0.0,0.0,0.0,0.0,0.0,0.0,0.0,0.0,0.0,0.0,0.0,0.0,0.0,0.0,0.0,0.0,0.0,0.0,0.0,0.0,0.0,0.0,0.0,0.0,0.0,0.0,0.0,0.0,0.0,0.0,0.0,0.0,0.0,0.0,0.0,0.0,0.0,0.0,0.0,0.0,0.0,0.0,0.0,0.0,0.0,0.0,0.0,0.0,0.0,0.0,0.0,0.0,0.0,0.0,0.0,0.0,0.0,0.0,0.0,0.0,0.0,0.0,0.0,0.0,0.0,0.0,0.0,0.0,0.0,0.0,0.0,0.0,0.0,0.0,0.0,0.0,0.0,0.0,0.0,0.0,0.0,0.0,0.0,0.0,0.0,0.0,0.0,0.0,0.0,0.0,0.0,0.0,0.0,0.0,0.0,0.0,0.0,0.0,0.0,0.0,0.0,0.0,0.0,0.0,0.0,0.0,0.0,0.0,0.0,0.0,0.0,0.0,0.0,0.0,0.0,0.0,0.0,0.0,0.0,0.0,0.0,0.0,0.0,0.0,0.0,0.0,0.0,0.0,0.0,0.0,0.0,0.0,0.0,0.0,0.0,0.0,0.0,0.0,0.0,0.0,0.0,0.0,0.0,0.0,0.0,0.0,0.0,0.0,0.0,0.0,0.0,0.0,0.0,0.0,0.0,0.0,0.0,0.0,0.0,0.0,0.0,0.0,0.0,0.0,0.0,0.0,0.0,0.0,0.0,0.0,0.0,0.0,0.0,0.0,0.0,0.0,0.0,0.0,0.0,0.0,0.0,0.0,0.0,0.0,0.0,0.0,0.0,0.0,0.0,0.0,0.0,0.0,0.0,0.0,0.0,0.0,0.0,0.0,0.0,0.0,0.0,0.0,0.0,0.0,0.0,0.0,0.0,0.0,0.0,0.0,0.0,0.0,0.0,0.0,0.0,0.0,0.0,0.0,0.0,0.0,0.0,0.0,0.0,0.0,0.0,0.0,0.0,0.0,0.0,0.0,0.0,0.0,0.0,0.0,0.0,0.0,0.0,0.0,0.0,0.0,0.0,0.0,0.0,0.0,0.0,0.0,0.0,0.0,0.0,0.0,0.0,0.0,0.0,0.0,0.0,0.0,0.0,0.0,0.0,0.0,0.0,0.0,0.0,0.0,0.0,0.0,0.0,0.0,0.0,0.0,0.0,0.0,0.0,0.0,0.0,0.0,0.0,0.0,0.0,0.0,0.0,0.0,0.0,0.0,0.0,0.0,0.0,0.0,0.0,0.0,0.0,0.0,0.0,0.0,0.0,0.0,0.0,0.0,0.0,0.0,0.0,0.0,0.0,0.0,0.0,0.0,0.0,0.0,0.0,0.0,0.0,0.0,0.0,0.0,0.0,0.0,0.0,0.0,0.0,0.0,0.0,0.0,0.0,0.0,0.0,0.0,0.0,0.0,0.0,0.0,0.0,0.0,0.0,0.0,0.0,0.0,0.0,0.0,0.0,0.0,0.0,0.0,0.0,0.0,0.0,0.0,0.0,0.0,0.0,0.0,0.0,0.0,0.0,0.0,0.0,0.0,0.0,0.0,0.0,0.0,0.0,0.0,0.0,0.0,0.0,0.0,0.0,0.0,0.0,0.0,0.0,0.0,0.0,0.0,0.0,0.0,0.0,0.0,0.0,0.0,0.0,0.0,0.0,0.0,0.0,0.0,0.0,0.0,0.0,0.0,0.0,0.0,0.0,0.0,0.0,0.0,0.0,0.0,0.0,0.0,0.0,0.0,0.0,0.0,0.0,0.0,0.0,0.0,0.0,0.0,0.0,0.0,0.0,0.0,0.0,0.0,0.0,0.0,0.0,0.0,0.0,0.0,0.0,0.0,0.0,0.0,0.0,0.0,0.0,0.0,0.0,0.0,0.0,0.0,0.0,0.0,0.0,0.0,0.0,0.0,0.0,0.0,0.0,0.0,0.0,0.0,0.0,0.0,0.0,0.0,0.0,0.0,0.0,0.0,0.0,0.0,0.0,0.0,0.0,0.0,0.0,0.0,0.0,0.0,0.0,0.0,0.0,0.0,0.0,0.0,0.0,0.0,0.0,0.0,0.0,0.0,0.0,0.0,0.0,0.0,0.0,0.0,0.0,0.0,0.0,0.0,0.0,0.0,0.0,0.0,0.0,0.0,0.0,0.0,-2.1233,0.0,0.0,0.0,0.0,0.0,0.0,0.0,0.0,0.0,0.0,0.0,0.0,0.0,0.0,0.0,0.0,0.0,0.0,0.0,0.0,0.0,0.0,0.0,0.0,0.0,0.0,0.0,0.0,0.0,0.0,0.0,0.0,0.0,0.0,0.0,0.0,0.0,0.0,0.0,0.0,0.0,0.0,0.0,0.0,0.0,0.0,0.0,0.0,0.0,0.0,0.0,0.0,0.0,0.0,0.0,0.0,0.0,0.0,0.0,0.0,0.0,0.0,0.0,0.0,0.0,0.0,0.0,0.0,0.0,0.0,0.0,0.0,0.0,0.0,0.0,0.0,0.0,0.0,0.0,0.0,0.0,0.0,0.0,0.0,0.0,0.0,0.0,0.0,0.0,0.0,0.0,0.0,0.0,0.0,0.0,0.0,0.0,0.0,0.0,0.0,0.0,0.0,0.0,0.0,0.0,0.0,0.0,0.0,0.0,0.0,-2.1233,-2.1233,-2.1233,-2.1221,-2.1285,0.0,0.0,0.0,0.0,0.0,0.0,0.0,0.0,0.0,0.0,0.0,0.0,0.0,0.0,0.0,0.0,0.0,0.0,0.0,0.0,0.0,0.0,0.0,0.0,0.0,0.0,0.0,0.0,0.0,0.0,0.0,0.0,0.0,0.0,0.0,0.0,0.0,0.0,0.0,0.0,0.0,0.0,0.0,0.0,0.0,0.0,0.0,0.0,0.0,0.0,0.0,0.0,0.0,0.0,0.0,0.0,0.0,0.0,0.0,0.0,0.0,0.0,0.0,0.0,0.0,0.0,0.0,0.0,0.0,0.0,0.0,0.0,0.0,0.0,0.0,0.0,0.0,0.0,0.0,0.0,0.0,0.0,0.0,0.0,0.0,0.0,0.0,0.0,0.0,0.0,0.0,0.0,0.0,0.0,0.0,0.0,0.0,0.0,0.0,0.0,0.0,0.0,0.0,0.0,0.0,0.0,0.0,0.0,0.0,0.0,0.0,0.0,-2.1221,-2.1285,-2.1423,0.0,0.0,0.0,0.0,0.0,0.0,0.0,0.0,0.0,0.0,0.0,0.0,0.0,0.0,0.0,0.0,0.0,0.0,0.0,0.0,0.0,0.0,0.0,0.0,0.0,0.0,0.0,0.0,0.0,0.0,0.0,0.0,0.0,0.0,0.0,0.0,0.0,0.0,0.0,0.0,0.0,0.0,0.0,0.0,0.0,0.0,0.0,0.0,0.0,0.0,0.0,0.0,0.0,0.0,0.0,0.0,0.0,0.0,0.0,0.0,0.0,0.0,0.0,0.0,0.0,0.0,0.0,0.0,0.0,0.0,0.0,0.0,0.0,0.0,0.0,0.0,0.0,0.0,0.0,0.0,0.0,0.0,0.0,0.0,0.0,0.0,0.0,0.0,0.0,0.0,0.0,0.0,0.0,0.0,0.0,0.0,0.0,0.0,0.0,0.0,0.0,0.0,0.0,0.0,0.0,0.0,0.0,0.0,0.0,0.0,-2.1285,-2.1388,-2.1273,0.0,-2.1458,0.0,0.0,0.0,0.0,0.0,0.0,0.0,0.0,0.0,0.0,0.0,0.0,0.0,0.0,0.0,0.0,0.0,0.0,0.0,0.0,0.0,0.0,0.0,0.0,0.0,0.0,0.0,0.0,0.0,0.0,0.0,0.0,0.0,0.0,0.0,0.0,0.0,0.0,0.0,0.0,0.0,0.0,0.0,0.0,0.0,0.0,0.0,0.0,0.0,0.0,0.0,0.0,0.0,0.0,0.0,0.0,0.0,0.0,0.0,0.0,0.0,0.0,0.0,0.0,0.0,0.0,0.0,0.0,0.0,0.0,0.0,0.0,0.0,0.0,0.0,0.0,0.0,0.0,0.0,0.0,0.0,0.0,0.0,0.0,0.0,0.0,0.0,0.0,0.0,0.0,0.0,0.0,0.0,0.0,0.0,0.0,0.0,0.0,0.0,0.0,0.0,0.0,0.0,0.0,0.0,0.0,0.0,0.0,0.0,0.0,-2.1221,-2.1273,-2.1423,-2.1486,0.0,0.0,0.0,0.0,0.0,0.0,0.0,0.0,0.0,0.0,0.0,0.0,0.0,0.0,0.0,0.0,0.0,0.0,0.0,0.0,0.0,0.0,0.0,0.0,0.0,0.0,0.0,0.0,0.0,0.0,0.0,0.0,0.0,0.0,0.0,0.0,0.0,0.0,0.0,0.0,0.0,0.0,0.0,0.0,0.0,0.0,0.0,0.0,0.0,0.0,0.0,0.0,0.0,0.0,0.0,0.0,0.0,0.0,0.0,0.0,0.0,0.0,0.0,0.0,0.0,0.0,0.0,0.0,0.0,0.0,0.0,0.0,0.0,0.0,0.0,0.0,0.0,0.0,0.0,0.0,0.0,0.0,0.0,0.0,0.0,0.0,0.0,0.0,0.0,0.0,0.0,0.0,0.0,0.0,0.0,0.0,0.0,0.0,0.0,0.0,0.0,0.0,0.0,0.0,0.0,0.0,0.0,0.0,0.0,0.0,-2.1221,-2.1285,-2.136,-2.1635,-2.1675,-2.1537,0.0,0.0,0.0,0.0,0.0,0.0,0.0,0.0,0.0,0.0,0.0,0.0,0.0,0.0,0.0,0.0,0.0,0.0,0.0,0.0,0.0,0.0,0.0,0.0,0.0,0.0,0.0,0.0,0.0,0.0,0.0,0.0,0.0,0.0,0.0,0.0,0.0,0.0,0.0,0.0,0.0,0.0,0.0,0.0,0.0,0.0,0.0,0.0,0.0,0.0,0.0,0.0,0.0,0.0,0.0,0.0,0.0,0.0,0.0,0.0,0.0,0.0,0.0,0.0,0.0,0.0,0.0,0.0,0.0,0.0,0.0,0.0,0.0,0.0,0.0,0.0,0.0,0.0,0.0,0.0,0.0,0.0,0.0,0.0,0.0,0.0,0.0,0.0,0.0,0.0,0.0,0.0,0.0,0.0,0.0,0.0,0.0,0.0,0.0,0.0,0.0,0.0,0.0,0.0,0.0,0.0,0.0,0.0,-2.1221,-2.1348,-2.1474,-2.1635,-2.1812,-2.1862,0.0,0.0,0.0,0.0,0.0,0.0,0.0,0.0,0.0,0.0,0.0,0.0,0.0,0.0,0.0,0.0,0.0,0.0,0.0,0.0,0.0,0.0,0.0,0.0,0.0,0.0,0.0,0.0,0.0,0.0,0.0,0.0,0.0,0.0,0.0,0.0,0.0,0.0,0.0,0.0,0.0,0.0,0.0,0.0,0.0,0.0,0.0,0.0,0.0,0.0,0.0,0.0,0.0,0.0,0.0,0.0,0.0,0.0,0.0,0.0,0.0,0.0,0.0,0.0,0.0,0.0,0.0,0.0,0.0,0.0,0.0,0.0,0.0,0.0,0.0,0.0,0.0,0.0,0.0,0.0,0.0,0.0,0.0,0.0,0.0,0.0,0.0,0.0,0.0,0.0,0.0,0.0,0.0,0.0,0.0,0.0,0.0,0.0,0.0,0.0,0.0,0.0,0.0,0.0,0.0,0.0,0.0,0.0,0.0,-2.1233,-2.1221,-2.1285,-2.136,-2.1624,-2.1761,0.0,0.0,0.0,0.0,0.0,0.0,0.0,0.0,0.0,0.0,0.0,0.0,0.0,0.0,0.0,0.0,0.0,0.0,0.0,0.0,0.0,0.0,0.0,0.0,0.0,0.0,0.0,0.0,0.0,0.0,0.0,0.0,0.0,0.0,0.0,0.0,0.0,0.0,0.0,0.0,0.0,0.0,0.0,0.0,0.0,0.0,0.0,0.0,0.0,0.0,0.0,0.0,0.0,0.0,0.0,0.0,0.0,0.0,0.0,0.0,0.0,0.0,0.0,0.0,0.0,0.0,0.0,0.0,0.0,0.0,0.0,0.0,0.0,0.0,0.0,0.0,0.0,0.0,0.0,0.0,0.0,0.0,0.0,0.0,0.0,0.0,0.0,0.0,0.0,0.0,0.0,0.0,0.0,0.0,0.0,0.0,0.0,0.0,0.0,0.0,0.0,0.0,0.0,0.0,0.0,0.0,0.0,0.0,0.0,-2.1285,0.0,-2.1233,-2.1371,-2.1486,-2.1624,0.0,0.0,0.0,0.0,0.0,0.0,0.0,0.0,0.0,0.0,0.0,0.0,0.0,0.0,0.0,0.0,0.0,0.0,0.0,0.0,0.0,0.0,0.0,0.0,0.0,0.0,0.0,0.0,0.0,0.0,0.0,0.0,0.0,0.0,0.0,0.0,0.0,0.0,0.0,0.0,0.0,0.0,0.0,0.0,0.0,0.0,0.0,0.0,0.0,0.0,0.0,0.0,0.0,0.0,0.0,0.0,0.0,0.0,0.0,0.0,0.0,0.0,0.0,0.0,0.0,0.0,0.0,0.0,0.0,0.0,0.0,0.0,0.0,0.0,0.0,0.0,0.0,0.0,0.0,0.0,0.0,0.0,0.0,0.0,0.0,0.0,0.0,0.0,0.0,0.0,0.0,0.0,0.0,0.0,0.0,0.0,0.0,0.0,0.0,0.0,0.0,0.0,0.0,0.0,0.0,0.0,0.0,0.0,-2.1296,-2.1388,-2.1273,-2.136,-2.1698,-2.1474,-2.1526,0.0,0.0,0.0,0.0,0.0,0.0,0.0,0.0,0.0,0.0,0.0,0.0,0.0,0.0,0.0,0.0,0.0,0.0,0.0,0.0,0.0,0.0,0.0,0.0,0.0,0.0,0.0,0.0,0.0,0.0,0.0,0.0,0.0,0.0,0.0,0.0,0.0,0.0,0.0,0.0,0.0,0.0,0.0,0.0,0.0,0.0,0.0,0.0,0.0,0.0,0.0,0.0,0.0,0.0,0.0,0.0,0.0,0.0,0.0,0.0,0.0,0.0,0.0,0.0,0.0,0.0,0.0,0.0,0.0,0.0,0.0,0.0,0.0,0.0,0.0,0.0,0.0,0.0,0.0,0.0,0.0,0.0,0.0,0.0,0.0,0.0,0.0,0.0,0.0,0.0,0.0,0.0,0.0,0.0,0.0,0.0,0.0,0.0,0.0,0.0,0.0,0.0,0.0,0.0,0.0,0.0,0.0,0.0,0.0,-2.1285,-2.1221,-2.1233,-2.136,-2.14,-2.1451,0.0,0.0,0.0,0.0,0.0,0.0,0.0,0.0,0.0,0.0,0.0,0.0,0.0,0.0,0.0,0.0,0.0,0.0,0.0,0.0,0.0,0.0,0.0,0.0,0.0,0.0,0.0,0.0,0.0,0.0,0.0,0.0,0.0,0.0,0.0,0.0,0.0,0.0,0.0,0.0,0.0,0.0,0.0,0.0,0.0,0.0,0.0,0.0,0.0,0.0,0.0,0.0,0.0,0.0,0.0,0.0,0.0,0.0,0.0,0.0,0.0,0.0,0.0,0.0,0.0,0.0,0.0,0.0,0.0,0.0,0.0,0.0,0.0,0.0,0.0,0.0,0.0,0.0,0.0,0.0,0.0,0.0,0.0,0.0,0.0,0.0,0.0,0.0,0.0,0.0,0.0,0.0,0.0,0.0,0.0,0.0,0.0,0.0,0.0,0.0,0.0,0.0,0.0,0.0,0.0,0.0,0.0,0.0,0.0,-2.0892,-2.0892,-2.0892,-2.0903,-2.1008,-2.1123,-2.1411,0.0,0.0,0.0,0.0,0.0,0.0,0.0,0.0,0.0,0.0,0.0,0.0,0.0,0.0,0.0,0.0,0.0,0.0,0.0,0.0,0.0,0.0,0.0,0.0,0.0,0.0,0.0,0.0,0.0,0.0,0.0,0.0,0.0,0.0,0.0,0.0,0.0,0.0,0.0,0.0,0.0,0.0,0.0,0.0,0.0,0.0,0.0,0.0,0.0,0.0,0.0,0.0,0.0,0.0,0.0,0.0,0.0,0.0,0.0,0.0,0.0,0.0,0.0,0.0,0.0,0.0,0.0,0.0,0.0,0.0,0.0,0.0,0.0,0.0,0.0,0.0,0.0,0.0,0.0,0.0,0.0,0.0,0.0,0.0,0.0,0.0,0.0,0.0,0.0,0.0,0.0,0.0,0.0,0.0,0.0,0.0,0.0,0.0,0.0,0.0,0.0,0.0,0.0,0.0,0.0,0.0,0.0,0.0,-2.0355,-2.0291,-2.0302,-2.0355,-2.0366,-2.0677,0.0,0.0,0.0,0.0,0.0,0.0,0.0,0.0,0.0,0.0,0.0,0.0,0.0,0.0,0.0,0.0,0.0,0.0,0.0,0.0,0.0,0.0,0.0,0.0,0.0,0.0,0.0,0.0,0.0,0.0,0.0,0.0,0.0,0.0,0.0,0.0,0.0,0.0,0.0,0.0,0.0,0.0,0.0,0.0,0.0,0.0,0.0,0.0,0.0,0.0,0.0,0.0,0.0,0.0,0.0,0.0,0.0,0.0,0.0,0.0,0.0,0.0,0.0,0.0,0.0,0.0,0.0,0.0,0.0,0.0,0.0,0.0,0.0,0.0,0.0,0.0,0.0,0.0,0.0,0.0,0.0,0.0,0.0,0.0,0.0,0.0,0.0,0.0,0.0,0.0,0.0,0.0,0.0,0.0,0.0,0.0,0.0,0.0,0.0,0.0,0.0,0.0,0.0,0.0,0.0,0.0,0.0,0.0,0.0,-1.9628,-1.932,-1.9396,-1.9791,-2.0183,-2.0484,0.0,0.0,0.0,0.0,0.0,0.0,0.0,0.0,0.0,0.0,0.0,0.0,0.0,0.0,0.0,0.0,0.0,0.0,0.0,0.0,0.0,0.0,0.0,0.0,0.0,0.0,0.0,0.0,0.0,0.0,0.0,0.0,0.0,0.0,0.0,0.0,0.0,0.0,0.0,0.0,0.0,0.0,0.0,0.0,0.0,0.0,0.0,0.0,0.0,0.0,0.0,0.0,0.0,0.0,0.0,0.0,0.0,0.0,0.0,0.0,0.0,0.0,0.0,0.0,0.0,0.0,0.0,0.0,0.0,0.0,0.0,0.0,0.0,0.0,0.0,0.0,0.0,0.0,0.0,0.0,0.0,0.0,0.0,0.0,0.0,0.0,0.0,0.0,0.0,0.0,0.0,0.0,0.0,0.0,0.0,0.0,0.0,0.0,0.0,0.0,0.0,0.0,0.0,0.0,0.0,0.0,0.0,0.0,-1.9704,-1.9243,-1.8731,-1.8539,-1.8787,-1.9518,-2.0194,0.0,0.0,0.0,0.0,0.0,0.0,0.0,0.0,0.0,0.0,0.0,0.0,0.0,0.0,0.0,0.0,0.0,0.0,0.0,0.0,0.0,0.0,0.0,0.0,0.0,0.0,0.0,0.0,0.0,0.0,0.0,0.0,0.0,0.0,0.0,0.0,0.0,0.0,0.0,0.0,0.0,0.0,0.0,0.0,0.0,0.0,0.0,0.0,0.0,0.0,0.0,0.0,0.0,0.0,0.0,0.0,0.0,0.0,0.0,0.0,0.0,0.0,0.0,0.0,0.0,0.0,0.0,0.0,0.0,0.0,0.0,0.0,0.0,0.0,0.0,0.0,0.0,0.0,0.0,0.0,0.0,0.0,0.0,0.0,0.0,0.0,0.0,0.0,0.0,0.0,0.0,0.0,0.0,0.0,0.0,0.0,0.0,0.0,0.0,0.0,0.0,0.0,0.0,0.0,0.0,0.0,0.0,0.0,-1.9177,-1.8865,-1.8192,-1.7745,-1.7627,-1.8771,-1.9905,0.0,0.0,0.0,0.0,0.0,0.0,0.0,0.0,0.0,0.0,0.0,0.0,0.0,0.0,0.0,0.0,0.0,0.0,0.0,0.0,0.0,0.0,0.0,0.0,0.0,0.0,0.0,0.0,0.0,0.0,0.0,0.0,0.0,0.0,0.0,0.0,0.0,0.0,0.0,0.0,0.0,0.0,0.0,0.0,0.0,0.0,0.0,0.0,0.0,0.0,0.0,0.0,0.0,0.0,0.0,0.0,0.0,0.0,0.0,0.0,0.0,0.0,0.0,0.0,0.0,0.0,0.0,0.0,0.0,0.0,0.0,0.0,0.0,0.0,0.0,0.0,0.0,0.0,0.0,0.0,0.0,0.0,0.0,0.0,0.0,0.0,0.0,0.0,0.0,0.0,0.0,0.0,0.0,0.0,0.0,0.0,0.0,0.0,0.0,0.0,0.0,0.0,0.0,0.0,0.0,0.0,0.0,0.0,-1.8633,-1.7531,-1.6991,-1.6808,-1.7107,-1.8864,-1.9975,0.0,0.0,0.0,0.0,0.0,0.0,0.0,0.0,0.0,0.0,0.0,0.0,0.0,0.0,0.0,0.0,0.0,0.0,0.0,0.0,0.0,0.0,0.0,0.0,0.0,0.0,0.0,0.0,0.0,0.0,0.0,0.0,0.0,0.0,0.0,0.0,0.0,0.0,0.0,0.0,0.0,0.0,0.0,0.0,0.0,0.0,0.0,0.0,-2.7108,0.0,0.0,0.0,0.0,0.0,0.0,0.0,0.0,0.0,0.0,0.0,0.0,0.0,0.0,0.0,0.0,0.0,0.0,0.0,0.0,0.0,0.0,0.0,0.0,0.0,0.0,0.0,0.0,0.0,0.0,0.0,0.0,0.0,0.0,0.0,0.0,0.0,0.0,0.0,0.0,0.0,0.0,0.0,0.0,0.0,0.0,0.0,0.0,0.0,0.0,0.0,0.0,0.0,0.0,0.0,0.0,0.0,0.0,0.0,-1.7979,-1.732,-1.6564,-1.648,-1.7149,-1.8575,-1.9695,0.0,0.0,0.0,0.0,0.0,0.0,0.0,0.0,0.0,0.0,0.0,0.0,0.0,0.0,0.0,0.0,0.0,0.0,0.0,0.0,0.0,0.0,0.0,0.0,0.0,0.0,0.0,0.0,0.0,0.0,0.0,0.0,0.0,0.0,0.0,0.0,0.0,0.0,0.0,0.0,0.0,0.0,0.0,0.0,0.0,0.0,0.0,0.0,0.0,0.0,0.0,0.0,0.0,0.0,0.0,0.0,0.0,0.0,0.0,0.0,0.0,0.0,0.0,0.0,0.0,0.0,0.0,0.0,0.0,0.0,0.0,0.0,0.0,0.0,0.0,0.0,0.0,0.0,0.0,0.0,0.0,0.0,0.0,0.0,0.0,0.0,0.0,0.0,0.0,0.0,0.0,0.0,0.0,0.0,0.0,0.0,0.0,0.0,0.0,0.0,0.0,0.0,0.0,0.0,0.0,0.0,0.0,-1.8086,-1.7381,-1.7135,-1.6198,-1.6121,-1.7037,-1.7867,-1.9203,-2.0869,0.0,0.0,0.0,0.0,0.0,0.0,0.0,0.0,0.0,0.0,0.0,0.0,0.0,0.0,0.0,0.0,0.0,0.0,0.0,0.0,0.0,0.0,0.0,0.0,0.0,0.0,0.0,0.0,0.0,0.0,0.0,0.0,0.0,0.0,0.0,0.0,0.0,0.0,-2.5898,-2.591,0.0,0.0,0.0,0.0,0.0,0.0,0.0,0.0,-2.6905,0.0,0.0,0.0,0.0,0.0,0.0,0.0,0.0,0.0,0.0,0.0,0.0,0.0,0.0,0.0,0.0,0.0,0.0,0.0,0.0,0.0,0.0,0.0,0.0,0.0,0.0,0.0,0.0,0.0,0.0,0.0,0.0,0.0,0.0,0.0,0.0,0.0,0.0,0.0,0.0,0.0,0.0,0.0,0.0,0.0,0.0,0.0,0.0,0.0,0.0,0.0,0.0,0.0,0.0,0.0,0.0,-1.755,-1.7684,-1.6884,-1.5059,-1.4965,-1.5048,-1.5367,-1.6678,-1.8246,-2.0043,0.0,0.0,0.0,0.0,0.0,0.0,0.0,0.0,0.0,0.0,0.0,0.0,0.0,0.0,0.0,0.0,0.0,0.0,0.0,0.0,0.0,0.0,0.0,0.0,0.0,0.0,0.0,0.0,0.0,0.0,0.0,0.0,0.0,0.0,0.0,0.0,0.0,0.0,0.0,-2.5758,-2.5816,0.0,0.0,0.0,0.0,0.0,0.0,0.0,0.0,-2.6414,0.0,0.0,0.0,0.0,0.0,0.0,0.0,0.0,0.0,0.0,0.0,0.0,0.0,0.0,0.0,0.0,0.0,0.0,0.0,0.0,0.0,0.0,0.0,0.0,0.0,0.0,0.0,0.0,0.0,0.0,0.0,0.0,0.0,0.0,0.0,0.0,0.0,0.0,0.0,0.0,0.0,0.0,0.0,0.0,0.0,0.0,0.0,0.0,0.0,0.0,0.0,0.0,0.0,0.0,0.0,-1.7413,-1.6843,-1.6088,-1.5134,-1.4604,-1.4838,-1.5952,-1.6822,-1.832,0.0,0.0,0.0,0.0,0.0,0.0,0.0,0.0,0.0,0.0,0.0,0.0,0.0,0.0,0.0,0.0,0.0,0.0,0.0,0.0,0.0,0.0,0.0,0.0,0.0,0.0,0.0,0.0,0.0,0.0,0.0,0.0,0.0,0.0,0.0,0.0,0.0,0.0,0.0,0.0,-2.5336,-2.5465,-2.5804,0.0,0.0,0.0,0.0,0.0,0.0,-2.622,-2.6302,0.0,0.0,0.0,0.0,0.0,0.0,0.0,0.0,0.0,0.0,0.0,0.0,0.0,0.0,0.0,0.0,0.0,0.0,0.0,0.0,0.0,0.0,0.0,0.0,0.0,0.0,0.0,0.0,0.0,0.0,0.0,0.0,0.0,0.0,0.0,0.0,0.0,0.0,0.0,0.0,0.0,0.0,0.0,0.0,0.0,0.0,0.0,0.0,0.0,0.0,0.0,0.0,0.0,0.0,0.0,-1.7307,-1.6035,-1.5357,-1.529,-1.4497,-1.4817,-1.6617,-1.7155,-1.8506,0.0,0.0,0.0,0.0,0.0,0.0,0.0,0.0,0.0,0.0,0.0,0.0,0.0,0.0,0.0,0.0,0.0,0.0,0.0,0.0,0.0,0.0,0.0,0.0,0.0,0.0,0.0,0.0,0.0,0.0,0.0,0.0,0.0,0.0,0.0,0.0,0.0,0.0,0.0,0.0,0.0,-2.5123,-2.5241,-2.5606,0.0,0.0,0.0,0.0,-2.6208,-2.6164,0.0,0.0,0.0,0.0,0.0,0.0,0.0,0.0,0.0,0.0,0.0,0.0,0.0,0.0,0.0,0.0,0.0,0.0,0.0,0.0,0.0,0.0,0.0,0.0,0.0,0.0,0.0,0.0,0.0,0.0,0.0,0.0,0.0,0.0,0.0,0.0,0.0,0.0,0.0,0.0,0.0,0.0,0.0,0.0,0.0,0.0,0.0,0.0,0.0,0.0,0.0,0.0,0.0,0.0,0.0,0.0,-1.6648,-1.6162,-1.5355,-1.4218,-1.4296,-1.4699,-1.556,-1.7066,-1.8497,0.0,0.0,0.0,0.0,0.0,0.0,0.0,0.0,0.0,0.0,0.0,0.0,0.0,0.0,0.0,0.0,0.0,0.0,0.0,0.0,0.0,0.0,0.0,0.0,0.0,0.0,0.0,0.0,0.0,0.0,0.0,0.0,0.0,0.0,0.0,0.0,0.0,0.0,0.0,0.0,0.0,-2.4933,-2.5123,-2.5548,-2.5828,0.0,0.0,-2.5828,-2.5734,-2.5676,0.0,0.0,0.0,0.0,0.0,0.0,0.0,0.0,0.0,0.0,0.0,0.0,0.0,0.0,0.0,0.0,0.0,0.0,0.0,0.0,0.0,0.0,0.0,0.0,0.0,0.0,0.0,0.0,0.0,0.0,0.0,0.0,0.0,0.0,0.0,0.0,0.0,0.0,0.0,0.0,0.0,0.0,0.0,0.0,0.0,0.0,0.0,0.0,0.0,0.0,0.0,0.0,0.0,0.0,0.0,-1.7252,-1.6427,-1.5572,-1.4771,-1.4213,-1.426,-1.4573,-1.5394,-1.6911,-1.8426,0.0,0.0,0.0,0.0,0.0,0.0,0.0,0.0,0.0,0.0,0.0,0.0,0.0,0.0,0.0,0.0,0.0,0.0,0.0,0.0,0.0,0.0,0.0,0.0,0.0,0.0,0.0,0.0,0.0,0.0,0.0,0.0,0.0,0.0,0.0,0.0,0.0,0.0,0.0,0.0,0.0,0.0,-2.4921,-2.5419,0.0,0.0,0.0,-2.5746,-2.5746,0.0,0.0,0.0,0.0,0.0,0.0,0.0,0.0,0.0,0.0,0.0,0.0,0.0,0.0,0.0,0.0,0.0,0.0,0.0,0.0,0.0,0.0,0.0,0.0,0.0,0.0,0.0,0.0,0.0,0.0,0.0,0.0,0.0,0.0,0.0,0.0,0.0,0.0,0.0,0.0,0.0,0.0,0.0,0.0,0.0,0.0,0.0,0.0,0.0,0.0,0.0,0.0,0.0,0.0,0.0,0.0,0.0,-1.6485,-1.5105,-1.4398,-1.4314,-1.4166,-1.4496,-1.5394,-1.6593,0.0,0.0,0.0,0.0,0.0,0.0,0.0,0.0,0.0,0.0,0.0,0.0,0.0,0.0,0.0,0.0,0.0,0.0,0.0,0.0,0.0,0.0,0.0,0.0,0.0,0.0,0.0,-2.4418,0.0,0.0,0.0,0.0,0.0,0.0,0.0,0.0,0.0,0.0,0.0,0.0,0.0,0.0,-2.4801,-2.4801,-2.5265,-2.5606,0.0,0.0,-2.5688,-2.584,-2.5688,-2.5688,0.0,0.0,0.0,0.0,0.0,0.0,0.0,0.0,0.0,0.0,0.0,0.0,0.0,0.0,0.0,0.0,0.0,0.0,0.0,0.0,0.0,0.0,0.0,0.0,0.0,0.0,0.0,0.0,0.0,0.0,0.0,0.0,0.0,0.0,0.0,0.0,0.0,0.0,0.0,0.0,0.0,0.0,0.0,0.0,0.0,0.0,0.0,0.0,0.0,0.0,0.0,0.0,0.0,0.0,0.0,-1.6667,-1.5206,-1.4314,-1.4166,-1.4088,-1.4496,-1.5394,-1.5861,-1.7131,0.0,0.0,0.0,0.0,0.0,0.0,0.0,0.0,0.0,0.0,0.0,0.0,0.0,0.0,0.0,0.0,0.0,0.0,0.0,0.0,0.0,0.0,0.0,0.0,0.0,0.0,0.0,0.0,0.0,0.0,0.0,0.0,0.0,0.0,0.0,0.0,0.0,0.0,0.0,0.0,0.0,-2.4801,-2.4801,-2.5265,-2.5606,0.0,0.0,-2.5606,-2.5606,-2.5465,-2.5453,-2.584,0.0,0.0,0.0,0.0,0.0,0.0,0.0,0.0,0.0,0.0,0.0,0.0,0.0,0.0,0.0,0.0,0.0,0.0,0.0,0.0,0.0,0.0,0.0,0.0,0.0,0.0,0.0,0.0,0.0,0.0,0.0,0.0,0.0,0.0,0.0,0.0,0.0,0.0,0.0,0.0,0.0,0.0,0.0,0.0,0.0,0.0,0.0,0.0,0.0,0.0,0.0,0.0,0.0,-1.6617,-1.6296,-1.4901,-1.4166,-1.4088,-1.4088,-1.4257,-1.4573,-1.5379,-1.6659,0.0,0.0,0.0,0.0,0.0,0.0,0.0,0.0,0.0,0.0,0.0,0.0,0.0,0.0,0.0,0.0,0.0,0.0,0.0,0.0,0.0,0.0,0.0,0.0,0.0,0.0,0.0,0.0,-2.2852,-2.311,-2.3869,0.0,0.0,0.0,0.0,0.0,0.0,0.0,0.0,0.0,0.0,-2.3897,-2.3519,-2.4299,0.0,0.0,-2.5229,-2.5606,-2.5606,-2.5548,-2.5606,-2.6062,-2.6062,0.0,0.0,0.0,0.0,0.0,0.0,0.0,0.0,0.0,0.0,0.0,0.0,0.0,0.0,0.0,0.0,0.0,0.0,0.0,0.0,0.0,0.0,0.0,0.0,0.0,0.0,0.0,0.0,0.0,0.0,0.0,0.0,0.0,0.0,0.0,0.0,0.0,0.0,0.0,0.0,0.0,0.0,0.0,0.0,0.0,0.0,0.0,0.0,0.0,0.0,0.0,0.0,-1.6378,-1.6139,-1.4824,-1.4088,-1.4088,-1.4088,-1.4088,-1.4088,-1.481,-1.5861,0.0,0.0,0.0,0.0,0.0,0.0,0.0,0.0,0.0,0.0,0.0,0.0,0.0,0.0,0.0,0.0,0.0,0.0,0.0,0.0,0.0,0.0,0.0,0.0,0.0,0.0,0.0,0.0,-2.3132,-2.3426,-2.4374,0.0,0.0,0.0,0.0,0.0,0.0,0.0,0.0,0.0,0.0,-2.3224,-2.3001,-2.3779,-2.4337,-2.4348,-2.5087,-2.5606,-2.5606,-2.5606,-2.5807,-2.6272,0.0,0.0,0.0,0.0,0.0,0.0,0.0,0.0,0.0,0.0,0.0,0.0,0.0,0.0,0.0,0.0,0.0,0.0,0.0,0.0,0.0,0.0,0.0,0.0,0.0,0.0,0.0,0.0,0.0,0.0,-1.8184,0.0,0.0,0.0,0.0,0.0,0.0,0.0,0.0,0.0,0.0,0.0,0.0,0.0,0.0,0.0,0.0,0.0,0.0,0.0,0.0,0.0,0.0,-1.6139,-1.6057,-1.4741,-1.4088,-1.4088,-1.4088,-1.4088,-1.4088,-1.4082,-1.465,-1.5786,0.0,0.0,0.0,0.0,0.0,0.0,0.0,0.0,0.0,0.0,0.0,0.0,0.0,0.0,0.0,0.0,0.0,0.0,0.0,0.0,0.0,0.0,0.0,0.0,0.0,0.0,-2.4597,-2.4636,-2.4623,0.0,0.0,0.0,0.0,0.0,0.0,0.0,0.0,0.0,0.0,-2.3075,-2.2927,-2.3446,-2.3841,-2.4276,-2.4897,-2.5336,-2.5618,-2.563,-2.5783,-2.6082,0.0,0.0,0.0,0.0,0.0,0.0,0.0,0.0,0.0,0.0,0.0,0.0,0.0,0.0,0.0,0.0,0.0,0.0,0.0,0.0,0.0,0.0,0.0,0.0,0.0,0.0,0.0,-1.7345,-1.7296,0.0,0.0,0.0,0.0,0.0,0.0,0.0,0.0,0.0,0.0,0.0,-1.7321,-1.7438,0.0,0.0,0.0,0.0,0.0,0.0,0.0,0.0,0.0,0.0,0.0,0.0,-1.6139,-1.6057,-1.4748,-1.4088,-1.4088,-1.4088,-1.4088,-1.4088,-1.4088,-1.4573,-1.5703,0.0,0.0,0.0,0.0,0.0,0.0,0.0,0.0,0.0,0.0,0.0,0.0,0.0,0.0,0.0,0.0,0.0,0.0,0.0,0.0,0.0,0.0,0.0,0.0,0.0,-2.3937,0.0,0.0,0.0,0.0,0.0,0.0,0.0,0.0,0.0,0.0,0.0,-2.415,-2.3297,-2.3123,-2.3001,-2.2852,-2.3361,-2.3717,0.0,0.0,0.0,0.0,0.0,0.0,0.0,0.0,0.0,0.0,0.0,0.0,0.0,0.0,-2.887,-2.9197,-2.9158,-2.922,-2.9419,0.0,0.0,0.0,0.0,0.0,0.0,0.0,0.0,0.0,0.0,0.0,0.0,0.0,0.0,-1.6968,0.0,-1.7133,0.0,0.0,0.0,0.0,0.0,0.0,0.0,0.0,-1.7253,-1.6846,-1.6437,-1.6437,-1.6445,0.0,-1.6609,-1.7269,0.0,0.0,0.0,0.0,0.0,0.0,0.0,0.0,-1.6139,-1.6057,-1.4741,-1.4088,-1.4088,-1.4088,-1.4088,-1.4088,-1.4088,-1.4412,-1.5137,-1.6495,-1.7848,0.0,0.0,0.0,0.0,0.0,0.0,0.0,0.0,0.0,0.0,0.0,0.0,0.0,0.0,0.0,0.0,0.0,0.0,0.0,0.0,0.0,0.0,0.0,-2.4226,0.0,0.0,0.0,0.0,0.0,0.0,0.0,0.0,0.0,-2.5602,-2.5029,-2.4328,-2.346,-2.3227,-2.3188,-2.3199,0.0,0.0,0.0,0.0,0.0,0.0,0.0,-2.7644,-2.799,-2.8089,-2.8188,-2.8645,-2.8885,-2.9143,-2.9143,0.0,0.0,-2.9275,-2.9197,-2.9143,-2.9143,-2.9143,-2.9143,-2.9143,-2.9143,-2.9143,0.0,0.0,0.0,0.0,0.0,0.0,0.0,0.0,-1.6075,-1.6683,0.0,-1.6846,0.0,0.0,0.0,0.0,0.0,-1.7269,0.0,0.0,-1.5061,-1.4573,-1.5311,-1.5394,-1.5394,-1.5394,-1.6206,-1.6453,-1.6386,-1.6542,0.0,0.0,0.0,0.0,0.0,0.0,-1.6057,-1.6057,-1.4741,-1.4088,-1.4088,-1.4088,-1.4088,-1.4088,-1.4088,-1.4088,-1.4166,-1.5289,-1.6413,-1.756,-1.9376,0.0,0.0,0.0,0.0,0.0,0.0,0.0,0.0,0.0,0.0,0.0,0.0,0.0,0.0,0.0,0.0,0.0,0.0,0.0,0.0,-2.4579,0.0,0.0,0.0,0.0,0.0,0.0,0.0,0.0,0.0,0.0,-2.5728,-2.506,-2.4399,-2.418,0.0,0.0,0.0,0.0,-2.4568,-2.5693,-2.6406,-2.6872,-2.6796,-2.7271,-2.7679,-2.8017,0.0,0.0,-2.8706,-2.8961,-2.9064,-2.9064,-2.8882,-2.8882,-2.904,-2.904,-2.9052,-2.9052,-2.9052,-2.9052,-2.9052,-2.9064,-2.9064,-1.2945,0.0,0.0,0.0,0.0,-1.4399,-1.4455,-1.4483,-1.4573,-1.5199,-1.5966,-1.5801,0.0,0.0,0.0,0.0,0.0,0.0,-1.637,-1.5884,-1.5318,-1.4817,-1.4496,-1.4496,-1.4496,-1.4496,-1.4741,-1.4831,-1.4748,-1.4824,-1.565,-1.7204,0.0,0.0,0.0,0.0,-1.5899,-1.5409,-1.4496,-1.4088,-1.4088,-1.4088,-1.4088,-1.4088,-1.4088,-1.4088,-1.4088,-1.4405,-1.5289,-1.6635,-1.7777,0.0,0.0,0.0,0.0,0.0,0.0,0.0,0.0,0.0,0.0,0.0,0.0,0.0,0.0,0.0,0.0,0.0,0.0,0.0,-2.4522,-2.4156,-2.4513,0.0,0.0,0.0,0.0,0.0,0.0,0.0,0.0,0.0,-2.5333,-2.5185,-2.5087,0.0,0.0,-2.4993,-2.5383,-2.4904,-2.4489,-2.4421,-2.5498,0.0,-2.5927,-2.7285,-2.848,-2.8717,-2.8651,-2.8621,-2.8767,-2.8724,-2.8669,-2.8669,-2.8578,-2.8578,-2.8657,-2.8669,-2.8669,-2.8657,-2.8669,-2.8669,-2.8657,-2.8669,-2.8669,-1.0611,-1.1563,-1.2796,-1.3212,-1.3049,-1.3043,-1.3231,-1.3522,-1.3438,-1.4119,-1.5242,-1.4985,-1.556,-1.6624,-1.669,0.0,0.0,0.0,-1.5643,-1.4901,-1.4901,-1.458,-1.4088,-1.4088,-1.4088,-1.4088,-1.4088,-1.4088,-1.4088,-1.4341,-1.5082,-1.6319,0.0,0.0,-1.6722,-1.6064,-1.5484,-1.5082,-1.4419,-1.4088,-1.4088,-1.4088,-1.4088,-1.4088,-1.4088,-1.4088,-1.4088,-1.4088,-1.465,-1.5928,-1.6651,-1.7937,0.0,0.0,0.0,0.0,0.0,0.0,0.0,0.0,0.0,0.0,0.0,-2.41,0.0,0.0,0.0,0.0,-2.413,-2.4329,-2.459,-2.4626,0.0,0.0,0.0,0.0,0.0,0.0,0.0,-2.6682,-2.5924,-2.5263,-2.5189,-2.5279,-2.5261,-2.5002,-2.5011,-2.5161,-2.5494,0.0,-2.4491,-2.4339,-2.5544,-2.63,-2.6116,-2.7519,-2.8736,-2.8816,-2.8816,-2.8657,-2.8657,-2.8578,-2.851,-2.851,-2.851,-2.851,-2.851,-2.851,-2.851,-2.851,-2.851,-2.851,-2.851,-2.851,-2.851,-0.8572,-0.8819,-1.1696,-1.2541,-1.2043,-1.1958,-1.2145,-1.2443,-1.2443,-1.3385,-1.4741,-1.425,-1.4824,-1.6229,-1.6229,0.0,-1.5318,-1.5082,-1.4678,-1.4088,-1.4088,-1.4088,-1.3997,-1.4088,-1.4082,-1.3997,-1.4082,-1.4088,-1.4166,-1.4664,-1.5006,-1.509,-1.509,-1.5492,-1.6057,-1.5499,-1.5173,-1.5166,-1.4503,-1.4173,-1.4088,-1.4088,-1.4088,-1.4088,-1.4088,-1.4088,-1.4088,-1.4088,-1.4503,-1.5228,-1.5928,-1.7058,-1.8736,0.0,0.0,0.0,0.0,0.0,0.0,0.0,0.0,0.0,0.0,0.0,0.0,0.0,0.0,0.0,-2.4263,0.0,-2.4454,-2.5577,0.0,0.0,0.0,-2.6753,-2.5902,-2.5735,-2.5652,-2.5484,0.0,0.0,-2.5105,-2.5105,-2.485,-2.4166,-2.4241,-2.4509,-2.5115,-2.4638,-2.4413,-2.4967,-2.5902,-2.6554,-2.6427,-2.7476,-2.8419,-2.851,-2.851,-2.851,-2.851,-2.851,-2.851,-2.851,-2.851,-2.851,-2.851,-2.851,-2.851,-2.851,-2.851,-2.851,-2.851,-2.851,-2.851,-0.8572,-0.8656,-0.9419,-0.9676,-0.9501,-0.9506,-0.9854,-1.0549,-1.0549,-1.1149,-1.2174,-1.2784,-1.3646,-1.4664,-1.4664,-1.458,-1.4419,-1.4334,-1.4257,-1.4088,-1.4088,-1.3743,-1.3045,-1.3743,-1.3737,-1.3137,-1.3737,-1.4088,-1.4088,-1.425,-1.4587,-1.509,-1.5242,-1.565,-1.6312,-1.6147,-1.5816,-1.5318,-1.5151,-1.4741,-1.4088,-1.4088,-1.4088,-1.4088,-1.4088,-1.4088,-1.4088,-1.4088,-1.4166,-1.4412,-1.5137,-1.6472,-1.8283,-1.9848,0.0,0.0,0.0,0.0,0.0,0.0,0.0,0.0,0.0,-2.4982,-2.5824,0.0,-2.5515,0.0,-2.4173,-2.3601,-2.3948,-2.4228,0.0,0.0,-2.5931,-2.608,-2.5819,-2.5242,-2.4988,-2.5484,-2.4904,-2.4488,-2.4413,-2.4423,-2.4155,-2.3484,-2.4251,-2.502,-2.52,-2.4594,-2.4241,-2.4413,-2.484,-2.5073,-2.5242,-2.6423,-2.7765,-2.8431,-2.851,-2.851,-2.851,-2.851,-2.851,-2.851,-2.851,-2.851,-2.851,-2.851,-2.851,-2.851,-2.851,-2.851,-2.851,-2.851,-2.851,-0.8388,-0.8572,-0.8476,-0.8476,-0.8572,-0.8572,-0.9082,-0.9854,-0.9854,-1.0463,-1.1327,-1.2272,-1.3222,-1.4088,-1.4088,-1.4088,-1.4088,-1.4088,-1.3913,-1.3483,-1.3476,-1.296,-1.21,-1.2619,-1.279,-1.2705,-1.3222,-1.3652,-1.4082,-1.4088,-1.4257,-1.4664,-1.4748,-1.5307,-1.611,-1.6604,-1.6521,-1.6103,-1.5837,-1.5319,-1.4562,-1.4476,-1.4729,-1.5312,-1.5312,-1.5562,-1.6067,-1.6067,-1.6152,-1.6144,-1.6653,-1.7644,-1.9094,-2.0428,-2.1947,0.0,0.0,0.0,0.0,0.0,0.0,0.0,0.0,0.0,0.0,0.0,-2.5596,-2.5676,-2.4545,-2.4002,-2.466,-2.4681,-2.487,-2.5221,-2.5242,-2.5073,-2.4648,-2.4155,-2.3983,-2.4402,-2.3983,-2.3734,-2.3734,-2.3744,-2.357,-2.3057,-2.3657,-2.409,-2.409,-2.382,-2.3647,-2.356,-2.4079,-2.4754,-2.5263,-2.6174,-2.7021,-2.7765,-2.8099,-2.8203,-2.8203,-2.8351,-2.8431,-2.8007,-2.8259,-2.8339,-2.8018,-2.8259,-2.851,-2.851,-2.851,-2.851,-2.851,-2.851,-2.851,-0.8186,-0.8545,-0.8355,-0.8448,-0.8633,-0.8637,-0.9046,-0.9685,-0.9772,-1.0294,-1.1154,-1.2015,-1.2875,-1.3737,-1.3835,-1.3822,-1.3743,-1.3828,-1.3392,-1.2534,-1.2534,-1.2015,-1.1154,-1.1241,-1.1757,-1.2534,-1.2619,-1.3215,-1.4088,-1.4088,-1.4193,-1.4311,-1.4135,-1.4781,-1.6007,-1.68,-1.7148,-1.7032,-1.6388,-1.5747,-1.5143,-1.5225,-1.5828,-1.677,-1.6851,-1.7375,-1.8423,-1.8501,-1.8596,-1.8587,-1.8845,-1.929,-2.0032,-2.1182,-2.23,0.0,-2.4501,0.0,0.0,0.0,0.0,0.0,0.0,0.0,0.0,-2.5421,-2.5568,-2.5663,-2.4914,-2.4744,-2.5411,-2.54,-2.5062,-2.4317,-2.4241,-2.3897,-2.3135,-2.3057,-2.3057,-2.3057,-2.3057,-2.3144,-2.3057,-2.3047,-2.2969,-2.2882,-2.2794,-2.2882,-2.2803,-2.2969,-2.3057,-2.2794,-2.356,-2.4488,-2.5589,-2.5935,-2.6091,-2.6846,-2.7267,-2.7638,-2.7719,-2.795,-2.7926,-2.7429,-2.7846,-2.8087,-2.7348,-2.7938,-2.8431,-2.851,-2.851,-2.851,-2.851,-2.851,-2.851,-0.8432,-0.8706,-0.8609,-0.8802,-0.8999,-0.8999,-0.8923,-0.8828,-0.8828,-0.934,-1.0202,-1.0376,-1.0977,-1.1843,-1.2619,-1.2534,-1.1843,-1.2613,-1.2443,-1.158,-1.1585,-1.1063,-1.0294,-1.0982,-1.1408,-1.158,-1.2357,-1.3222,-1.4088,-1.4088,-1.4464,-1.5197,-1.4561,-1.5217,-1.687,0.0,0.0,0.0,-1.6587,-1.6006,-1.5924,-1.6441,-1.6873,-1.7136,-1.7311,0.0,-1.766,-1.8094,-1.8345,-1.8345,-1.8596,0.0,0.0,0.0,0.0,0.0,0.0,0.0,0.0,0.0,0.0,0.0,-2.4829,-2.5073,-2.5158,-2.5495,-2.5484,-2.4829,-2.4584,-2.4155,-2.3484,-2.3396,-2.3212,-2.2872,-2.2784,-2.2706,-2.253,-2.2706,-2.2891,-2.2882,-2.2969,-2.3057,-2.2882,-2.2882,-2.2803,-2.2803,-2.2608,-2.252,-2.253,-2.2706,-2.2803,-2.2794,-2.2872,-2.3212,-2.4145,-2.4478,-2.4819,-2.5568,-2.5913,-2.6174,-2.661,-2.6682,-2.6846,-2.701,-2.7348,-2.7522,-2.7626,-2.7881,-2.803,-2.8443,-2.851,-2.851,-2.851,-2.851,-2.851,-0.834,0.0,-0.8711,-0.8897,0.0,-0.9096,-0.8999,-0.8828,-0.8828,-0.9362,-1.0164,-1.0159,-1.0696,-1.1588,-1.212,-1.2026,-1.1588,-1.212,-1.1854,-1.0964,-1.0875,-1.0433,-0.9543,-0.9989,-1.0428,-1.0964,-1.141,-1.2374,-1.3711,-1.3798,-1.395,-1.4445,-1.4059,-1.4193,-1.4838,-1.5213,-1.6132,-1.747,-1.6835,-1.638,-1.6014,-1.6281,-1.6828,-1.7372,-1.7552,0.0,0.0,0.0,0.0,0.0,0.0,0.0,0.0,0.0,0.0,-2.1621,-2.2532,-2.3163,-2.3464,-2.3464,-2.3387,-2.3115,-2.3299,-2.38,-2.4467,-2.4296,-2.3963,-2.3551,-2.3464,-2.3212,-2.2706,-2.2618,-2.2627,-2.2627,-2.253,-2.2441,-2.2539,-2.2618,-2.2618,-2.2618,-2.2706,-2.2706,-2.2627,-2.2618,-2.253,-2.2451,-2.2362,-2.2264,-2.2264,-2.2441,-2.2618,-2.2618,-2.2451,-2.253,-2.3299,-2.3464,-2.3714,-2.4478,-2.4808,-2.5168,-2.5421,-2.5589,-2.5735,-2.5997,-2.6174,-2.6423,-2.6539,-2.6704,-2.694,-2.7162,-2.751,-2.7846,-2.7846,-2.8179,-2.8351,-0.8339,-0.8717,-0.8804,-0.8993,-0.919,-0.9194,-0.919,-0.919,0.0,0.0,0.0,-1.0292,-1.0658,-1.139,-1.1574,-1.1579,-1.139,-1.1574,-1.1119,-1.0292,-1.0292,-0.9833,-0.9096,-0.9096,-0.9558,-1.0473,-1.0473,-1.139,-1.3115,-1.3115,-1.3138,-1.3179,-1.2997,-1.2755,-1.2436,-1.3605,-1.5248,-1.6951,-1.7037,-1.6669,-1.6021,-1.6109,-1.6669,-1.7692,-1.7785,-1.8326,-1.9231,-1.9405,-1.9397,-1.9405,-1.9662,-1.9654,-1.948,-1.9918,-2.0549,-2.1096,-2.1533,-2.1826,-2.2069,-2.2069,-2.1891,-2.1535,-2.182,-2.2441,-2.3464,-2.2862,-2.2441,-2.2441,-2.2441,-2.2353,-2.2353,-2.2353,-2.2441,-2.2618,-2.2441,-2.2353,-2.2539,-2.2441,-2.2353,-2.2353,-2.2344,-2.2353,-2.2353,-2.2353,-2.2264,-2.2185,-2.2097,-2.2008,-2.2097,-2.2185,-2.2353,-2.2353,-2.2185,-2.2274,-2.2706,-2.2794,-2.2872,-2.3377,-2.38,-2.4069,-2.4241,-2.4467,-2.4638,-2.4744,-2.4988,-2.5158,-2.5105,-2.5516,-2.5735,-2.5819,-2.667,-2.7267,-2.7185,-2.7684,-2.8099,-0.8557,-0.8856,-0.906,-0.9257,-0.9555,-0.9551,-0.9551,-0.9531,-0.923,-0.9194,-0.9283,-0.9283,-0.9372,-0.9558,-1.0385,-1.0292,-0.9554,-1.0288,-1.0195,-0.9283,-0.9283,-0.9189,-0.9096,-0.9096,-0.9554,-1.0473,-1.0473,-1.1022,-1.2032,-1.2129,-1.2221,-1.2307,-1.1571,-1.1582,-1.2667,-1.3788,-1.4867,-1.6015,-1.6669,-1.6951,-1.685,-1.7426,-1.79,-1.8079,-1.8156,-1.8334,-1.8519,-1.8956,-1.9131,-1.9131,-1.9405,-1.9039,-1.8141,-1.8764,-1.8948,-1.8048,-1.8772,-1.933,-1.933,-1.9338,-1.9786,-2.0692,-2.1356,-2.1998,-2.253,-2.253,-2.2441,-2.2441,-2.2353,-2.2353,-2.2176,-2.2097,-2.2097,-2.1919,-2.182,-2.182,-2.1919,-2.2097,-2.2097,-2.2097,-2.2274,-2.2353,-2.2185,-2.2185,-2.2097,-2.2097,-2.1919,-2.1731,-2.182,-2.2008,-2.2097,-2.2097,-2.1919,-2.182,-2.1998,-2.2097,-2.2274,-2.2264,-2.2432,-2.2784,-2.3222,-2.3212,-2.3377,-2.3877,-2.3963,-2.4135,-2.4498,-2.5084,-2.5495,-2.5841,-2.6704,-2.729,-2.661,-2.6928,-2.751,-0.873,-0.9031,-0.9331,-0.9529,-0.9624,-0.9624,-0.9624,-0.9612,-0.9458,-0.9384,-0.9384,-0.9384,-0.9384,-0.9384,-0.9857,-0.9765,-0.9384,-0.9861,-0.9765,-0.9384,-0.9384,-0.9384,-0.9384,-0.9384,-0.9573,-0.9949,-1.0049,-1.0519,-1.1462,-1.1557,-1.1607,-1.1606,-1.0651,-1.0409,-1.1077,-1.2052,-1.3119,-1.4082,-1.5622,-1.6292,-1.6393,-1.6676,-1.6864,-1.6864,-1.6951,-1.6943,-1.7037,-1.721,-1.7304,-1.7296,-1.7382,-1.721,-1.6756,-1.7124,-1.7304,-1.7326,-1.7699,-1.8241,-1.8788,-1.8796,-1.9063,-1.9604,-2.043,-2.0997,-2.1257,-2.1713,-2.1998,-2.2008,-2.1998,-2.2008,-2.1919,-2.1919,-2.1919,-2.1909,-2.183,-2.1731,-2.1919,-2.1919,-2.1919,-2.1919,-2.1909,-2.1998,-2.1919,-2.1919,-2.1919,-2.1919,-2.1741,-2.1731,-2.1731,-2.182,-2.1919,-2.1919,-2.183,-2.1731,-2.1731,-2.183,-2.183,-2.1919,-2.1919,-2.2008,-2.2353,-2.2264,-2.253,-2.3038,-2.3038,-2.329,-2.4069,-2.3973,-2.4145,-2.4669,-2.5253,-2.5495,-2.5326,-2.583,-2.6505,-0.9031,-0.9236,-0.9529,-0.9533,-0.9529,-0.9529,-0.9529,-0.9529,-0.9529,-0.9624,-0.9624,-0.9624,-0.9624,-0.9624,-0.9624,-0.9624,-0.9624,-0.9624,-0.9624,-0.9624,-0.9624,-0.9624,-0.9624,-0.9624,-0.9624,-0.9624,-0.9624,-1.0015,-1.0788,-1.0886,-1.0788,-1.0788,-1.0015,-0.9723,-1.001,-1.0788,-1.1755,-1.3119,-1.4669,-1.554,-1.5832,-1.5825,-1.5825,-1.5825,-1.5825,-1.5825,-1.5825,-1.5825,-1.5825,-1.5825,-1.5825,-1.5825,-1.5825,-1.5825,-1.6109,-1.6857,-1.6951,-1.7326,-1.8048,-1.8326,-1.8419,-1.8519,-1.943,-1.9977,-2.0068,-2.0817,-2.1454,-2.1642,-2.1731,-2.1731,-2.1731,-2.1741,-2.182,-2.1998,-2.182,-2.1741,-2.1919,-2.183,-2.1731,-2.1731,-2.1731,-2.1731,-2.1731,-2.1731,-2.1731,-2.1731,-2.1731,-2.1731,-2.1731,-2.1731,-2.1731,-2.1731,-2.1731,-2.1731,-2.1731,-2.1731,-2.1741,-2.1731,-2.1731,-2.1731,-2.182,-2.1731,-2.1909,-2.2441,-2.2274,-2.2432,-2.3299,-2.3125,-2.2872,-2.3396,-2.4069,-2.4317,-2.4221,-2.4734,-2.5484,-0.9137,-0.9236,-0.943,-0.943,-0.9236,-0.9236,-0.9236,-0.9232,-0.9529,-0.9624,-0.9624,-0.9624,-0.9624,-0.9624,-0.9624,-0.9624,-0.9624,-0.9624,-0.9624,-0.9624,-0.9624,-0.9624,-0.9624,-0.9624,-0.9624,-0.9624,-0.9624,-0.9723,-0.9821,-0.9817,-0.9817,-0.9723,-0.9628,-1.0113,-1.0881,-1.1077,-1.215,-1.41,-1.4298,-1.4873,-1.573,-1.5825,-1.5825,-1.5825,-1.5825,-1.5825,-1.5825,-1.5825,-1.5825,-1.5825,-1.5825,-1.5825,-1.5825,-1.5825,-1.5825,-1.592,-1.592,-1.6015,-1.6109,-1.6951,-1.7419,-1.7512,-1.8334,-1.8972,-1.8972,-1.9886,-2.0799,-2.1454,-2.1642,-2.1731,-2.1731,-2.1731,-2.1731,-2.1731,-2.1741,-2.1731,-2.1731,-2.1731,-2.1731,-2.1731,-2.1731,-2.1731,-2.1731,-2.1731,-2.1731,-2.1731,-2.1731,-2.1731,-2.1731,-2.1731,-2.1731,-2.1731,-2.1731,-2.1731,-2.1731,-2.1731,-2.1731,-2.1731,-2.1731,-2.1731,-2.1731,-2.1731,-2.1731,-2.1919,-2.183,-2.1909,-2.2176,-2.2264,-2.2706,-2.2969,-2.356,-2.4231,-2.3973,-2.3973,-2.4392,-0.823,-0.8931,-0.9126,-0.9126,-0.9236,-0.9137,-0.9335,-0.943,-0.9529,-0.9624,-0.9624,-0.9624,-0.9624,-0.9624,-0.9624,-0.9624,-0.9624,-0.9624,-0.9624,-0.9624,-0.9624,-0.9624,-0.9624,-0.9624,-0.9624,-0.9624,-0.9624,-0.9624,-0.9624,-0.9624,-0.9624,-0.9624,-0.9624,-0.9821,-1.0207,-1.0207,-1.0984,-1.2441,-1.3022,-1.3896,-1.4867,-1.554,-1.5825,-1.5825,-1.5825,-1.5825,-1.5825,-1.5825,-1.5825,-1.5825,-1.5825,-1.5825,-1.5825,-1.5825,-1.5825,-1.5825,-1.5825,-1.5825,-1.5825,-1.6204,-1.6386,-1.6393,-1.7318,-1.787,-1.7971,-1.9338,-2.0439,-2.0808,-2.1365,-2.1731,-2.1731,-2.1731,-2.1731,-2.1731,-2.1731,-2.1731,-2.1731,-2.1731,-2.1731,-2.1731,-2.1731,-2.1731,-2.1731,-2.1731,-2.1731,-2.1731,-2.1731,-2.1731,-2.1731,-2.1731,-2.1731,-2.1731,-2.1731,-2.1731,-2.1731,-2.1731,-2.1731,-2.1731,-2.1731,-2.1731,-2.1731,-2.1731,-2.1731,-2.1731,-2.1731,-2.1909,-2.2353,-2.2097,-2.2264,-2.2618,-2.2618,-2.3038,-2.295,-2.295,-2.329,-0.7226,-0.8322,-0.8623,-0.8931,-0.9133,-0.9137,-0.9331,-0.9529,-0.9529,-0.9624,-0.9624,-0.9624,-0.9624,-0.9624,-0.9624,-0.9624,-0.9624,-0.9624,-0.9624,-0.9624,-0.9624,-0.9624,-0.9624,-0.9624,-0.9624,-0.9624,-0.9624,-0.9624,-0.9624,-0.9624,-0.9624,-0.9624,-0.9624,-0.9624,-0.9624,-0.9624,-1.0113,-1.1175,-1.195,-1.2823,-1.3806,-1.4867,-1.554,-1.573,-1.5825,-1.5825,-1.5825,-1.5825,-1.5825,-1.5825,-1.5825,-1.5825,-1.5825,-1.5825,-1.5825,-1.5825,-1.5825,-1.5825,-1.5825,-1.5825,-1.5825,-1.5825,-1.6487,-1.6857,-1.7225,-1.8696,-1.9795,-1.9977,-2.0997,-2.1731,-2.1731,-2.1731,-2.1731,-2.1731,-2.1731,-2.1731,-2.1731,-2.1731,-2.1731,-2.1731,-2.1731,-2.1731,-2.1731,-2.1731,-2.1731,-2.1731,-2.1731,-2.1731,-2.1731,-2.1731,-2.1731,-2.1731,-2.1731,-2.1731,-2.1731,-2.1731,-2.1731,-2.1731,-2.1731,-2.1731,-2.1731,-2.1731,-2.1731,-2.1731,-2.1731,-2.1731,-2.2087,-2.1919,-2.183,-2.2185,-2.2274,-2.2087,-2.2264,-2.2264,-2.2264,-0.6323,-0.7322,-0.8421,-0.8825,-0.8829,-0.9133,-0.9236,-0.9335,-0.9529,-0.9624,-0.9624,-0.9624,-0.9624,-0.9624,-0.9624,-0.9624,-0.9624,-0.9624,-0.9624,-0.9624,-0.9624,-0.9624,-0.9624,-0.9624,-0.9624,-0.9624,-0.9624,-0.9624,-0.9624,-0.9624,-0.9624,-0.9624,-0.9624,-0.9624,-0.9624,-0.9624,-1.0109,-1.0979,-1.1272,-1.1755,-1.2727,-1.3806,-1.4771,-1.5635,-1.5825,-1.5825,-1.5825,-1.5825,-1.5825,-1.5825,-1.5825,-1.5825,-1.5825,-1.5825,-1.5825,-1.5825,-1.5825,-1.5825,-1.5825,-1.5825,-1.5825,-1.5825,-1.592,-1.5927,-1.6103,-1.7777,-1.888,-1.888,-2.0546,-2.1553,-2.1731,-2.1731,-2.1731,-2.1731,-2.1731,-2.1731,-2.1731,-2.1731,-2.1731,-2.1731,-2.1731,-2.1731,-2.1731,-2.1731,-2.1731,-2.1731,-2.1731,-2.1731,-2.1731,-2.1731,-2.1731,-2.1731,-2.1731,-2.1731,-2.1731,-2.1731,-2.1731,-2.1731,-2.1731,-2.1731,-2.1731,-2.1731,-2.1731,-2.1731,-2.1731,-2.1731,-2.1731,-2.1731,-2.1731,-2.182,-2.1909,-2.182,-2.1909,-2.182,-2.182,-0.5127,-0.683,-0.8028,-0.8627,-0.8829,-0.9133,-0.9335,-0.9426,-0.9533,-0.9624,-0.9624,-0.9624,-0.9624,-0.9624,-0.9624,-0.9624,-0.9624,-0.9624,-0.9624,-0.9624,-0.9624,-0.9624,-0.9624,-0.9624,-0.9624,-0.9624,-0.9624,-0.9624,-0.9624,-0.9624,-0.9624,-0.9624,-0.9624,-0.9624,-0.9624,-0.9624,-0.9821,-1.0212,-1.0783,-1.137,-1.1755,-1.2732,-1.38,-1.4771,-1.5445,-1.5825,-1.5825,-1.5825,-1.5825,-1.5825,-1.5825,-1.5825,-1.5825,-1.5825,-1.5825,-1.5825,-1.5825,-1.5825,-1.5825,-1.5825,-1.5825,-1.5825,-1.5825,-1.5825,-1.6015,-1.7037,-1.8056,-1.8888,-1.9985,-2.0997,-2.1553,-2.1731,-2.1731,-2.1731,-2.1731,-2.1731,-2.1731,-2.1731,-2.1731,-2.1731,-2.1731,-2.1731,-2.1731,-2.1731,-2.1731,-2.1731,-2.1731,-2.1731,-2.1731,-2.1731,-2.1731,-2.1731,-2.1731,-2.1731,-2.1731,-2.1731,-2.1731,-2.1731,-2.1731,-2.1731,-2.1731,-2.1731,-2.1731,-2.1731,-2.1731,-2.1731,-2.1731,-2.1731,-2.1731,-2.1731,-2.1731,-2.1731,-2.1731,-2.1731,-2.1731,-0.4227,-0.5932,-0.7332,-0.8226,-0.8829,-0.9133,-0.9331,-0.9628,-0.9624,-0.9624,-0.9624,-0.9624,-0.9624,-0.9624,-0.9624,-0.9624,-0.9624,-0.9624,-0.9624,-0.9624,-0.9624,-0.9624,-0.9624,-0.9624,-0.9624,-0.9624,-0.9624,-0.9624,-0.9624,-0.9624,-0.9624,-0.9624,-0.9624,-0.9624,-0.9624,-0.9624,-0.9624,-0.9723,-1.0306,-1.069,-1.0788,-1.1658,-1.2732,-1.3709,-1.4765,-1.5452,-1.573,-1.5825,-1.5825,-1.5825,-1.5825,-1.5825,-1.5825,-1.5825,-1.5825,-1.5825,-1.5825,-1.5825,-1.5825,-1.5825,-1.5825,-1.5825,-1.5825,-1.5825,-1.592,-1.677,-1.7692,-1.8696,-1.9704,-2.0709,-2.1454,-2.1731,-2.1731,-2.1731,-2.1731,-2.1731,-2.1731,-2.1731,-2.1731,-2.1731,-2.1731,-2.1731,-2.1731,-2.1731,-2.1731,-2.1731,-2.1731,-2.1731,-2.1731,-2.1731,-2.1731,-2.1731,-2.1731,-2.1731,-2.1731,-2.1731,-2.1731,-2.1731,-2.1731,-2.1731,-2.1731,-2.1731,-2.1731,-2.1731,-2.1741,-2.1741,-2.1741,-2.1741,-2.1759,-2.1768,-2.1731,-2.1731,-2.1731,-2.1731,-2.1796,-0.383,-0.4933,-0.6229,-0.7637,-0.8627,-0.9034,-0.9331,-0.9529,-0.9624,-0.9624,-0.9624,-0.9624,-0.9624,-0.9624,-0.9624,-0.9624,-0.9624,-0.9624,-0.9624,-0.9624,-0.9624,-0.9624,-0.9624,-0.9624,-0.9624,-0.9624,-0.9624,-0.9624,-0.9624,-0.9624,-0.9624,-0.9624,-0.9624,-0.9624,-0.9624,-0.9624,-0.9624,-0.9624,-0.9723,-0.9723,-0.9723,-1.069,-1.1658,-1.2732,-1.3709,-1.4771,-1.5635,-1.573,-1.5825,-1.5825,-1.5825,-1.5825,-1.5825,-1.5825,-1.5825,-1.5825,-1.5825,-1.5825,-1.5825,-1.5825,-1.5825,-1.5825,-1.5825,-1.5825,-1.592,-1.6574,-1.7598,-1.8519,-1.9521,-2.0619,-2.1365,-2.1642,-2.1731,-2.1731,-2.1731,-2.1731,-2.1731,-2.1731,-2.1731,-2.1731,-2.1731,-2.1731,-2.1731,-2.1731,-2.1731,-2.1731,-2.1731,-2.1731,-2.1731,-2.1731,-2.1731,-2.1731,-2.1731,-2.1731,-2.1731,-2.1731,-2.1731,-2.1731,-2.1731,-2.1731,-2.1731,-2.1731,-2.1731,-2.1741,-2.1896,-2.1906,-2.1961,-2.197,-2.2043,-2.2034,-2.1915,-2.1933,-2.2025,-2.2089,-2.1988,-0.3427,-0.4002,-0.6243,-0.7308,-0.7829,-0.8924,-0.9529,-0.9624,-0.9624,-0.9624,-0.9624,-0.9624,-0.9624,-0.9624,-0.9624,-0.9624,-0.9624,-0.9624,-0.9624,-0.9624,-0.9624,-0.9624,-0.9624,-0.9624,-0.9624,-0.9624,-0.9624,-0.9624,-0.9624,-0.9624,-0.9624,-0.9624,-0.9624,-0.9624,-0.9624,-0.9624,-0.9624,-0.9624,-0.9624,-0.9624,-0.9624,-0.9916,-1.0596,-1.1658,-1.2635,-1.3703,-1.4682,-1.5445,-1.5825,-1.5825,-1.5825,-1.5825,-1.5825,-1.5825,-1.5825,-1.5825,-1.5825,-1.5825,-1.5825,-1.5825,-1.5825,-1.5825,-1.5825,-1.5825,-1.5825,-1.6109,-1.6763,-1.7692,-1.8703,-1.9613,-2.0538,-2.1365,-2.1553,-2.1731,-2.1731,-2.1731,-2.1731,-2.1731,-2.1731,-2.1731,-2.1731,-2.1731,-2.1731,-2.1731,-2.1731,-2.1731,-2.1731,-2.1731,-2.1731,-2.1731,-2.1731,-2.1731,-2.1731,-2.1731,-2.1731,-2.1731,-2.1731,-2.1731,-2.1731,-2.1731,-2.1731,-2.1823,-2.1805,-2.1915,-2.2052,-2.2135,-2.219,-2.2263,-2.2355,-2.2391,-2.2437,-2.2455,-2.2473,-2.24,-2.2382,-0.3173,-0.3664,-0.5428,-0.6733,-0.7569,-0.8542,-0.9222,-0.9614,-0.9652,-0.9628,-0.9624,-0.9624,-0.9624,-0.9624,-0.9624,-0.9624,-0.9624,-0.9624,-0.9624,-0.9624,-0.9624,-0.9624,-0.9624,-0.9624,-0.9624,-0.9624,-0.9624,-0.9624,-0.9624,-0.9624,-0.9624,-0.9624,-0.9624,-0.9624,-0.9624,-0.9624,-0.9624,-0.9624,-0.9624,-0.9624,-0.9624,-0.9624,-1.0109,-1.1077,-1.1853,-1.2829,-1.4196,-1.4873,-1.5445,-1.573,-1.5825,-1.5825,-1.5825,-1.5825,-1.5825,-1.5825,-1.5825,-1.5825,-1.5825,-1.5825,-1.5825,-1.5825,-1.5825,-1.5825,-1.5825,-1.5825,-1.6298,-1.7232,-1.7878,-1.8796,-2.0068,-2.0348,-2.0817,-2.1177,-2.1544,-2.1642,-2.1731,-2.1731,-2.1731,-2.1731,-2.1731,-2.1731,-2.1731,-2.1731,-2.1731,-2.1731,-2.1731,-2.1731,-2.1731,-2.1731,-2.1731,-2.1731,-2.1731,-2.1731,-2.1731,-2.1731,-2.1731,-2.1731,-2.1731,-2.1731,-2.1731,-2.1961,-2.2052,-2.2327,-2.2511,-2.2547,-2.2593,-2.2601,-2.2701,-2.2848,-2.2939,-2.2784,-2.2692,-2.2729,-2.2665,-0.2777,-0.3732,-0.4153,-0.5728,-0.7697,-0.7904,-0.8663,-0.975,-0.9726,-0.9644,-0.9632,-0.9624,-0.9624,-0.9624,-0.9624,-0.9624,-0.9624,-0.9624,-0.9624,-0.9624,-0.9624,-0.9624,-0.9624,-0.9624,-0.9624,-0.9624,-0.9624,-0.9624,-0.9624,-0.9624,-0.9624,-0.9624,-0.9624,-0.9624,-0.9624,-0.9624,-0.9624,-0.9624,-0.9624,-0.9624,-0.9624,-0.9624,-1.0015,-1.0979,-1.1268,-1.215,-1.3511,-1.4196,-1.4873,-1.5635,-1.5825,-1.5825,-1.5825,-1.5825,-1.5825,-1.5825,-1.5825,-1.5825,-1.5825,-1.5825,-1.5825,-1.5825,-1.5825,-1.5825,-1.5825,-1.5825,-1.6116,-1.6951,-1.7326,-1.8064,-1.9347,-1.9521,-1.943,-2.0167,-2.0808,-2.1186,-2.1553,-2.1463,-2.1186,-2.1284,-2.1553,-2.1553,-2.1553,-2.1553,-2.1731,-2.1731,-2.1731,-2.1731,-2.1731,-2.1731,-2.1731,-2.1731,-2.1731,-2.1731,-2.1741,-2.1942,-2.1951,-2.1997,-2.1997,-2.2034,-2.1988,-2.219,-2.2382,-2.2667,-2.2933,-2.2866,-2.2948,-2.3058,-2.3217,-2.3308,-2.3253,-2.3061,-2.3088,-2.3226,-2.3253,-0.2308,-0.2715,-0.4008,-0.5367,-0.689,-0.7802,-0.877,-0.9786,-0.9843,-0.9738,-0.9652,-0.9624,-0.9624,-0.9624,-0.9624,-0.9624,-0.9624,-0.9624,-0.9624,-0.9624,-0.9624,-0.9624,-0.9624,-0.9624,-0.9624,-0.9624,-0.9624,-0.9624,-0.9624,-0.9624,-0.9624,-0.9624,-0.9624,-0.9624,-0.9624,-0.9624,-0.9624,-0.9624,-0.9624,-0.9624,-0.9624,-0.9624,-0.9723,-1.001,-1.0783,-1.1468,-1.2145,-1.3511,-1.4777,-1.573,-1.5825,-1.5825,-1.5825,-1.5825,-1.5825,-1.5825,-1.5825,-1.5825,-1.5825,-1.5825,-1.5825,-1.5825,-1.5825,-1.5825,-1.5825,-1.5825,-1.592,-1.6298,-1.677,-1.7505,-1.8056,-1.8511,-1.888,-1.9163,-1.943,-1.9886,-2.0348,-1.9985,-1.9621,-1.9621,-2.0257,-2.0628,-2.0907,-2.1275,-2.1642,-2.1731,-2.1731,-2.1731,-2.1731,-2.1731,-2.1731,-2.1731,-2.1731,-2.1731,-2.1805,-2.2043,-2.2199,-2.2282,-2.2382,-2.2547,-2.2511,-2.2566,-2.2637,-2.282,-2.3263,-2.3382,-2.351,-2.3639,-2.3675,-2.3666,-2.3703,-2.3648,-2.3767,-2.3886,-2.384,-0.2454,-0.2543,-0.3642,-0.482,-0.607,-0.7206,-0.8411,-0.9361,-0.9737,-0.9831,-0.9734,-0.9652,-0.9628,-0.9624,-0.9624,-0.9624,-0.9624,-0.9624,-0.9624,-0.9624,-0.9624,-0.9624,-0.9624,-0.9624,-0.9624,-0.9624,-0.9624,-0.9624,-0.9624,-0.9624,-0.9624,-0.9624,-0.9624,-0.9624,-0.9624,-0.9624,-0.9624,-0.9624,-0.9624,-0.9624,-0.9624,-0.9624,-0.9628,-0.9723,-1.0306,-1.0788,-1.1853,-1.38,-1.5064,-1.5255,-1.554,-1.5825,-1.5825,-1.5825,-1.5825,-1.5825,-1.5825,-1.5825,-1.5825,-1.5825,-1.5825,-1.5825,-1.5825,-1.5825,-1.5825,-1.5825,-1.5825,-1.592,-1.6393,-1.6857,-1.7326,-1.7878,-1.8156,-1.8149,-1.7777,-1.8141,-1.9513,-1.9247,-1.8888,-1.9072,-1.9613,-2.0249,-2.0339,-2.1087,-2.1553,-2.1731,-2.1731,-2.1731,-2.1731,-2.1731,-2.1759,-2.1786,-2.1823,-2.1851,-2.2016,-2.2254,-2.2566,-2.2657,-2.2868,-2.3024,-2.3033,-2.3033,-2.3208,-2.34,-2.3639,-2.3804,-2.3877,-2.395,-2.3978,-2.4005,-2.4143,-2.4161,-2.4161,-2.4161,-2.4161,-0.2693,-0.2806,-0.3363,-0.4255,-0.5462,-0.6488,-0.7723,-0.8738,-0.9684,-0.9937,-0.9851,-0.9717,-0.9661,-0.9628,-0.9624,-0.9624,-0.9624,-0.9624,-0.9624,-0.9624,-0.9624,-0.9624,-0.9624,-0.9624,-0.9624,-0.9624,-0.9624,-0.9624,-0.9624,-0.9624,-0.9624,-0.9624,-0.9624,-0.9624,-0.9624,-0.9624,-0.9624,-0.9624,-0.9624,-0.9624,-0.964,-0.9661,-0.9689,-0.9685,-0.9685,-1.0726,-1.2257,-1.4082,-1.4962,-1.4298,-1.5255,-1.573,-1.5825,-1.5825,-1.5825,-1.5825,-1.5825,-1.5825,-1.5825,-1.5825,-1.5825,-1.5825,-1.5825,-1.5825,-1.5825,-1.5825,-1.5825,-1.5825,-1.5825,-1.6298,-1.6857,-1.7138,-1.7138,-1.7037,-1.6386,-1.685,-1.7963,-1.8519,-1.8519,-1.8519,-1.9338,-1.9886,-2.0339,-2.0898,-2.1544,-2.1731,-2.1731,-2.1731,-2.1731,-2.1731,-2.1805,-2.1906,-2.1951,-2.2006,-2.2226,-2.2483,-2.2823,-2.3088,-2.3382,-2.3556,-2.3556,-2.3602,-2.3776,-2.3941,-2.395,-2.3987,-2.406,-2.4125,-2.4161,-2.4161,-2.4161,-2.4161,-2.4161,-2.4161,-2.4161,-0.2468,-0.2693,-0.3027,-0.4032,-0.5479,-0.6564,-0.7704,-0.8693,-0.9811,-1.014,-0.9933,-0.9843,-0.9758,-0.964,-0.9661,-0.9624,-0.9657,-0.9657,-0.9624,-0.9624,-0.9624,-0.9628,-0.964,-0.9657,-0.9636,-0.9632,-0.9624,-0.9624,-0.9624,-0.9624,-0.9624,-0.9624,-0.9624,-0.9624,-0.9624,-0.9624,-0.9628,-0.9628,-0.9632,-0.9648,-0.9689,-0.9774,-0.9831,-0.9827,-0.9831,-1.0441,-1.1497,-1.2727,-1.3607,-1.4388,-1.5255,-1.5825,-1.5825,-1.5825,-1.5825,-1.5825,-1.5825,-1.5825,-1.5825,-1.5825,-1.5825,-1.5825,-1.5825,-1.5825,-1.5825,-1.5825,-1.5825,-1.5825,-1.5825,-1.592,-1.6204,-1.6204,-1.6204,-1.6204,-1.6015,-1.6021,-1.6386,-1.6473,-1.6662,-1.6756,-1.7505,-1.8249,-1.9072,-1.9977,-2.0718,-2.1454,-2.1642,-2.1642,-2.1759,-2.1786,-2.1961,-2.2144,-2.2236,-2.2355,-2.2694,-2.296,-2.3272,-2.3483,-2.3739,-2.3904,-2.3904,-2.3932,-2.4015,-2.4079,-2.4115,-2.4161,-2.4161,-2.4161,-2.4161,-2.4161,-2.4161,-2.4161,-2.4161,-2.4161,-2.4161,-0.2581,-0.2806,-0.3139,-0.381,-0.4814,-0.6364,-0.7433,-0.8243,-0.9704,-1.0327,-1.0156,-1.0063,-0.9965,-0.988,-0.9876,-0.9884,-0.988,-0.988,-0.988,-0.9888,-0.9884,-0.9884,-0.988,-0.9851,-0.9815,-0.9669,-0.9624,-0.9624,-0.9624,-0.9632,-0.9624,-0.9624,-0.9628,-0.9624,-0.9624,-0.9636,-0.9677,-0.9742,-0.975,-0.9782,-0.9884,-0.9957,-1.0014,-1.0215,-1.0412,-1.0932,-1.135,-1.2894,-1.3716,-1.4424,-1.5255,-1.5825,-1.5825,-1.5825,-1.5825,-1.5825,-1.5825,-1.5825,-1.5825,-1.5825,-1.5825,-1.5825,-1.5825,-1.5825,-1.5825,-1.5825,-1.5825,-1.5825,-1.5825,-1.5825,-1.5825,-1.5825,-1.5825,-1.5825,-1.5825,-1.5825,-1.5825,-1.5825,-1.5825,-1.6015,-1.6763,-1.7412,-1.8241,-1.9063,-1.9911,-2.0663,-2.1032,-2.105,-2.2061,-2.2126,-2.2318,-2.2483,-2.2575,-2.2777,-2.3162,-2.3483,-2.3785,-2.3904,-2.3987,-2.406,-2.406,-2.4097,-2.4143,-2.4161,-2.4161,-2.4161,-2.4161,-2.4161,-2.4161,-2.4161,-2.4161,-2.4161,-2.4161,-2.4161,-2.4161,-0.2693,-0.2806,-0.3253,-0.3587,-0.3921,-0.5922,-0.6805,-0.7122,-0.9222,-1.0023,-1.019,-1.0152,-1.0176,-1.0152,-1.0132,-1.0152,-1.0148,-1.014,-1.0099,-1.0099,-1.0099,-1.0099,-1.0107,-1.0079,-0.9994,-0.973,-0.9746,-0.9738,-0.9693,-0.9661,-0.9673,-0.9644,-0.9669,-0.9693,-0.9677,-0.9713,-0.9803,-0.9916,-0.9933,-0.9977,-1.0111,-1.0168,-1.0201,-1.041,-1.0819,-1.1339,-1.1774,-1.3082,-1.4276,-1.437,-1.528,-1.5737,-1.5825,-1.5825,-1.5825,-1.5825,-1.5825,-1.5825,-1.5825,-1.5825,-1.5825,-1.5825,-1.5825,-1.5825,-1.5825,-1.5825,-1.5825,-1.5825,-1.5825,-1.5825,-1.5825,-1.5825,-1.5825,-1.5825,-1.5825,-1.5825,-1.5825,-1.5825,-1.5825,-1.592,-1.6298,-1.6857,-1.7505,-1.8241,-1.9096,-1.987,-2.0161,-2.0737,-2.1677,-2.2474,-2.2583,-2.2878,-2.2988,-2.3208,-2.3574,-2.3712,-2.4042,-2.4106,-2.4161,-2.4161,-2.4161,-2.4161,-2.4161,-2.4161,-2.4161,-2.4161,-2.4161,-2.4161,-2.4161,-2.4161,-2.4161,-2.4161,-2.4161,-2.4161,-2.4161,-0.2805,-0.3026,-0.3138,-0.3362,-0.381,-0.5146,-0.5815,-0.6035,-0.8222,-0.9138,-0.9244,-0.9968,-1.031,-1.0217,-1.0168,-1.0168,-1.0209,-1.0225,-1.0209,-1.0205,-1.0205,-1.0209,-1.0221,-1.0229,-1.0148,-1.0099,-1.0067,-1.0006,-0.9872,-0.9839,-0.9791,-0.9701,-0.9778,-0.9839,-0.9888,-0.9981,-1.0046,-1.0103,-1.0119,-1.0156,-1.0225,-1.0327,-1.0387,-1.0391,-1.0703,-1.1019,-1.1667,-1.2607,-1.3667,-1.4502,-1.5377,-1.5668,-1.5825,-1.5825,-1.5825,-1.5825,-1.5825,-1.5825,-1.5825,-1.5825,-1.5825,-1.5825,-1.5825,-1.5825,-1.5825,-1.5825,-1.5825,-1.5825,-1.5825,-1.5825,-1.5825,-1.5825,-1.5825,-1.5825,-1.5825,-1.5825,-1.5825,-1.5825,-1.5825,-1.5825,-1.6109,-1.6298,-1.6864,-1.7391,-1.8145,-1.909,-1.9662,-2.0508,-2.1483,-2.2321,-2.2844,-2.314,-2.3437,-2.3694,-2.3987,-2.4015,-2.4134,-2.4134,-2.4161,-2.4161,-2.4161,-2.4161,-2.4161,-2.4161,-2.4161,-2.4161,-2.4161,-2.4161,-2.4161,-2.4161,-2.4161,-2.4161,-2.4161,-2.4161,-2.4161,-0.2805,-0.3025,-0.325,-0.3475,-0.381,-0.4927,-0.5704,-0.6478,-0.814,-0.9212,-0.9708,-1.0341,-1.0526,-1.0452,-1.0436,-1.0436,-1.0428,-1.0436,-1.0436,-1.0436,-1.0436,-1.0436,-1.0424,-1.0428,-1.0436,-1.0436,-1.0424,-1.0278,-1.005,-1.003,-0.9969,-0.9953,-0.9998,-1.0026,-1.0042,-1.0103,-1.0221,-1.027,-1.0306,-1.0347,-1.0416,-1.0534,-1.0558,-1.0566,-1.055,-1.0683,-1.1059,-1.1997,-1.2822,-1.3723,-1.4655,-1.53,-1.5688,-1.5825,-1.5825,-1.5825,-1.5825,-1.5825,-1.5825,-1.5825,-1.5825,-1.5825,-1.5825,-1.5825,-1.5825,-1.5825,-1.5825,-1.5825,-1.5825,-1.5825,-1.5825,-1.5825,-1.5825,-1.5825,-1.5825,-1.5825,-1.5825,-1.5825,-1.5825,-1.5825,-1.592,-1.6123,-1.6245,-1.6802,-1.734,-1.8162,-1.9104,-2.0143,-2.124,-2.1933,-2.2611,-2.3293,-2.3572,-2.3779,-2.4097,-2.4125,-2.4161,-2.4161,-2.4161,-2.4161,-2.4161,-2.4161,-2.4161,-2.4161,-2.4161,-2.4161,-2.4161,-2.4161,-2.4161,-2.4161,-2.4161,-2.4161,-2.4161,-2.4161,-2.4161,-0.3027,-0.3138,-0.3475,-0.3587,-0.3811,-0.4592,-0.5479,-0.6586,-0.7922,-0.8916,-0.9915,-1.0464,-1.068,-1.0684,-1.068,-1.068,-1.0692,-1.0676,-1.0664,-1.0655,-1.0655,-1.0676,-1.0684,-1.0692,-1.066,-1.0623,-1.0639,-1.0526,-1.0274,-1.0217,-1.0197,-1.0152,-1.0172,-1.0217,-1.0225,-1.029,-1.0367,-1.0436,-1.0493,-1.057,-1.066,-1.0692,-1.0692,-1.0692,-1.0692,-1.0615,-1.0712,-1.1571,-1.2452,-1.3335,-1.4138,-1.4973,-1.5761,-1.5865,-1.5832,-1.5825,-1.5825,-1.5825,-1.5825,-1.5825,-1.5825,-1.5825,-1.5825,-1.5825,-1.5825,-1.5825,-1.5825,-1.5825,-1.5825,-1.5825,-1.5825,-1.5825,-1.5825,-1.5825,-1.5825,-1.5825,-1.5825,-1.5825,-1.5825,-1.5825,-1.5825,-1.5994,-1.6177,-1.6375,-1.6926,-1.7668,-1.8624,-1.9414,-2.0468,-2.1246,-2.2051,-2.3134,-2.3665,-2.3764,-2.4035,-2.4134,-2.4161,-2.4161,-2.4161,-2.4161,-2.4161,-2.4161,-2.4161,-2.4161,-2.4161,-2.4161,-2.4161,-2.4161,-2.4161,-2.4161,-2.4161,-2.4161,-2.4161,-2.4161,-2.4161,-0.3475,-0.3587,-0.3587,-0.3587,-0.3587,-0.3811,-0.3921,-0.4479,-0.6475,-0.736,-0.814,-0.9691,-1.0578,-1.0692,-1.0692,-1.0692,-1.0692,-1.0692,-1.0692,-1.0692,-1.0692,-1.0692,-1.0692,-1.0692,-1.0692,-1.0692,-1.0692,-1.0586,-1.044,-1.04,-1.0327,-1.0253,-1.0347,-1.0404,-1.0412,-1.0497,-1.0635,-1.0651,-1.0655,-1.0668,-1.0684,-1.0692,-1.0692,-1.0692,-1.0688,-1.0676,-1.0724,-1.1482,-1.2279,-1.3341,-1.4194,-1.5091,-1.5978,-1.5952,-1.5852,-1.5825,-1.5825,-1.5825,-1.5825,-1.5825,-1.5825,-1.5825,-1.5825,-1.5825,-1.5825,-1.5825,-1.5825,-1.5825,-1.5825,-1.5825,-1.5825,-1.5825,-1.5825,-1.5825,-1.5825,-1.5825,-1.5825,-1.5825,-1.5825,-1.5872,-1.5885,-1.6059,-1.6296,-1.6397,-1.6531,-1.7289,-1.8108,-1.8884,-1.9717,-2.067,-2.1619,-2.2667,-2.3338,-2.3438,-2.4053,-2.4152,-2.4161,-2.4161,-2.4161,-2.4161,-2.4161,-2.4161,-2.4161,-2.4161,-2.4161,-2.4161,-2.4161,-2.4161,-2.4161,-2.4161,-2.4161,-2.4161,-2.4161,-2.4161,-2.4161,-0.3587,-0.3587,-0.3587,-0.3587,-0.3587,-0.3587,-0.4033,-0.4704,-0.5701,-0.6919,-0.8033,-0.914,-1.0025,-1.0582,-1.0692,-1.0692,-1.0692,-1.0692,-1.0692,-1.0692,-1.0692,-1.0692,-1.0692,-1.0692,-1.0692,-1.0692,-1.0688,-1.0676,-1.0586,-1.0566,-1.0526,-1.0481,-1.0526,-1.0582,-1.0562,-1.0651,-1.068,-1.0688,-1.0688,-1.0692,-1.0692,-1.0692,-1.0692,-1.0692,-1.0692,-1.0692,-1.0777,-1.0958,-1.1791,-1.273,-1.3443,-1.4325,-1.5158,-1.5615,-1.5825,-1.5825,-1.5825,-1.5825,-1.5825,-1.5825,-1.5825,-1.5825,-1.5825,-1.5825,-1.5825,-1.5825,-1.5825,-1.5825,-1.5825,-1.5825,-1.5825,-1.5825,-1.5825,-1.5825,-1.5825,-1.5825,-1.5825,-1.5825,-1.5838,-1.5892,-1.5979,-1.6186,-1.6386,-1.6526,-1.668,-1.7191,-1.7757,-1.833,-1.9332,-2.0389,-2.1338,-2.2391,-2.2828,-2.3038,-2.3746,-2.4161,-2.4161,-2.4161,-2.4161,-2.4161,-2.4161,-2.4161,-2.4161,-2.4161,-2.4161,-2.4161,-2.4161,-2.4161,-2.4161,-2.4161,-2.4161,-2.4161,-2.4161,-2.4161,-2.4161,-0.3574,-0.3587,-0.3587,-0.3587,-0.3587,-0.3587,-0.4033,-0.4925,-0.526,-0.6591,-0.8254,-0.914,-0.9919,-1.0472,-1.0692,-1.0692,-1.0692,-1.0692,-1.0692,-1.0692,-1.0692,-1.0692,-1.0692,-1.0692,-1.0692,-1.0692,-1.0692,-1.0684,-1.0684,-1.068,-1.0668,-1.0692,-1.0655,-1.0676,-1.0684,-1.0688,-1.0692,-1.0692,-1.0692,-1.0692,-1.0692,-1.0692,-1.0692,-1.0692,-1.0692,-1.0692,-1.0692,-1.0794,-1.1133,-1.2093,-1.2626,-1.3534,-1.4618,-1.5174,-1.5536,-1.5681,-1.5825,-1.5825,-1.5825,-1.5825,-1.5825,-1.5825,-1.5825,-1.5825,-1.5825,-1.5825,-1.5825,-1.5825,-1.5825,-1.5825,-1.5825,-1.5825,-1.5825,-1.5825,-1.5825,-1.5825,-1.5825,-1.5825,-1.5845,-1.5892,-1.6046,-1.6353,-1.6547,-1.6734,-1.6947,-1.7215,-1.761,-1.7962,-1.8715,-1.9746,-2.0364,-2.1183,-2.1912,-2.2215,-2.3138,-2.3746,-2.3854,-2.4152,-2.4053,-2.4152,-2.4152,-2.4152,-2.4161,-2.4161,-2.4053,-2.4161,-2.4161,-2.4161,-2.4161,-2.4161,-2.4161,-2.4161,-2.4161,-2.4161,-2.4161,-0.3536,-0.3587,-0.3586,-0.3586,-0.3587,-0.3587,-0.3699,-0.4033,-0.4925,-0.6033,-0.7584,-0.9471,-1.0468,-1.0688,-1.0692,-1.0692,-1.0692,-1.0692,-1.0692,-1.0692,-1.0692,-1.0692,-1.0692,-1.0692,-1.0692,-1.0692,-1.0692,-1.0692,-1.0692,-1.0692,-1.0692,-1.0692,-1.0692,-1.0692,-1.0692,-1.0692,-1.0692,-1.0692,-1.0692,-1.0692,-1.0692,-1.0692,-1.0692,-1.0692,-1.0692,-1.0692,-1.0692,-1.0692,-1.1004,-1.2022,-1.2259,-1.3023,-1.4332,-1.4793,-1.518,-1.5833,-1.5979,-1.5979,-1.5979,-1.5879,-1.5845,-1.5832,-1.5885,-1.5952,-1.5985,-1.5892,-1.5852,-1.5912,-1.5959,-1.5885,-1.5865,-1.5825,-1.5825,-1.5825,-1.5825,-1.5825,-1.5825,-1.5825,-1.5845,-1.5892,-1.6119,-1.6473,-1.678,-1.6974,-1.7141,-1.7395,-1.7442,-1.7786,-1.7786,-1.8513,-1.8923,-1.9642,-2.0467,-2.1293,-2.2417,-2.2929,-2.3238,-2.3546,-2.3646,-2.3845,-2.3945,-2.4053,-2.3845,-2.3538,-2.3338,-2.3746,-2.4053,-2.3746,-2.3646,-2.4053,-2.4161,-2.4161,-2.4161,-2.4161,-2.4161,-0.3458,-0.3374,-0.3516,-0.3553,-0.3587,-0.3587,-0.3587,-0.3699,-0.4145,-0.5367,-0.7249,-0.9581,-1.0692,-1.0692,-1.0692,-1.0692,-1.0692,-1.0692,-1.0692,-1.0692,-1.0692,-1.0692,-1.0692,-1.0692,-1.0692,-1.0692,-1.0692,-1.0692,-1.0692,-1.0692,-1.0692,-1.0692,-1.0692,-1.0692,-1.0692,-1.0692,-1.0692,-1.0692,-1.0692,-1.0692,-1.0692,-1.0692,-1.0692,-1.0692,-1.0692,-1.0692,-1.0692,-1.0692,-1.1017,-1.1293,-1.1688,-1.282,-1.404,-1.4433,-1.527,-1.6039,-1.6208,-1.6313,-1.6239,-1.6072,-1.5912,-1.6132,-1.6259,-1.6346,-1.6299,-1.6346,-1.6366,-1.6339,-1.6192,-1.6106,-1.6099,-1.5952,-1.5825,-1.5825,-1.5852,-1.5885,-1.5912,-1.5952,-1.6012,-1.6126,-1.6373,-1.668,-1.6967,-1.7241,-1.7395,-1.7549,-1.7575,-1.7589,-1.7589,-1.7687,-1.8199,-1.8715,-1.9642,-2.0372,-2.1387,-2.2005,-2.2518,-2.2828,-2.3138,-2.3129,-2.3129,-2.3129,-2.2929,-2.2619,-2.2417,-2.2417,-2.2518,-2.2828,-2.3238,-2.3646,-2.4053,-2.4161,-2.4161,-2.4161,-2.4161,-0.3289,-0.3309,-0.3455,-0.3506,-0.3559,-0.3579,-0.3587,-0.3587,-0.3587,-0.4921,-0.7249,-0.9578,-1.0692,-1.0692,-1.0692,-1.0692,-1.0692,-1.0692,-1.0692,-1.0692,-1.0692,-1.0692,-1.0692,-1.0692,-1.0692,-1.0692,-1.0692,-1.0692,-1.0692,-1.0692,-1.0692,-1.0692,-1.0692,-1.0692,-1.0692,-1.0692,-1.0692,-1.0692,-1.0692,-1.0692,-1.0692,-1.0692,-1.0692,-1.0692,-1.0692,-1.0692,-1.0692,-1.0692,-1.0692,-1.0983,-1.1328,-1.2079,-1.3131,-1.4057,-1.5059,-1.5916,-1.6506,-1.6714,-1.6593,-1.642,-1.6186,-1.64,-1.6533,-1.664,-1.6707,-1.6707,-1.662,-1.6633,-1.6493,-1.64,-1.6393,-1.6259,-1.6186,-1.6239,-1.6226,-1.6246,-1.6233,-1.6259,-1.6319,-1.64,-1.6667,-1.6914,-1.7068,-1.7321,-1.7462,-1.7575,-1.7582,-1.7589,-1.7589,-1.7687,-1.7891,-1.8408,-1.9027,-1.9642,-2.0261,-2.0979,-2.1599,-2.1802,-2.2013,-2.2005,-2.2005,-2.2013,-2.2013,-2.17,-2.1395,-2.0987,-2.1191,-2.181,-2.2627,-2.3438,-2.3746,-2.4053,-2.4161,-2.4161,-2.4161,-0.3251,-0.3302,-0.3412,-0.3446,-0.3497,-0.3561,-0.3583,-0.3691,-0.392,-0.5142,-0.747,-0.9691,-1.0692,-1.0692,-1.0692,-1.0692,-1.0692,-1.0692,-1.0692,-1.0692,-1.0692,-1.0692,-1.0692,-1.0692,-1.0692,-1.0692,-1.0692,-1.0692,-1.0692,-1.0692,-1.0692,-1.0692,-1.0692,-1.0692,-1.0692,-1.0692,-1.0692,-1.0692,-1.0692,-1.0692,-1.0692,-1.0692,-1.0692,-1.0692,-1.0692,-1.0692,-1.0692,-1.0692,-1.0692,-1.0781,-1.0773,-1.1436,-1.2375,-1.3398,-1.4429,-1.5287,-1.6283,-1.6666,-1.6727,-1.6693,-1.6707,-1.6714,-1.682,-1.686,-1.678,-1.676,-1.682,-1.6914,-1.6754,-1.67,-1.6687,-1.6653,-1.6593,-1.6553,-1.6526,-1.6513,-1.6486,-1.6486,-1.6533,-1.6653,-1.6914,-1.725,-1.7241,-1.7368,-1.7508,-1.7582,-1.7589,-1.7589,-1.7589,-1.7687,-1.7793,-1.7996,-1.8513,-1.8715,-1.9339,-2.0158,-2.068,-2.0885,-2.0885,-2.0877,-2.0877,-2.0877,-2.0885,-2.068,-2.0577,-2.0261,-2.0475,-2.0893,-2.1599,-2.2316,-2.3438,-2.3954,-2.4053,-2.4161,-2.4161,-0.3273,-0.3192,-0.3335,-0.3362,-0.3394,-0.3486,-0.3526,-0.3863,-0.5224,-0.6808,-0.8361,-1.0025,-1.0692,-1.0692,-1.0692,-1.0692,-1.0692,-1.0692,-1.0692,-1.0692,-1.0692,-1.0692,-1.0692,-1.0692,-1.0692,-1.0692,-1.0692,-1.0692,-1.0692,-1.0692,-1.0692,-1.0692,-1.0692,-1.0692,-1.0692,-1.0692,-1.0692,-1.0692,-1.0692,-1.0692,-1.0692,-1.0692,-1.0692,-1.0692,-1.0692,-1.0692,-1.0692,-1.0692,-1.0692,-1.0692,-1.0692,-1.1189,-1.2089,-1.3143,-1.4389,-1.5467,-1.6633,-1.7281,-1.7288,-1.7275,-1.7188,-1.7128,-1.7134,-1.7215,-1.7281,-1.7281,-1.7288,-1.7208,-1.7068,-1.7027,-1.6994,-1.6794,-1.6693,-1.6667,-1.6647,-1.6647,-1.664,-1.6653,-1.6707,-1.6901,-1.7141,-1.7295,-1.7408,-1.7435,-1.7542,-1.7589,-1.7589,-1.7589,-1.7589,-1.7589,-1.7687,-1.7687,-1.7891,-1.7996,-1.8408,-1.9131,-1.9546,-1.9746,-1.9746,-1.9746,-1.9746,-1.9753,-1.9443,-1.9235,-1.9435,-1.9642,-1.9546,-1.965,-2.0364,-2.1183,-2.2207,-2.3229,-2.3637,-2.3845,-2.4161,-0.323,-0.3236,-0.3273,-0.329,-0.3309,-0.3417,-0.3692,-0.4368,-0.6279,-0.7761,-0.891,-1.0135,-1.0692,-1.0692,-1.0692,-1.0692,-1.0692,-1.0692,-1.0692,-1.0692,-1.0692,-1.0692,-1.0692,-1.0692,-1.0692,-1.0692,-1.0692,-1.0692,-1.0692,-1.0692,-1.0692,-1.0692,-1.0692,-1.0692,-1.0692,-1.0692,-1.0692,-1.0692,-1.0692,-1.0692,-1.0692,-1.0692,-1.0692,-1.0692,-1.0692,-1.0692,-1.0692,-1.0692,-1.0692,-1.0692,-1.0798,-1.1017,-1.1987,-1.2955,-1.403,-1.5209,-1.6717,-1.7351,-1.7549,-1.7542,-1.7422,-1.7328,-1.7502,-1.7569,-1.7589,-1.7522,-1.7528,-1.7482,-1.7375,-1.7328,-1.7241,-1.7007,-1.6987,-1.6967,-1.6974,-1.6987,-1.7001,-1.7021,-1.7041,-1.7228,-1.7288,-1.7435,-1.7522,-1.7542,-1.7582,-1.7589,-1.7589,-1.7589,-1.7589,-1.7589,-1.7589,-1.7582,-1.7582,-1.7793,-1.7793,-1.7898,-1.8304,-1.8617,-1.8715,-1.8819,-1.861,-1.8617,-1.8101,-1.7786,-1.8304,-1.8513,-1.8206,-1.8408,-1.9235,-1.9952,-2.0672,-2.17,-2.282,-2.3438,-2.3746,-0.323,-0.323,-0.323,-0.3233,-0.3253,-0.3354,-0.4074,-0.5441,-0.6629,-0.7895,-0.9127,-1.0221,-1.0672,-1.0688,-1.0692,-1.0692,-1.0692,-1.0692,-1.0692,-1.0692,-1.0692,-1.0692,-1.0692,-1.0692,-1.0692,-1.0692,-1.0692,-1.0692,-1.0692,-1.0692,-1.0692,-1.0692,-1.0692,-1.0692,-1.0692,-1.0692,-1.0692,-1.0692,-1.0692,-1.0692,-1.0692,-1.0692,-1.0692,-1.0692,-1.0692,-1.0692,-1.0692,-1.0692,-1.0692,-1.0692,-1.0692,-1.0692,-1.1122,-1.1769,-1.295,-1.446,-1.6505,-1.7259,-1.7589,-1.7589,-1.7582,-1.7502,-1.7555,-1.7589,-1.7589,-1.7589,-1.7589,-1.7589,-1.7508,-1.7535,-1.7508,-1.7488,-1.7462,-1.7462,-1.7468,-1.7475,-1.7482,-1.7482,-1.7482,-1.7522,-1.7515,-1.7569,-1.7569,-1.7589,-1.7589,-1.7589,-1.7589,-1.7589,-1.7589,-1.7589,-1.7589,-1.7589,-1.7589,-1.7589,-1.7589,-1.7589,-1.7687,-1.8206,-1.7996,-1.7996,-1.7793,-1.7786,-1.7793,-1.7687,-1.7687,-1.7687,-1.8094,-1.8094,-1.8101,-1.8819,-1.9443,-2.0467,-2.1599,-2.2518,-2.2937,-0.323,-0.323,-0.323,-0.323,-0.3236,-0.3268,-0.4481,-0.6399,-0.7584,-0.8731,-0.9965,-1.0293,-1.0562,-1.0684,-1.0692,-1.0684,-1.0688,-1.0692,-1.0692,-1.0692,-1.0692,-1.0692,-1.0692,-1.0692,-1.0692,-1.0692,-1.0692,-1.0692,-1.0692,-1.0692,-1.0692,-1.0692,-1.0692,-1.0692,-1.0692,-1.0692,-1.0692,-1.0692,-1.0692,-1.0692,-1.0692,-1.0692,-1.0692,-1.0692,-1.0692,-1.0692,-1.0692,-1.0692,-1.0692,-1.0692,-1.0692,-1.0692,-1.0802,-1.1769,-1.3063,-1.5215,-1.6723,-1.7589,-1.7589,-1.7589,-1.7589,-1.7589,-1.7589,-1.7589,-1.7589,-1.7589,-1.7589,-1.7589,-1.7589,-1.7589,-1.7589,-1.7589,-1.7589,-1.7589,-1.7589,-1.7589,-1.7589,-1.7589,-1.7589,-1.7589,-1.7589,-1.7589,-1.7589,-1.7589,-1.7589,-1.7589,-1.7589,-1.7589,-1.7589,-1.7589,-1.7589,-1.7589,-1.7589,-1.7589,-1.7589,-1.7589,-1.7589,-1.7694,-1.7589,-1.7589,-1.7687,-1.7687,-1.7589,-1.7589,-1.7589,-1.8101,-1.8715,-1.8506,-1.7891,-1.7793,-1.8311,-1.9339,-2.0372,-2.1191,-2.2021,-0.323,-0.323,-0.323,-0.323,-0.3331,-0.413,-0.5406,-0.6641,-0.7425,-0.8682,-1.0208,-1.0327,-1.0387,-1.0469,-1.0538,-1.0582,-1.0586,-1.0664,-1.0692,-1.0692,-1.0684,-1.0692,-1.0692,-1.0692,-1.0692,-1.0692,-1.0692,-1.0692,-1.0692,-1.0692,-1.0692,-1.0692,-1.0692,-1.0692,-1.0692,-1.0692,-1.0692,-1.0692,-1.0692,-1.0692,-1.0692,-1.0692,-1.0692,-1.0692,-1.0692,-1.0692,-1.0692,-1.0692,-1.0692,-1.0692,-1.0692,-1.0692,-1.1017,-1.22,-1.3275,-1.5215,-1.6717,-1.7371,-1.7589,-1.7589,-1.7589,-1.7589,-1.7589,-1.7589,-1.7589,-1.7589,-1.7589,-1.7589,-1.7589,-1.7589,-1.7589,-1.7589,-1.7589,-1.7589,-1.7589,-1.7589,-1.7589,-1.7589,-1.7589,-1.7589,-1.7589,-1.7589,-1.7589,-1.7589,-1.7589,-1.7589,-1.7589,-1.7589,-1.7589,-1.7589,-1.7589,-1.7589,-1.7589,-1.7589,-1.7589,-1.7589,-1.7589,-1.7589,-1.7589,-1.7589,-1.7589,-1.7589,-1.7589,-1.7589,-1.7589,-1.8101,-1.8506,-1.8101,-1.7687,-1.7589,-1.7589,-1.8311,-1.9235,-1.9952,-2.0577,-0.323,-0.323,-0.323,-0.323,-0.343,-0.5227,-0.6232,-0.6434,-0.6853,-0.811,-0.9908,-1.014,-1.016,-1.0253,-1.0351,-1.0408,-1.044,-1.0517,-1.059,-1.066,-1.0635,-1.0643,-1.0684,-1.0692,-1.0692,-1.0692,-1.0692,-1.0692,-1.0692,-1.0692,-1.0692,-1.0692,-1.0692,-1.0692,-1.0692,-1.0692,-1.0692,-1.0692,-1.0692,-1.0692,-1.0692,-1.0692,-1.0692,-1.0692,-1.0692,-1.0692,-1.0692,-1.0692,-1.0692,-1.0692,-1.0692,-1.0692,-1.1341,-1.2738,-1.3814,-1.4888,-1.6393,-1.7259,-1.7589,-1.7589,-1.7589,-1.7589,-1.7589,-1.7589,-1.7589,-1.7589,-1.7589,-1.7589,-1.7589,-1.7589,-1.7589,-1.7589,-1.7589,-1.7589,-1.7589,-1.7589,-1.7589,-1.7589,-1.7589,-1.7589,-1.7589,-1.7589,-1.7589,-1.7589,-1.7589,-1.7589,-1.7589,-1.7589,-1.7589,-1.7589,-1.7589,-1.7589,-1.7589,-1.7589,-1.7589,-1.7589,-1.7589,-1.7589,-1.7589,-1.7589,-1.7589,-1.7589,-1.7589,-1.7589,-1.7589,-1.7589,-1.7793,-1.7589,-1.7589,-1.7589,-1.7589,-1.7589,-1.8101,-1.8819,-1.9443,-0.323,-0.323,-0.323,-0.323,-0.3331,-0.4632,-0.5727,-0.6523,-0.7353,-0.8571,-0.9725,-0.9961,-1.0022,-1.0128,-1.0184,-1.0229,-1.0253,-1.0322,-1.0383,-1.0456,-1.0493,-1.057,-1.0664,-1.066,-1.068,-1.0692,-1.0692,-1.0692,-1.0692,-1.0692,-1.0692,-1.0692,-1.0692,-1.0692,-1.0692,-1.0692,-1.0692,-1.0692,-1.0692,-1.0692,-1.0692,-1.0692,-1.0692,-1.0692,-1.0692,-1.0692,-1.0692,-1.0692,-1.0692,-1.0692,-1.0692,-1.0692,-1.0798,-1.295,-1.3917,-1.4561,-1.618,-1.7153,-1.7589,-1.7589,-1.7589,-1.7589,-1.7589,-1.7589,-1.7589,-1.7589,-1.7589,-1.7589,-1.7589,-1.7589,-1.7589,-1.7589,-1.7589,-1.7589,-1.7589,-1.7589,-1.7589,-1.7589,-1.7589,-1.7589,-1.7589,-1.7589,-1.7589,-1.7589,-1.7589,-1.7589,-1.7589,-1.7589,-1.7589,-1.7589,-1.7589,-1.7589,-1.7589,-1.7589,-1.7589,-1.7589,-1.7589,-1.7589,-1.7589,-1.7589,-1.7589,-1.7589,-1.7589,-1.7589,-1.7589,-1.7589,-1.7589,-1.7589,-1.7589,-1.7589,-1.7589,-1.7589,-1.7589,-1.8206,-1.8617,-0.323,-0.323,-0.323,-0.343,-0.4031,-0.5031,-0.6126,-0.7223,-0.8223,-0.9072,-0.9658,-0.9778,-0.9835,-0.9953,-0.9998,-1.0042,-1.0059,-1.014,-1.0225,-1.0294,-1.0335,-1.0428,-1.0505,-1.0578,-1.0643,-1.066,-1.0684,-1.0692,-1.0692,-1.0692,-1.0692,-1.0692,-1.0692,-1.0692,-1.0692,-1.0692,-1.0692,-1.0692,-1.0692,-1.0692,-1.0692,-1.0692,-1.0692,-1.0692,-1.0692,-1.0692,-1.0692,-1.0692,-1.0692,-1.0692,-1.0692,-1.0692,-1.1013,-1.2304,-1.3491,-1.4347,-1.5642,-1.7047,-1.7371,-1.7582,-1.7582,-1.7589,-1.7589,-1.7589,-1.7589,-1.7589,-1.7589,-1.7589,-1.7589,-1.7589,-1.7589,-1.7589,-1.7589,-1.7589,-1.7589,-1.7589,-1.7589,-1.7589,-1.7589,-1.7589,-1.7589,-1.7589,-1.7589,-1.7589,-1.7589,-1.7589,-1.7589,-1.7589,-1.7589,-1.7589,-1.7589,-1.7589,-1.7589,-1.7589,-1.7589,-1.7589,-1.7589,-1.7589,-1.7589,-1.7589,-1.7589,-1.7589,-1.7589,-1.7589,-1.7589,-1.7589,-1.7589,-1.7589,-1.7589,-1.7589,-1.7589,-1.7589,-1.7589,-1.7589,-1.7996,-0.323,-0.323,-0.333,-0.3932,-0.4935,-0.6124,-0.7123,-0.8024,-0.9126,-0.9525,-0.964,-0.964,-0.9624,-0.9681,-0.9766,-0.9823,-0.988,-0.9949,-1.0046,-1.0115,-1.0128,-1.0245,-1.0339,-1.0408,-1.0497,-1.0603,-1.0664,-1.068,-1.0692,-1.0692,-1.0692,-1.0692,-1.0692,-1.0692,-1.0692,-1.0692,-1.0692,-1.0692,-1.0692,-1.0692,-1.0692,-1.0692,-1.0692,-1.0692,-1.0692,-1.0692,-1.0692,-1.0692,-1.0692,-1.0692,-1.0692,-1.0692,-1.1017,-1.1987,-1.2733,-1.3809,-1.4781,-1.6074,-1.6935,-1.7153,-1.7364,-1.7477,-1.7582,-1.7589,-1.7589,-1.7589,-1.7589,-1.7589,-1.7589,-1.7589,-1.7589,-1.7589,-1.7589,-1.7589,-1.7589,-1.7589,-1.7589,-1.7589,-1.7589,-1.7589,-1.7589,-1.7589,-1.7589,-1.7589,-1.7589,-1.7589,-1.7589,-1.7589,-1.7589,-1.7589,-1.7589,-1.7589,-1.7589,-1.7589,-1.7589,-1.7589,-1.7589,-1.7589,-1.7589,-1.7589,-1.7589,-1.7589,-1.7589,-1.7589,-1.7589,-1.7589,-1.7589,-1.7589,-1.7589,-1.7589,-1.7589,-1.7589,-1.7589,-1.7589,-1.7589,-0.323,-0.323,-0.4133,-0.4634,-0.5133,-0.6828,-0.7822,-0.8124,-0.9126,-0.9624,-0.9624,-0.9624,-0.9624,-0.9628,-0.9652,-0.9689,-0.9726,-0.9782,-0.9843,-0.9916,-0.9937,-1.0059,-1.018,-1.0253,-1.0339,-1.0469,-1.0607,-1.068,-1.0692,-1.0692,-1.0692,-1.0692,-1.0692,-1.0692,-1.0692,-1.0692,-1.0692,-1.0692,-1.0692,-1.0692,-1.0692,-1.0692,-1.0692,-1.0692,-1.0692,-1.0692,-1.0692,-1.0692,-1.0692,-1.0692,-1.0692,-1.0692,-1.1017,-1.1555,-1.2309,-1.295,-1.403,-1.4995,-1.5749,-1.6287,-1.6617,-1.7371,-1.7371,-1.7589,-1.7589,-1.7589,-1.7589,-1.7589,-1.7589,-1.7589,-1.7589,-1.7589,-1.7589,-1.7589,-1.7589,-1.7589,-1.7589,-1.7589,-1.7589,-1.7589,-1.7589,-1.7589,-1.7589,-1.7589,-1.7589,-1.7589,-1.7589,-1.7589,-1.7589,-1.7589,-1.7589,-1.7589,-1.7589,-1.7589,-1.7589,-1.7589,-1.7589,-1.7589,-1.7589,-1.7589,-1.7589,-1.7589,-1.7589,-1.7589,-1.7589,-1.7589,-1.7589,-1.7589,-1.7589,-1.7589,-1.7589,-1.7589,-1.7589,-1.7589,-1.7589]}]]